GFSWCAN_700_spd_000.txt.gz
Wind_Speed
29 33 35 35 33 31 33 34 34 32 29 26 25 24 22 20 18 17 17 16 15 13 11 12 12 12 12 14 14 12 12 14 11 9 6 6 7 8 9 12 13 12 7 9 7 8 8 6 16 21 26 33 35 35
32 28 36 33 34 32 31 32 33 33 31 28 26 25 24 22 20 19 18 17 15 14 10 12 13 13 14 16 16 16 16 10 10 8 8 7 10 14 15 13 15 13 11 14 13 18 21 27 27 28 28 31 34 35
24 35 32 40 37 34 34 32 31 30 31 30 28 26 25 23 21 20 19 19 18 17 16 17 16 15 16 17 17 18 19 18 18 16 15 16 18 19 21 19 19 24 24 28 26 29 19 23 28 33 31 35 33 31
14 22 36 38 40 36 35 34 32 31 30 30 29 27 26 25 23 22 21 20 20 19 20 18 15 18 21 21 20 19 20 21 20 19 18 19 21 19 24 23 28 31 28 33 27 23 23 25 30 35 30 34 34 37
9 13 23 35 39 42 38 35 34 32 31 30 29 27 27 26 25 24 24 23 22 21 14 20 23 24 23 21 19 19 21 22 24 25 23 23 23 28 32 32 34 27 25 25 26 20 25 29 27 27 38 37 33 33
8 10 11 22 36 43 40 35 34 33 33 31 30 30 30 29 28 26 26 26 25 24 25 25 24 23 20 18 17 23 23 23 27 26 27 29 28 27 22 28 31 29 26 24 25 30 26 22 28 32 31 28 30 27
12 10 10 12 23 36 48 43 38 35 34 32 31 31 31 30 29 29 28 26 26 25 25 24 26 31 29 28 26 24 23 24 25 27 33 34 33 27 33 35 31 32 29 30 30 26 22 25 30 27 27 30 28 29
16 14 12 11 12 25 31 40 45 38 38 37 33 32 31 30 30 31 30 27 25 23 25 19 17 21 21 19 18 19 20 20 25 29 34 33 31 29 30 33 31 29 25 27 23 21 26 28 27 28 27 28 31 33
19 17 14 12 12 16 29 31 35 36 40 36 36 31 32 34 35 34 29 28 28 28 23 29 32 23 23 22 19 19 20 24 30 34 34 28 28 22 24 29 29 22 25 22 20 23 24 24 26 27 28 32 36 40
19 17 15 13 13 13 20 29 35 40 37 37 37 37 39 37 35 28 26 27 30 33 35 38 31 27 21 20 21 23 27 20 17 21 21 28 35 32 24 24 23 25 25 19 20 23 24 26 27 29 35 38 41 45
18 15 13 12 12 13 15 22 25 42 42 42 42 43 37 36 35 31 28 23 22 28 31 40 37 31 30 27 30 22 16 11 11 17 16 11 21 19 20 20 22 18 16 19 22 25 26 28 31 36 38 42 39 38
20 16 12 12 10 13 14 16 21 26 41 47 48 44 43 35 23 19 21 17 15 23 18 21 25 25 25 23 20 12 10 8 9 10 9 10 14 17 17 16 16 16 20 22 24 25 27 30 34 40 39 38 39 38
19 16 13 11 8 7 10 15 20 25 29 39 40 37 22 17 14 14 15 20 18 13 17 17 19 26 17 9 6 10 6 8 9 8 11 17 19 14 11 10 13 19 22 23 25 27 30 35 39 37 38 36 37 36
21 18 15 14 13 9 8 11 14 16 12 21 14 16 15 8 8 8 11 14 16 15 19 11 7 7 10 6 10 5 11 9 8 11 18 20 16 11 10 14 21 22 22 25 28 32 37 37 36 35 34 35 35 36
25 23 18 14 16 17 12 9 12 11 9 5 5 4 5 8 9 9 8 7 8 6 6 8 11 12 12 10 9 9 5 7 6 9 12 10 9 10 16 20 20 22 26 31 34 35 34 35 35 35 34 33 34 35
25 25 22 15 12 21 20 16 12 9 9 6 2 3 5 3 4 3 1 1 1 5 8 12 10 7 11 7 9 9 8 10 13 15 15 13 14 18 21 23 26 30 32 33 32 34 35 35 36 34 32 30 30 32
22 29 20 16 15 22 20 22 19 17 2 5 7 7 5 3 3 4 4 5 6 7 10 10 8 10 6 7 9 11 17 21 21 18 17 19 21 22 27 30 31 31 30 32 33 34 35 35 33 32 30 28 29 30
18 26 24 19 15 17 25 22 18 13 14 13 10 7 7 6 7 9 9 10 11 12 13 16 15 15 10 11 12 15 17 19 19 19 20 21 26 30 32 30 29 30 32 33 33 33 33 31 31 32 31 30 32 33
18 22 26 22 20 18 21 19 21 11 13 12 10 7 6 7 8 10 10 11 12 12 15 18 12 13 14 16 18 17 14 15 19 24 26 28 28 27 28 28 30 32 32 33 32 31 29 29 30 31 32 34 35 36
19 27 27 25 21 19 17 10 16 16 7 8 8 8 9 11 12 13 12 12 12 15 19 22 22 18 17 16 16 19 22 25 26 26 25 25 24 27 29 29 30 31 32 32 30 28 27 28 30 34 35 36 35 33
27 33 31 28 26 25 16 8 11 8 9 11 10 10 11 12 13 13 15 15 19 24 25 19 14 13 17 20 21 21 21 20 20 22 24 27 28 28 29 30 31 31 31 29 27 26 28 31 35 35 35 34 32 30
26 33 28 30 29 21 13 12 11 10 9 8 8 10 11 12 13 15 15 19 23 20 16 15 16 19 20 19 17 18 19 21 23 25 28 29 30 30 29 29 29 27 27 27 28 31 33 35 35 34 34 31 28 27
32 29 24 22 19 15 11 14 14 11 9 9 10 11 13 14 15 15 18 21 18 14 15 16 17 17 17 17 19 20 22 24 26 27 27 27 27 28 28 27 28 30 31 32 35 36 36 34 34 33 34 31 29 28
28 27 23 18 14 12 11 10 12 12 13 12 11 12 13 14 14 16 21 19 11 13 14 16 16 16 18 19 19 21 25 27 28 28 27 28 29 30 30 32 33 35 37 36 36 36 36 33 29 32 34 30 28 29
18 14 9 12 11 10 10 10 10 11 13 11 11 13 13 12 13 17 18 13 10 11 9 10 15 18 20 19 23 26 27 29 30 31 30 31 34 36 36 34 32 33 32 32 34 35 33 30 30 33 30 29 29 27
10 7 7 7 9 11 10 9 10 12 11 11 10 12 12 12 11 9 13 10 10 11 15 19 21 21 23 26 30 33 35 35 38 37 34 33 32 33 35 35 33 31 28 31 32 32 31 30 29 27 27 27 27 27
7 5 9 9 8 7 9 11 10 9 9 10 10 9 8 7 8 8 12 13 16 18 20 21 23 26 31 36 41 43 42 40 40 39 37 36 36 37 38 36 34 33 31 31 31 31 29 27 26 26 26 25 27 28
6 7 7 7 8 8 6 7 7 6 6 7 9 10 7 7 9 14 16 19 21 24 29 34 39 43 45 46 47 47 44 41 39 38 37 37 36 36 36 34 32 29 29 29 27 27 28 28 27 27 26 26 27 29
6 6 7 8 8 7 7 8 7 9 10 14 16 16 19 22 25 28 30 32 34 36 37 39 40 41 41 40 41 42 40 39 37 35 34 33 33 33 30 28 27 27 28 27 27 27 26 25 24 25 26 27 28 30
4 2 4 7 9 10 11 12 14 17 19 21 22 23 25 28 30 31 33 35 36 35 36 34 31 30 30 29 30 31 31 30 30 31 30 28 27 28 28 26 28 28 27 28 26 23 21 22 23 25 27 29 30 30
7 8 10 11 11 11 14 17 20 22 23 24 25 26 28 32 34 33 32 32 32 31 26 26 28 30 28 26 25 24 24 23 24 25 26 28 28 28 29 28 28 28 25 22 20 19 20 21 24 26 28 28 28 29
12 13 16 18 19 18 18 18 21 24 26 26 26 26 27 28 29 30 30 25 23 23 24 26 27 27 27 26 25 23 21 20 20 21 22 23 23 24 23 23 21 19 18 18 18 19 21 23 25 27 27 27 27 27
10 10 11 14 19 22 22 22 24 26 24 23 24 24 23 23 24 22 19 22 24 26 29 28 28 29 30 28 26 24 23 23 22 22 22 22 21 20 20 19 18 18 18 19 20 21 22 23 23 24 25 26 27 28

GFSWCAN_700_spd_003.txt.gz
Wind_Speed
39 35 36 35 34 37 38 37 36 33 30 26 23 22 21 21 19 17 15 14 14 15 14 19 19 17 16 17 16 18 16 17 16 13 9 8 8 7 6 5 7 7 6 7 5 7 8 7 9 18 19 21 30 34
35 35 35 36 34 33 35 36 36 34 32 29 26 24 24 23 21 19 18 16 14 14 11 14 15 16 18 19 16 16 15 12 13 12 13 9 10 9 10 5 6 8 11 8 9 13 20 25 28 30 25 28 29 29
22 36 37 33 35 33 31 32 34 34 32 30 29 26 25 24 23 21 19 18 17 16 14 14 16 16 16 16 16 18 18 19 18 19 17 17 16 15 15 15 14 17 14 24 23 21 22 25 21 22 29 30 28 35
22 19 28 35 32 34 31 29 29 30 31 30 30 28 27 26 24 23 21 19 19 18 19 18 16 20 19 18 18 18 20 19 20 21 22 21 21 18 21 18 17 20 16 22 28 27 25 22 21 26 29 26 32 32
8 14 20 28 37 36 32 32 30 29 28 29 30 30 29 28 26 25 23 22 21 21 13 20 23 21 19 19 19 19 20 20 21 21 24 23 24 24 29 27 30 24 20 22 26 25 26 25 30 26 21 27 27 28
7 9 13 20 31 32 36 36 32 30 28 28 29 29 30 29 28 26 26 26 24 23 25 25 23 21 21 22 24 25 25 24 23 25 27 25 26 23 22 30 34 29 25 24 24 28 30 34 27 18 23 24 28 29
8 6 8 10 19 30 35 40 36 33 30 30 29 30 30 29 29 30 29 28 26 26 26 27 25 29 26 26 27 26 27 28 28 30 32 30 28 28 32 38 32 30 29 26 25 29 26 20 18 25 29 28 29 23
14 12 7 7 10 19 31 39 40 36 32 32 31 31 30 31 32 31 30 28 25 24 28 23 18 22 26 30 29 29 30 30 31 33 34 33 28 30 31 37 32 25 25 25 23 19 14 17 22 25 27 28 29 28
20 17 14 10 8 10 19 31 40 40 36 33 30 29 30 34 36 33 28 28 29 29 25 29 31 28 26 27 24 24 24 28 31 34 33 32 34 31 30 24 26 26 24 23 22 22 18 18 23 26 28 28 32 36
22 19 16 14 12 11 11 19 28 35 43 40 34 35 38 40 34 28 29 30 33 36 39 41 36 32 28 22 22 24 25 22 21 28 28 33 42 36 30 28 28 26 22 21 22 20 20 22 26 28 29 31 35 38
19 19 18 16 15 12 14 14 21 29 31 34 36 37 39 39 31 29 30 25 27 33 37 46 45 37 32 27 24 23 24 16 18 25 22 15 29 28 20 17 18 19 18 19 19 20 22 24 27 28 32 35 38 37
18 17 16 16 17 14 13 14 19 26 33 45 43 44 40 26 27 21 22 22 26 28 38 33 36 34 38 38 35 32 26 12 10 13 11 10 17 13 12 15 16 16 18 19 20 22 24 26 28 31 34 36 37 36
18 16 14 12 14 13 13 15 14 18 22 30 42 29 22 23 16 15 21 22 27 28 32 33 31 24 30 31 29 17 11 10 9 9 8 8 15 16 16 14 15 16 17 19 21 24 26 28 31 35 35 35 35 37
17 17 14 11 10 9 9 9 11 12 15 20 17 17 13 6 8 10 16 22 27 29 24 20 26 30 27 25 11 8 9 8 6 6 7 12 12 14 14 13 12 17 18 21 24 27 29 32 32 33 34 34 37 35
18 19 16 13 13 11 10 7 7 10 8 8 8 5 4 4 7 10 12 12 14 17 20 24 23 12 10 7 8 7 5 6 5 5 12 11 12 12 12 14 17 18 21 25 29 31 31 31 33 35 35 36 35 33
19 20 20 16 15 15 14 9 10 8 6 6 3 7 8 8 8 6 4 7 9 9 8 9 6 4 8 6 6 7 5 5 7 12 10 13 13 13 15 17 18 22 27 30 30 30 32 34 35 36 36 33 32 32
24 19 22 20 17 13 13 12 8 11 1 5 7 8 10 3 4 6 3 4 5 5 10 5 3 6 4 6 9 12 18 20 18 17 17 14 14 16 19 21 26 30 29 28 30 32 34 34 35 34 33 30 31 31
17 21 19 22 21 18 15 17 19 13 11 9 6 5 6 5 3 3 2 3 3 4 7 12 10 12 8 7 12 17 19 18 16 16 16 17 20 21 25 29 29 27 28 30 31 31 31 32 32 30 29 29 32 35
16 21 20 25 20 17 23 12 19 11 12 9 8 5 4 5 6 7 7 7 8 9 12 17 11 12 13 16 20 20 19 18 18 19 21 22 25 26 25 25 26 27 28 28 29 30 30 30 29 27 29 32 35 36
18 23 16 22 23 19 19 20 13 18 9 10 8 9 8 9 10 12 13 15 15 16 19 21 20 16 18 20 20 20 21 21 22 23 23 22 22 21 23 25 26 27 29 29 28 29 29 28 27 30 33 36 38 36
21 19 20 25 24 22 17 7 10 9 14 10 10 10 11 11 12 13 14 14 16 21 21 18 15 15 19 21 21 21 20 20 20 20 20 21 23 25 27 28 28 28 29 29 28 28 28 30 33 35 37 37 36 34
22 19 26 30 27 24 22 14 13 12 12 9 11 11 12 13 14 15 14 18 21 18 16 16 15 17 19 19 19 18 17 19 20 22 23 26 28 28 28 28 29 29 27 28 31 34 36 36 38 38 37 37 36 33
24 22 17 33 26 29 21 19 16 14 11 11 11 11 13 13 13 13 17 18 14 12 16 16 17 17 17 17 17 18 20 21 22 24 27 29 29 29 29 28 29 31 32 33 36 37 37 37 35 36 38 36 34 33
21 21 29 20 17 16 16 17 18 15 13 12 12 13 15 15 15 17 21 19 13 14 14 16 16 16 17 18 19 20 22 24 25 29 30 31 31 31 31 33 34 37 37 34 32 35 37 35 34 35 34 33 32 32
30 20 10 11 16 15 12 11 13 13 14 14 13 15 14 12 14 16 16 12 11 12 13 13 13 14 16 19 22 24 26 28 30 33 35 37 40 43 41 37 36 36 36 38 36 37 36 35 35 36 35 34 30 27
7 7 8 12 14 12 13 13 13 14 13 12 12 14 14 13 12 8 9 11 11 12 12 14 16 18 20 23 26 28 31 33 37 43 46 45 44 44 44 42 40 38 37 37 37 37 36 36 35 34 31 28 26 27
6 5 10 9 10 10 11 12 11 11 12 12 14 12 10 6 7 12 13 12 13 16 19 20 21 24 27 30 33 37 42 46 47 47 46 45 43 41 41 40 39 38 37 37 37 34 33 33 33 28 28 28 26 26
6 8 9 10 10 9 7 7 9 9 9 9 9 8 6 7 12 14 14 17 20 21 23 26 29 33 37 41 43 44 42 40 35 34 34 35 36 37 35 34 35 34 34 32 31 31 30 30 28 27 26 25 24 25
7 7 7 6 7 8 9 10 10 10 9 10 12 14 19 21 21 22 23 25 28 30 33 34 37 36 36 37 38 36 35 35 34 34 32 31 31 30 29 29 30 30 30 31 31 31 29 29 27 26 23 22 23 25
4 3 5 7 8 9 10 11 12 13 16 18 20 22 23 25 26 27 28 29 31 34 35 33 33 33 32 30 31 35 34 33 33 32 30 28 27 27 27 28 29 29 29 29 30 30 29 27 24 22 22 21 22 25
6 7 9 11 13 15 17 19 20 21 21 21 21 22 26 28 30 32 33 33 33 31 33 31 28 26 27 29 31 31 31 32 32 32 30 28 27 27 26 26 26 26 26 25 25 24 22 21 21 20 19 20 22 23
7 7 9 11 13 14 15 15 16 19 21 23 26 26 26 28 30 31 31 31 30 27 24 24 26 29 32 32 31 32 33 34 33 31 30 30 29 27 25 24 23 22 21 20 20 19 19 19 19 18 18 20 21 23
8 7 9 10 13 17 19 21 24 25 24 23 24 24 25 24 25 24 22 20 19 22 26 29 31 33 34 34 33 34 33 33 33 32 32 32 31 28 23 21 20 20 20 20 20 19 19 20 20 19 19 20 22 25

GFSWCAN_700_spd_006.txt.gz
Wind_Speed
37 36 34 36 38 38 36 34 32 30 27 25 22 20 18 17 15 15 13 13 14 14 11 18 18 16 16 13 15 15 16 17 18 16 12 11 9 10 12 7 7 6 5 6 5 6 9 7 9 12 15 21 32 29
43 35 32 32 33 36 37 36 33 31 29 27 23 21 19 19 18 17 16 14 13 13 9 15 19 18 19 18 17 17 11 13 12 11 14 10 11 11 13 8 8 10 14 10 11 9 10 20 20 28 32 29 33 29
38 35 33 32 31 32 35 36 35 33 31 29 26 23 21 20 20 20 18 17 16 14 12 13 16 17 18 19 18 17 17 15 16 19 16 15 15 14 18 19 16 16 16 20 19 25 21 23 22 28 28 28 31 34
29 33 29 32 31 31 30 31 32 33 32 31 28 25 23 22 23 23 22 19 19 17 17 16 14 18 16 18 18 19 19 19 21 20 20 22 24 20 24 22 18 19 18 21 22 24 22 24 31 31 31 26 32 26
10 20 33 30 31 31 29 27 27 28 29 29 28 27 26 25 25 25 23 22 20 20 12 18 21 18 18 18 19 20 20 20 21 21 23 24 25 24 28 29 31 27 29 25 26 22 26 27 30 32 30 36 27 23
11 10 11 24 33 29 31 29 26 25 25 26 27 27 27 26 26 26 26 26 24 24 23 24 21 18 20 23 24 22 21 21 23 25 26 25 27 24 23 30 34 28 21 25 26 31 33 27 26 31 28 23 23 27
8 9 10 11 18 28 36 28 26 28 26 24 24 25 26 28 28 29 28 26 26 25 25 26 24 28 24 23 25 24 26 25 23 24 28 27 26 26 32 39 35 30 28 22 30 29 27 28 26 22 19 22 26 24
6 6 6 8 12 21 26 32 36 30 27 27 26 25 25 26 28 29 27 26 23 24 26 26 18 20 22 27 29 29 31 30 31 32 34 31 28 27 33 37 34 31 25 29 31 22 24 24 19 21 23 23 24 25
11 9 7 4 4 8 17 26 32 33 32 29 27 26 27 29 30 27 27 27 28 28 22 30 30 24 26 29 27 26 29 31 32 36 36 34 37 34 38 33 32 22 27 29 25 25 21 20 18 19 22 25 28 32
16 15 12 10 7 5 7 12 22 29 33 31 29 29 32 33 27 26 27 28 31 34 36 39 33 31 29 24 22 25 27 24 24 33 30 35 46 44 40 38 38 33 30 26 24 22 19 20 17 22 25 29 31 33
18 18 16 14 12 9 7 8 10 20 30 35 33 33 33 32 26 26 25 24 28 36 40 44 44 39 36 30 25 22 21 12 19 25 23 27 40 37 28 25 27 27 26 24 22 22 19 17 22 27 29 31 32 35
16 16 15 14 14 11 8 8 9 13 21 26 33 35 28 21 17 21 20 25 28 26 36 34 33 38 37 35 30 26 27 15 15 23 14 21 26 22 18 13 12 14 17 19 18 16 19 24 27 30 31 31 33 34
12 12 12 11 11 11 11 11 9 12 18 25 34 34 26 18 20 10 15 15 22 27 33 36 34 30 28 30 27 20 15 17 22 14 14 15 16 11 10 8 11 15 15 14 14 20 24 27 29 30 31 31 34 36
10 12 11 9 7 6 7 9 9 11 15 17 10 12 12 7 8 12 16 17 22 20 27 25 20 19 28 26 23 10 13 10 9 7 7 9 11 9 9 8 11 11 10 14 20 23 26 28 29 29 30 33 35 35
10 11 11 9 8 6 5 5 5 5 8 9 6 6 6 6 6 7 13 16 15 18 15 17 24 26 22 16 10 10 7 6 7 4 9 6 5 6 5 7 11 13 19 22 24 28 29 29 29 31 32 34 34 35
13 12 12 11 9 7 7 7 6 7 5 4 4 3 5 6 6 8 8 9 9 11 14 11 8 5 4 4 5 5 3 3 5 3 9 8 8 8 11 12 16 19 22 25 28 29 28 28 30 33 33 33 33 32
7 13 14 15 12 9 7 7 5 6 2 3 6 6 5 3 4 5 4 4 4 2 4 3 4 2 0 1 3 3 2 9 11 14 15 13 12 11 14 17 21 23 26 28 26 26 28 30 31 33 33 32 31 29
10 13 17 15 17 14 10 9 10 5 5 5 5 4 0 2 3 3 1 2 2 3 6 5 4 3 2 3 9 13 14 13 13 14 16 17 15 17 20 23 26 28 26 25 26 28 29 31 30 31 31 28 29 29
15 12 15 16 15 16 14 14 12 10 14 14 13 8 6 6 8 8 8 8 7 6 7 6 5 5 9 12 15 16 18 17 17 18 18 17 20 23 25 25 25 24 25 26 27 29 30 30 29 28 28 28 31 33
14 14 16 13 15 18 14 15 12 14 9 12 11 10 10 9 9 10 11 12 12 12 14 15 15 15 15 16 16 18 20 21 21 21 22 23 24 24 22 22 24 26 27 27 27 28 29 29 30 31 33 36 36 36
15 14 18 16 14 20 20 14 12 13 11 12 11 13 14 14 14 15 16 15 17 18 16 15 14 14 19 21 22 22 21 20 21 23 24 23 21 22 24 26 27 28 26 27 27 28 29 32 33 36 37 35 36 36
16 15 19 19 21 22 24 19 14 13 11 10 13 14 15 16 15 15 13 17 19 13 13 15 17 18 18 18 19 19 21 21 21 21 22 23 23 24 26 27 28 29 29 30 30 33 36 38 38 36 35 36 36 34
17 21 19 18 18 22 16 23 19 13 13 13 13 14 15 14 12 11 15 13 10 11 14 15 17 16 16 17 17 17 19 21 21 22 23 24 25 27 29 28 29 33 35 37 38 40 39 35 34 36 37 38 36 35
21 22 24 11 17 14 20 21 21 19 16 14 12 12 12 10 10 12 15 12 13 15 14 15 15 16 16 16 16 17 20 20 21 23 25 27 30 32 34 38 41 43 42 43 41 40 41 41 39 39 39 38 36 35
25 21 11 17 15 18 18 18 22 21 19 14 13 14 11 10 11 13 14 14 15 16 15 12 12 12 11 13 15 19 24 25 26 29 31 33 37 42 45 47 45 43 41 45 43 43 41 39 39 38 37 36 33 33
13 9 12 13 19 19 18 15 13 15 13 13 13 12 11 11 11 7 9 14 14 12 12 11 12 16 18 20 22 25 28 30 34 37 40 43 44 43 42 40 39 39 37 35 35 37 37 36 36 35 34 31 29 29
6 7 13 16 12 11 12 14 14 12 12 13 14 11 10 6 6 11 12 12 11 12 15 18 22 23 25 27 29 32 37 40 41 41 40 37 36 35 37 38 39 38 35 31 32 33 33 32 31 31 31 30 29 27
6 8 10 10 10 9 7 8 9 8 9 10 10 8 5 5 10 12 12 14 17 21 23 25 27 28 31 35 39 41 39 37 37 35 33 35 37 36 34 35 35 36 35 34 33 31 31 32 32 31 30 29 28 28
8 9 8 6 6 5 6 6 8 9 8 7 7 9 13 15 17 19 21 23 24 26 28 30 33 34 37 38 37 38 37 34 33 34 35 35 34 34 34 34 34 34 33 32 32 32 32 32 31 30 29 29 27 26
5 4 4 4 5 6 6 7 7 9 11 13 15 17 21 23 24 24 26 27 28 29 32 35 36 34 34 34 31 30 33 33 36 38 39 38 38 37 36 35 34 32 31 30 29 28 28 28 28 27 26 24 23 24
2 3 5 6 9 10 12 14 15 16 18 20 22 23 25 26 27 28 30 31 31 31 31 32 31 29 26 25 28 31 34 37 38 38 39 40 39 38 37 36 34 33 32 30 28 26 25 23 22 22 21 20 20 20
7 8 9 9 10 12 14 15 17 18 19 18 22 24 26 26 27 27 26 26 25 24 24 21 21 24 28 32 35 37 38 39 39 38 39 39 38 38 37 34 33 32 31 29 26 24 22 22 21 21 20 19 20 20
6 5 6 8 11 14 15 17 21 23 23 22 22 21 22 23 24 23 21 21 20 19 21 24 28 32 33 34 32 32 33 33 33 33 33 34 35 36 36 35 33 30 28 28 27 24 22 21 21 20 20 21 21 19

GFSWCAN_700_spd_009.txt.gz
Wind_Speed
39 38 40 41 39 37 33 31 29 27 24 22 20 18 17 17 15 14 13 13 12 12 8 17 19 19 20 18 18 18 17 18 17 16 14 14 11 13 13 13 11 12 8 9 9 8 9 7 13 16 19 26 25 28
40 37 37 39 38 37 35 32 31 29 26 23 20 19 18 17 17 16 14 12 11 11 8 14 20 20 19 18 14 15 14 13 14 12 16 12 13 14 18 14 18 15 18 13 14 11 19 21 19 26 29 29 29 32
40 34 34 34 36 36 34 33 31 29 27 25 22 20 19 18 17 17 16 14 13 11 11 13 17 17 19 21 19 17 17 17 17 17 16 14 15 15 19 21 20 15 19 21 18 21 19 17 27 29 32 33 32 28
35 33 31 30 32 34 34 33 31 29 27 26 25 23 21 18 17 17 17 17 17 15 14 13 13 15 17 18 19 18 17 17 17 17 18 19 21 19 23 23 25 23 23 27 31 25 22 26 29 33 34 34 30 32
37 31 32 30 30 30 32 33 32 30 28 27 25 24 23 21 19 18 20 20 19 19 9 16 17 16 17 19 18 18 19 19 19 20 23 23 23 24 30 31 33 27 27 29 34 33 32 31 30 29 30 31 35 35
25 36 31 31 31 28 28 28 30 30 29 28 27 26 24 24 23 22 23 23 22 21 21 20 16 15 19 22 20 20 20 22 23 24 25 25 26 25 26 32 35 27 24 23 29 29 30 31 31 32 30 33 32 21
12 10 12 28 26 32 28 26 26 27 27 28 28 27 26 25 25 25 23 24 24 24 23 24 24 25 22 20 22 22 25 26 27 29 30 27 25 25 34 39 35 31 29 28 28 30 31 31 29 30 31 22 18 23
17 15 12 9 22 27 27 27 29 25 23 23 23 24 25 25 26 25 24 23 23 24 26 25 16 20 22 24 25 25 28 27 29 32 34 32 31 32 40 44 39 35 29 27 31 32 30 32 29 30 21 22 21 24
11 12 12 11 10 14 21 27 29 24 23 26 24 22 22 24 23 23 24 25 25 26 25 29 28 23 25 25 24 24 25 29 32 35 36 35 39 36 42 36 32 31 31 31 28 28 34 29 28 23 23 20 23 26
6 5 6 6 7 7 9 16 22 27 30 29 25 23 25 23 22 22 22 25 28 31 33 35 31 28 26 24 22 21 24 26 25 31 30 36 45 43 39 36 35 36 36 33 26 31 29 27 21 20 19 22 26 30
9 8 6 6 5 4 4 8 13 23 28 29 29 29 27 23 22 22 19 19 22 29 33 39 38 37 34 30 28 25 21 15 22 25 25 29 41 39 30 25 27 30 30 29 31 29 22 17 14 16 21 27 30 31
11 12 11 9 9 8 6 5 7 10 17 24 25 25 22 21 19 13 16 20 22 21 27 23 26 31 35 35 31 26 26 17 15 19 15 22 28 26 19 15 20 27 31 29 21 13 12 12 15 22 27 30 31 30
11 10 10 9 9 9 9 7 4 6 15 21 25 21 14 14 13 13 18 20 16 27 24 24 25 26 25 25 25 21 15 18 22 16 17 19 16 16 14 14 19 18 12 11 12 11 11 17 24 28 28 28 28 30
8 9 7 6 6 6 7 8 7 7 10 16 8 12 12 7 9 14 15 20 17 16 19 22 19 14 22 23 21 10 13 12 10 8 7 13 13 14 16 12 10 7 9 11 10 14 22 26 27 27 26 27 29 31
6 7 7 6 5 4 4 3 4 6 7 8 6 6 8 8 7 7 12 16 16 16 15 13 19 23 20 17 11 10 6 5 6 5 8 12 12 7 5 1 2 5 8 13 18 21 25 27 27 25 26 27 29 31
5 6 7 7 6 5 6 6 3 2 4 6 5 2 1 2 3 4 6 8 8 8 10 15 13 6 7 3 4 3 4 2 5 4 0 3 4 5 5 7 8 11 16 18 22 25 27 26 26 26 27 28 30 32
4 5 5 6 6 5 4 2 3 2 4 4 5 6 5 4 3 3 5 3 3 3 4 4 3 4 2 2 4 4 5 4 8 10 11 13 12 10 10 12 15 18 21 24 27 26 25 25 27 29 29 29 31 30
5 5 8 8 7 7 6 4 3 4 4 3 7 8 4 3 4 5 4 4 3 3 4 6 5 6 4 4 5 7 10 11 12 13 12 11 11 12 14 17 20 23 26 25 24 24 26 28 29 29 31 31 30 29
8 8 8 11 11 9 10 9 8 4 5 7 8 9 7 8 9 9 9 8 7 6 5 3 2 2 6 6 8 10 10 10 9 10 12 13 15 18 21 23 23 22 23 23 24 26 27 29 30 31 29 29 31 32
10 9 10 9 11 12 10 10 11 10 8 7 8 10 9 9 11 13 13 11 11 11 11 9 9 10 13 11 12 14 16 17 17 18 18 19 21 23 23 22 21 22 23 24 26 27 30 30 30 30 32 35 37 36
11 11 10 10 8 11 14 10 10 10 11 8 9 13 12 15 16 15 15 14 16 18 14 14 12 12 16 16 18 19 20 20 19 20 22 22 21 21 21 21 22 24 25 26 27 27 28 30 32 35 37 36 34 33
12 12 12 13 17 11 19 17 16 16 14 12 13 14 15 15 15 16 15 17 17 12 13 13 14 15 15 17 16 16 19 20 21 21 21 22 22 22 23 25 26 27 28 28 31 34 36 38 37 36 37 38 38 38
13 14 13 14 16 15 13 15 19 17 14 13 13 13 15 17 16 14 15 13 10 13 13 14 14 14 16 20 19 20 22 22 21 22 22 22 23 25 27 29 31 34 36 37 41 44 44 42 42 42 43 42 40 38
14 15 15 11 13 11 13 20 21 22 19 15 14 15 15 11 11 12 13 12 16 12 13 15 15 16 16 18 21 22 22 20 18 19 22 24 26 29 33 36 39 42 43 41 38 37 37 37 37 38 38 37 36 35
13 14 12 19 16 15 18 17 24 24 23 20 18 16 10 10 10 12 13 13 11 13 14 15 16 15 17 17 16 16 18 20 23 25 28 32 37 39 41 41 39 38 36 35 36 37 36 35 33 33 33 33 32 30
11 9 15 20 15 16 19 20 23 23 22 20 17 15 13 13 11 8 12 11 9 8 9 10 11 11 12 16 19 22 25 26 29 33 37 41 41 40 40 40 38 36 35 36 37 36 35 33 32 32 32 30 29 29
17 11 17 22 17 18 18 19 19 19 17 13 14 13 10 7 8 10 10 7 6 8 9 10 14 17 21 24 26 29 31 33 37 40 40 40 40 37 36 37 38 38 38 37 36 35 35 35 32 31 31 30 30 30
11 11 12 15 13 10 6 9 9 8 9 10 10 9 6 7 8 6 6 9 12 15 18 19 21 23 25 29 33 35 36 39 38 36 35 37 35 35 36 38 39 40 41 40 39 37 35 34 34 32 31 31 31 30
6 6 6 5 5 6 5 6 8 8 8 7 8 10 10 8 8 11 13 17 20 22 23 25 27 29 30 34 38 39 36 35 33 31 30 32 35 37 39 40 40 41 41 40 37 37 36 33 31 30 29 29 29 28
6 5 5 5 6 6 4 4 4 6 7 8 10 12 14 14 17 21 23 23 24 26 28 30 31 32 33 32 32 32 31 30 32 36 39 41 41 40 40 39 39 38 38 38 37 35 33 31 29 27 26 25 25 25
1 2 3 4 6 6 7 8 9 10 12 13 16 19 22 23 24 25 26 27 28 28 28 27 27 27 26 25 26 28 32 35 37 36 35 35 35 35 35 35 36 36 36 35 34 33 32 30 28 27 25 23 22 21
7 8 8 9 10 9 11 12 14 15 17 17 20 22 23 24 25 25 23 22 22 22 21 21 21 21 24 29 33 33 30 29 30 30 30 30 31 32 33 35 36 36 36 33 30 28 27 26 25 24 22 21 20 18
7 7 7 8 9 10 12 14 16 18 19 19 20 18 19 20 21 19 19 17 18 20 20 20 22 27 31 30 26 25 28 28 28 28 29 30 31 31 31 31 33 34 33 28 26 24 22 22 21 21 19 19 19 17

GFSWCAN_700_spd_012.txt.gz
Wind_Speed
48 39 41 41 39 37 35 33 31 29 27 25 24 23 23 22 20 18 17 15 14 15 15 22 21 22 19 19 17 18 19 19 18 17 15 15 13 16 16 16 13 14 12 15 13 10 12 15 16 19 19 23 23 22
38 39 40 40 39 37 35 33 31 28 27 25 23 22 21 19 18 16 15 14 14 15 13 18 20 19 19 17 18 17 17 16 12 11 16 12 13 14 19 18 20 18 23 18 17 12 17 21 25 25 25 25 27 26
36 37 39 40 39 36 34 32 29 27 26 24 22 21 20 19 18 17 16 14 13 12 12 15 19 19 18 17 15 15 15 16 15 16 18 15 16 17 19 20 22 22 22 23 26 29 27 24 27 26 26 28 27 28
36 35 36 37 37 35 32 30 28 27 25 23 22 20 19 19 18 17 16 15 15 13 14 14 18 20 19 18 17 17 16 15 14 15 17 19 21 18 22 23 22 21 22 25 31 31 31 29 27 24 29 32 32 30
37 34 34 34 35 34 32 31 29 27 26 24 22 21 20 19 18 16 16 16 16 16 8 16 16 18 19 18 19 19 18 18 18 19 21 21 21 24 28 30 31 27 28 29 34 29 32 34 35 36 30 31 31 32
35 31 33 33 33 33 33 31 29 27 26 25 24 23 22 20 19 17 17 17 17 18 19 16 14 18 20 19 17 19 20 21 22 22 25 26 25 26 26 32 34 26 24 24 28 28 29 30 29 29 31 32 33 32
39 34 31 30 29 30 31 32 29 29 28 26 25 24 23 22 21 20 20 18 19 20 20 20 21 22 19 17 18 21 23 24 25 28 30 30 29 31 37 41 34 33 31 31 31 32 32 31 30 31 31 33 34 29
26 33 35 34 30 28 29 27 29 29 28 27 26 26 25 24 23 23 22 21 20 21 23 19 13 19 21 21 21 22 24 24 27 30 32 32 33 34 41 39 36 34 30 30 29 29 28 30 33 36 36 37 25 18
20 19 19 26 31 26 28 24 24 23 24 24 25 24 24 24 23 23 23 22 24 24 22 25 27 25 25 23 22 21 22 25 30 33 34 34 38 38 40 37 36 35 34 32 28 30 29 30 33 36 34 17 13 14
19 19 17 14 16 25 26 26 24 25 24 22 20 21 21 20 20 20 21 23 26 28 29 30 28 25 24 23 22 23 25 24 25 30 29 35 46 42 38 35 34 32 29 29 30 30 34 38 37 29 12 11 12 19
12 12 13 13 13 12 15 21 26 28 26 25 24 24 22 19 19 18 17 15 17 20 28 34 32 31 28 26 25 26 25 21 25 27 26 31 40 38 33 33 31 28 25 25 27 27 32 33 20 9 7 13 20 27
8 7 7 7 8 8 9 12 16 22 25 27 28 26 23 20 18 13 14 15 14 15 18 17 21 25 30 30 30 27 30 22 17 23 19 25 32 27 23 22 21 22 25 25 25 30 23 8 8 7 13 21 26 29
9 8 7 7 7 7 7 7 7 11 13 16 17 15 10 12 12 11 14 10 14 23 17 16 17 18 19 18 20 16 14 16 22 15 16 20 24 17 14 16 21 21 23 21 11 11 12 6 10 18 23 28 31 28
9 9 9 7 7 8 8 8 6 7 18 20 18 12 10 8 12 14 17 19 24 21 19 21 22 13 20 16 18 9 11 10 7 6 6 13 11 14 13 14 13 7 4 7 6 5 9 15 20 25 29 29 26 26
10 10 10 9 8 8 9 9 8 8 9 11 7 5 8 10 8 7 9 12 15 16 14 11 16 22 18 15 8 10 5 5 5 3 7 7 8 6 1 2 3 4 6 9 11 14 16 21 26 27 26 25 26 27
10 9 10 10 11 10 9 9 9 9 10 9 7 5 4 4 4 5 7 8 9 9 9 11 14 10 12 7 5 5 3 4 5 7 5 2 3 4 2 2 5 5 10 13 16 19 24 28 28 26 25 25 28 28
10 10 10 10 8 8 7 7 7 6 6 5 7 8 6 6 4 4 4 2 2 4 6 5 4 7 3 4 4 4 5 5 6 6 8 9 9 7 7 10 10 12 15 18 22 27 30 27 26 26 27 28 29 31
4 4 6 8 9 9 7 6 6 4 5 6 7 8 7 6 5 5 5 6 7 9 8 8 6 8 4 4 5 6 8 11 13 12 13 14 13 12 12 12 14 18 23 27 28 26 26 26 27 29 30 31 33 33
2 3 4 5 6 7 7 6 7 7 8 7 7 8 7 6 8 8 9 9 9 8 6 4 3 3 5 4 3 5 6 6 7 9 12 13 15 16 18 21 23 24 24 25 25 25 26 27 29 31 33 35 37 38
6 8 8 7 7 9 8 7 9 10 8 9 10 12 15 13 12 12 13 13 12 12 10 5 7 8 8 10 9 10 12 13 13 13 14 15 18 20 21 22 22 23 23 23 25 26 28 30 31 33 36 38 40 42
7 9 9 9 8 8 10 8 8 7 11 12 10 11 12 12 13 15 14 14 14 13 12 12 13 15 13 13 12 12 15 16 16 17 18 20 21 22 22 22 24 25 26 28 30 31 33 35 38 41 43 45 45 44
9 10 10 9 10 11 12 12 11 13 12 10 11 12 15 16 16 16 15 16 16 14 14 14 14 12 12 14 15 17 18 19 20 21 21 21 21 21 21 23 25 27 30 33 37 40 42 44 44 44 43 40 41 42
12 11 11 10 10 11 11 11 16 18 15 13 14 15 15 15 15 13 15 14 14 15 13 13 13 13 15 18 20 20 21 20 19 19 19 19 20 22 24 27 31 35 38 41 42 43 42 41 40 39 39 40 40 39
11 12 12 9 9 11 10 12 18 18 18 19 17 15 14 14 13 14 15 15 13 11 13 14 16 18 18 19 20 20 20 18 16 17 20 24 26 29 32 36 39 41 41 41 42 41 40 39 39 39 39 39 37 36
11 10 8 12 14 14 18 17 17 19 21 20 20 21 15 12 13 15 14 12 12 14 15 16 17 18 18 17 16 14 15 17 20 23 28 31 34 37 39 43 43 42 42 42 41 39 39 39 39 38 37 37 36 35
5 6 9 12 12 12 14 20 22 24 24 22 22 21 17 15 14 9 12 12 15 14 14 14 13 13 14 14 16 19 22 24 27 30 35 38 40 43 44 44 42 40 40 41 42 43 43 42 41 40 38 36 35 34
10 11 14 15 16 15 17 20 18 18 22 22 22 22 14 9 9 13 13 12 11 11 11 10 11 12 16 19 23 25 27 30 33 37 40 42 42 42 41 41 42 43 44 47 48 49 48 47 44 41 39 36 36 34
13 16 14 14 13 14 15 12 13 14 13 8 9 8 6 7 9 10 8 9 9 9 11 14 18 21 23 25 27 29 31 33 38 40 39 38 37 37 39 42 45 47 48 47 47 46 45 44 42 39 36 33 33 31
6 6 3 3 5 4 1 2 4 5 5 6 8 11 12 11 10 8 9 11 14 18 21 22 22 24 26 29 31 33 34 33 31 29 30 33 35 38 40 40 39 38 38 37 37 39 40 39 37 34 33 31 30 29
1 1 3 4 4 5 5 5 4 5 6 7 8 9 10 11 13 15 17 20 22 23 24 26 27 29 29 30 30 30 29 29 31 35 36 35 33 32 32 31 32 32 33 34 35 35 34 32 31 30 28 28 27 28
4 5 5 6 7 6 7 7 8 9 11 12 14 16 17 19 21 22 22 22 24 25 24 23 23 23 23 24 24 27 31 34 34 31 30 30 29 29 29 30 31 32 33 34 36 38 35 28 27 25 24 24 23 22
8 9 10 10 9 9 10 10 11 12 12 14 17 18 19 20 20 21 18 18 20 21 20 19 20 22 23 24 28 32 30 29 29 29 30 29 27 28 30 32 32 32 33 33 36 37 31 25 24 21 22 22 20 19
10 9 8 9 9 10 12 13 14 16 18 20 21 21 21 19 18 17 17 18 18 19 20 20 21 23 26 28 27 27 30 31 31 30 30 28 28 30 32 32 31 32 32 32 33 32 27 23 21 18 19 19 17 15

GFSWCAN_700_spd_015.txt.gz
Wind_Speed
48 48 47 45 42 41 37 36 34 30 30 30 29 32 38 34 33 21 17 16 16 20 20 22 23 22 18 18 18 18 18 19 20 19 18 17 12 15 16 19 18 15 11 15 18 14 15 20 20 20 17 17 24 23
47 47 45 42 41 41 35 35 32 30 28 31 30 30 31 33 29 22 18 17 17 18 17 20 20 19 17 16 17 16 15 13 12 13 18 16 14 14 17 19 21 21 23 19 19 17 19 18 18 21 24 27 27 26
47 47 44 41 40 41 35 34 32 30 29 27 28 28 28 26 24 22 20 18 17 16 15 18 21 19 18 19 19 18 17 18 19 16 15 16 17 17 19 19 21 23 21 26 28 29 28 28 29 32 33 33 27 26
44 45 42 41 40 40 34 32 31 30 29 28 27 26 25 24 23 22 20 18 17 16 15 17 19 20 20 19 19 17 15 15 16 17 18 20 21 18 21 22 21 22 22 26 30 28 30 31 31 32 32 30 28 32
45 42 41 38 38 39 33 31 30 29 28 27 26 25 24 22 21 20 19 17 16 17 11 16 17 20 21 21 20 18 18 18 18 19 20 21 21 23 27 28 30 28 27 29 33 26 28 29 29 30 32 34 35 31
41 40 39 36 33 35 32 30 30 29 28 26 24 23 22 21 20 19 19 18 17 17 16 13 16 19 19 20 20 20 20 20 21 22 23 25 24 26 26 30 32 27 27 27 31 28 31 32 32 31 31 28 29 30
36 36 36 35 33 32 31 30 29 28 27 26 24 22 21 20 20 19 18 16 16 16 17 17 17 18 17 19 20 20 20 21 23 25 28 28 29 31 37 40 31 29 31 32 31 30 31 29 29 28 28 29 30 30
34 34 34 34 33 32 31 30 29 27 26 25 24 23 21 21 20 19 18 17 16 17 19 14 11 16 19 20 21 20 21 22 27 29 30 30 33 34 41 36 33 32 31 29 29 29 31 29 31 31 32 32 33 37
35 31 31 30 30 32 31 30 29 28 27 25 23 23 22 22 21 20 20 20 20 20 19 20 23 22 19 19 19 19 21 25 28 32 30 31 37 39 39 38 37 36 35 34 33 35 34 32 32 33 35 37 37 27
33 34 35 28 27 26 25 26 25 27 26 24 24 23 22 22 21 21 21 21 24 25 25 25 23 21 20 19 18 20 23 23 22 28 28 34 42 39 36 37 36 34 32 30 31 32 31 32 33 32 37 39 22 5
22 22 28 35 29 24 22 25 23 23 21 21 22 21 19 18 19 18 17 13 14 15 20 28 27 25 24 23 21 20 17 15 22 23 25 30 34 34 34 33 33 30 26 25 26 28 29 28 33 32 27 13 1 10
19 18 18 17 17 22 25 23 23 23 23 22 21 19 18 17 13 11 11 11 11 12 12 13 18 23 28 27 24 20 20 13 12 16 16 22 28 28 26 25 27 30 27 24 24 22 25 31 30 24 5 10 15 20
13 14 13 13 14 14 14 17 19 22 23 23 22 20 13 14 15 12 12 9 10 15 17 15 12 14 14 15 12 12 11 15 20 13 13 20 24 22 23 19 19 20 21 18 21 25 24 18 3 11 16 20 22 25
10 10 11 11 11 11 11 11 11 16 15 17 17 12 12 7 10 13 16 18 18 18 15 15 15 9 13 10 12 6 10 10 7 6 7 13 11 8 6 10 8 8 5 3 5 8 10 13 14 16 20 24 27 25
10 9 9 10 10 11 11 10 10 11 17 16 9 7 10 11 10 9 13 14 15 17 16 13 14 20 14 11 8 10 6 6 7 6 6 4 6 7 3 6 5 7 10 12 12 13 14 16 19 24 29 30 28 27
11 10 10 10 10 10 10 11 13 13 15 11 7 6 6 7 8 7 7 7 8 9 10 11 12 7 12 8 6 6 4 6 6 8 10 9 6 6 6 4 9 8 12 17 16 17 20 23 26 30 28 26 27 29
11 11 10 10 9 9 9 9 9 11 9 7 9 11 9 8 7 8 8 7 7 8 9 8 7 8 4 4 4 5 5 5 6 7 9 8 4 5 8 11 11 10 10 11 16 20 25 28 27 27 27 27 30 31
9 8 7 8 9 9 9 9 8 5 6 7 8 9 9 8 8 8 7 6 6 6 7 8 7 8 5 5 7 8 8 8 10 10 9 10 12 13 12 13 14 16 19 23 25 25 26 28 29 30 31 33 34 35
4 4 3 3 4 5 5 6 6 6 7 7 7 9 10 8 8 8 7 7 7 8 8 7 6 7 9 9 7 6 6 6 7 8 10 10 11 13 15 18 21 23 24 25 26 27 27 28 30 32 34 37 40 42
2 3 4 4 6 7 7 6 8 7 8 11 12 14 14 13 11 12 13 12 12 11 11 9 9 8 8 9 10 11 12 12 11 12 12 14 17 19 20 22 22 22 23 24 25 27 30 32 34 37 40 43 45 47
7 8 8 9 9 9 10 10 11 11 15 14 14 15 16 16 17 15 14 13 14 14 13 11 10 11 13 14 13 12 12 13 14 13 15 17 18 18 19 21 22 23 25 27 29 31 34 39 42 44 44 44 44 44
8 9 10 11 10 12 12 12 11 13 12 11 13 16 15 14 15 15 16 17 17 15 14 13 13 14 15 15 15 15 14 14 15 16 16 17 18 20 21 22 23 25 28 32 36 40 42 44 44 45 45 44 43 43
7 9 9 10 9 6 9 11 13 14 13 13 14 16 16 15 18 18 19 19 17 15 15 15 15 15 15 16 16 16 16 16 16 17 18 19 20 21 24 27 30 33 37 40 43 45 45 46 45 45 45 44 44 44
8 7 8 6 4 7 10 11 12 12 13 13 16 17 16 16 14 15 16 18 16 14 14 14 14 15 16 16 17 16 16 16 16 16 17 20 24 27 30 33 37 41 44 47 47 46 45 45 45 45 45 46 47 47
6 6 4 7 9 9 12 14 14 15 16 15 17 17 19 15 12 13 16 14 13 15 16 16 16 16 17 17 17 16 16 16 18 21 24 27 30 33 37 41 45 47 47 46 45 45 45 46 48 50 50 49 48 47
2 1 3 6 9 10 11 13 13 11 12 17 19 19 20 20 17 9 13 14 16 17 17 15 15 16 15 14 14 15 17 20 24 28 31 34 37 40 43 45 45 42 42 44 46 49 50 49 48 47 46 44 42 41
4 5 9 14 15 15 15 13 13 15 15 14 18 21 19 10 8 11 12 12 13 13 12 13 13 13 13 14 17 21 24 27 30 32 36 38 41 43 42 42 43 44 46 47 46 45 45 44 43 43 44 42 40 36
8 13 15 16 15 9 11 14 14 12 9 8 11 8 5 6 5 5 6 7 9 10 10 11 12 16 20 23 25 27 30 32 34 37 38 37 36 37 40 42 42 41 39 39 39 40 40 40 40 43 43 41 36 30
9 9 6 5 5 7 5 3 3 4 5 6 7 6 7 8 7 7 7 7 9 12 15 18 22 25 26 28 29 31 33 33 33 32 32 33 34 37 36 35 34 33 33 34 35 36 38 39 41 43 40 36 32 28
5 6 6 7 8 7 7 7 7 7 7 8 8 9 9 9 10 11 13 15 17 21 24 26 27 28 29 30 29 28 27 27 28 31 33 34 33 32 32 32 31 31 33 35 33 33 35 36 38 36 30 30 27 25
8 9 11 11 12 10 10 11 11 11 12 13 13 14 15 16 18 19 21 23 25 26 27 27 26 25 25 24 24 26 27 30 32 31 30 32 33 32 31 31 30 31 33 32 32 33 33 34 35 31 27 25 22 24
12 12 13 13 12 11 12 12 12 13 15 16 17 17 18 19 21 23 22 21 21 21 21 20 20 21 22 22 24 27 31 31 29 32 35 35 33 31 29 28 29 31 30 30 31 32 31 31 30 28 24 21 21 23
15 13 11 11 11 11 12 13 15 17 19 21 22 23 22 22 21 18 16 15 17 19 20 21 21 22 24 27 29 30 29 31 33 34 32 29 26 24 25 27 27 28 29 29 29 29 28 27 25 24 23 21 21 20

GFSWCAN_700_spd_018.txt.gz
Wind_Speed
54 52 51 47 44 42 39 35 33 30 29 28 30 32 35 36 41 39 29 23 18 17 24 26 25 23 22 21 19 19 19 20 16 17 17 17 12 14 15 19 18 16 9 12 12 11 13 17 20 20 17 17 20 23
52 50 47 43 41 39 36 35 32 31 30 28 28 33 35 40 35 37 21 14 16 19 20 23 22 22 20 18 19 17 16 11 10 12 16 15 16 18 19 19 20 18 20 16 14 14 19 24 26 27 27 24 28 30
47 46 45 42 39 37 34 31 29 32 31 29 29 32 33 31 26 21 12 14 15 17 17 21 22 20 20 19 18 18 17 16 17 17 16 16 17 17 19 19 21 20 19 24 26 26 25 25 27 28 30 31 30 31
45 45 43 39 37 38 36 29 28 29 31 30 30 31 31 30 30 24 19 16 16 17 16 18 20 20 19 19 21 20 19 18 18 18 19 21 22 19 21 22 19 17 19 26 30 29 29 26 27 27 29 29 30 29
40 41 39 38 38 40 30 28 27 27 28 29 30 31 30 28 26 24 20 19 18 18 14 17 18 20 20 19 19 19 18 18 19 20 22 22 22 23 25 26 26 25 24 27 30 24 27 28 27 29 30 31 30 30
39 38 37 35 32 37 28 28 27 25 25 25 25 24 24 25 24 23 21 20 18 18 10 13 17 19 20 20 20 19 19 20 21 22 23 24 24 25 21 24 27 28 26 28 31 29 31 31 29 28 29 30 30 29
37 36 35 34 31 38 27 27 26 25 24 24 24 24 24 24 23 21 20 18 19 17 16 14 12 17 18 19 20 20 20 21 21 22 25 26 27 28 33 35 29 29 29 28 27 29 32 28 30 31 31 31 29 27
37 35 32 30 28 39 28 28 27 23 22 21 21 21 21 21 21 20 18 15 16 16 15 10 9 12 16 18 19 20 21 22 25 26 28 28 31 31 37 35 32 30 31 31 32 33 34 34 34 35 33 31 28 30
37 34 29 27 24 33 33 26 27 27 26 25 24 23 21 19 18 18 17 17 16 16 15 15 16 15 14 14 17 20 23 26 27 30 29 29 33 29 27 34 35 34 35 35 33 32 32 32 32 31 29 30 29 27
33 34 33 29 25 23 27 27 24 24 23 23 22 21 20 19 18 17 18 19 20 20 20 18 16 17 17 16 16 19 22 21 19 24 24 28 34 31 32 34 35 33 31 30 30 28 29 30 29 29 28 30 29 31
31 29 27 26 26 26 23 23 23 23 23 23 23 22 19 17 19 19 16 13 14 14 17 21 22 23 22 20 19 16 12 11 16 17 20 23 26 28 25 27 29 30 28 27 28 29 28 26 25 26 29 28 26 16
31 28 25 21 19 18 19 19 20 20 20 22 20 19 19 17 13 11 10 10 9 11 10 14 18 22 24 23 19 14 16 11 10 13 12 11 20 21 22 24 26 28 30 27 24 24 24 21 20 22 22 14 10 19
16 15 22 29 30 26 20 20 21 20 19 18 18 17 11 13 13 8 13 9 12 17 16 13 13 13 14 15 12 10 8 11 13 8 8 16 20 21 18 19 18 16 16 14 15 16 12 10 8 9 15 21 23 24
15 15 14 12 11 17 24 25 23 23 23 22 19 15 11 9 9 13 17 18 18 14 14 10 10 7 10 10 11 6 10 8 7 7 9 14 11 7 10 10 7 7 5 6 8 11 14 16 19 22 23 24 26 27
11 12 13 13 13 13 13 12 17 16 16 9 11 9 12 12 9 9 12 13 13 12 12 11 12 12 9 8 6 8 5 6 6 6 8 5 7 10 8 8 9 8 9 11 13 15 16 17 18 20 22 25 25 24
9 10 12 12 13 12 12 13 14 14 12 7 6 5 5 8 9 8 7 7 8 10 11 13 13 8 13 8 8 9 5 5 5 7 7 6 6 7 8 7 9 10 11 13 16 15 16 19 23 26 28 28 28 28
10 10 9 10 10 10 10 11 12 14 9 6 7 10 8 7 8 9 9 10 10 13 15 10 8 9 7 7 9 8 8 9 7 7 9 10 10 10 11 12 12 11 10 12 16 19 21 21 22 24 24 25 27 29
11 11 10 9 9 9 9 9 8 7 7 8 7 8 9 9 8 8 7 7 7 6 9 9 7 8 5 5 8 9 8 7 7 8 10 10 10 11 12 12 12 14 17 18 19 20 22 24 25 27 29 31 33 35
8 7 6 6 6 5 5 6 5 3 4 5 6 8 8 8 8 7 6 5 5 5 6 6 6 6 9 10 10 9 9 8 8 9 9 9 10 12 13 15 17 20 21 21 22 24 25 28 30 33 35 38 41 43
2 1 1 1 1 1 2 2 4 4 5 6 7 8 9 9 8 7 8 8 8 8 7 6 8 9 9 9 9 10 11 11 12 11 12 12 13 15 16 18 20 21 23 24 25 26 27 30 33 37 40 42 44 45
5 6 6 7 7 6 6 6 6 6 8 12 12 15 16 17 16 16 16 16 16 13 11 11 11 12 13 13 13 13 13 12 12 12 13 14 16 18 19 20 21 22 22 23 26 29 34 38 41 44 45 46 47 47
10 10 10 10 8 7 6 8 9 10 12 14 13 15 18 17 16 17 17 17 16 12 13 12 13 14 15 15 15 15 14 13 13 14 16 17 18 19 19 19 20 22 26 30 34 38 42 45 47 48 48 48 49 49
10 10 11 12 9 6 4 7 8 9 8 10 12 13 14 14 14 13 16 19 18 16 16 15 16 16 17 17 16 17 15 14 15 15 16 17 17 17 19 22 26 30 33 36 41 45 47 48 48 48 49 50 52 52
8 8 9 6 8 7 8 9 10 12 11 10 12 13 15 14 14 16 18 18 16 14 14 16 17 18 18 17 16 16 17 17 16 17 16 17 18 22 26 30 33 36 40 43 46 46 46 46 48 49 48 47 46 46
4 5 5 8 9 10 10 12 11 11 9 11 14 15 14 14 15 16 16 15 13 13 16 17 16 16 16 16 16 17 17 16 16 17 18 21 25 29 32 35 38 41 43 43 43 44 46 45 43 42 43 43 43 42
4 3 3 6 9 9 10 11 11 11 13 15 12 12 15 16 16 10 15 15 16 16 14 14 14 15 15 16 16 15 15 16 18 21 24 27 30 33 36 39 40 39 41 43 44 42 39 38 39 40 40 41 40 43
1 1 4 8 9 10 12 11 11 12 13 9 10 13 14 7 8 11 14 14 11 11 12 13 12 12 13 12 12 15 18 22 25 28 31 33 36 38 39 38 39 41 42 39 37 36 36 39 39 39 40 40 42 41
3 5 7 7 5 4 6 10 9 5 6 7 8 7 4 3 5 6 5 5 7 9 10 10 12 13 14 17 20 23 26 29 31 33 35 35 34 34 37 40 40 38 36 36 35 35 37 38 37 38 39 39 40 36
6 7 7 7 6 6 5 4 6 6 7 8 9 9 8 9 9 8 7 7 8 10 12 14 17 19 24 27 29 30 31 31 30 29 30 31 33 36 36 35 34 35 34 33 33 34 36 35 36 37 38 38 37 34
5 6 7 7 8 8 7 8 10 9 9 9 9 11 11 11 12 13 13 15 16 18 20 23 26 27 28 28 27 26 25 25 26 28 31 34 34 33 34 35 35 33 31 29 30 32 32 32 33 33 32 32 31 27
11 13 13 14 14 14 13 14 14 14 15 15 15 16 17 17 18 19 20 21 23 24 25 25 24 23 23 22 22 24 25 26 28 32 33 31 32 33 33 32 30 27 26 28 28 29 29 30 30 29 28 27 26 24
16 16 18 18 16 15 14 14 13 14 15 16 17 18 18 19 21 24 23 22 20 20 20 18 19 21 22 22 23 26 28 29 31 30 30 31 32 31 28 26 25 25 25 26 28 28 28 28 28 27 25 24 23 23
15 15 14 14 14 13 13 14 17 19 19 19 20 20 19 19 19 17 15 15 15 16 18 20 21 22 24 26 26 28 30 30 30 30 30 30 29 27 26 25 23 24 25 26 26 28 27 27 26 26 24 23 21 21

GFSWCAN_700_spd_021.txt.gz
Wind_Speed
64 57 49 50 50 44 43 41 38 36 35 35 35 36 39 43 42 37 29 22 21 20 16 20 25 29 34 27 23 22 20 20 17 15 13 12 9 11 12 14 13 13 7 8 8 7 8 6 8 10 15 24 24 19
58 44 50 48 47 44 41 36 32 31 30 31 33 34 38 41 38 35 29 22 18 13 15 24 28 23 25 24 22 20 20 13 16 16 14 9 12 12 15 15 16 15 16 12 11 12 19 24 24 21 22 23 23 26
49 50 46 42 41 39 36 33 30 30 30 30 30 33 36 38 38 39 36 22 19 15 17 24 24 22 22 21 20 20 19 19 15 14 14 14 15 15 15 14 15 16 15 21 24 23 22 23 24 23 23 24 24 26
50 47 43 40 37 35 32 30 31 30 28 27 28 32 35 39 43 39 34 21 16 15 19 24 23 23 22 21 20 19 18 17 16 16 16 18 20 16 16 16 15 16 20 24 26 24 22 20 22 24 25 26 26 27
46 43 39 38 35 32 32 30 29 29 27 27 30 33 34 31 31 20 16 14 14 16 17 21 21 21 20 19 20 20 19 18 18 19 20 20 19 20 22 20 20 20 20 21 24 23 26 25 25 27 28 29 28 29
41 38 37 36 34 32 26 22 36 28 29 28 30 32 33 30 26 24 17 16 18 20 9 19 18 20 19 19 18 18 18 19 20 19 19 21 21 21 15 16 21 21 23 25 27 27 27 25 25 27 29 29 30 32
36 35 35 35 35 35 26 20 28 26 34 29 29 30 29 27 25 25 22 20 19 19 14 12 14 17 16 16 18 19 19 20 20 21 22 22 22 22 26 26 24 25 26 24 25 27 28 28 30 31 32 31 31 31
33 29 29 24 36 33 27 25 20 23 25 23 25 24 25 25 23 22 19 17 18 17 16 12 10 12 15 17 17 18 20 21 22 23 23 24 24 24 24 20 24 26 27 28 28 30 34 34 33 33 33 32 30 27
31 28 25 21 30 31 25 25 22 23 22 22 20 20 19 19 19 19 17 16 16 17 13 12 12 11 10 12 15 17 20 23 24 25 25 25 26 22 22 26 29 31 32 31 32 30 29 29 29 29 29 28 25 23
27 27 26 20 20 34 28 24 21 20 21 19 18 16 16 16 16 15 14 15 15 16 15 13 11 12 12 14 15 17 18 17 14 19 19 22 27 26 26 29 29 30 29 27 27 25 25 28 30 30 27 26 26 24
25 24 21 18 14 16 29 26 24 22 20 16 16 17 16 16 15 15 13 11 11 10 13 16 16 17 19 19 17 14 11 9 11 14 16 13 15 23 25 25 25 26 26 25 26 28 28 24 21 22 20 19 17 14
21 19 17 15 15 12 14 23 22 21 21 18 16 15 14 11 10 10 9 9 7 10 12 14 19 22 23 21 17 13 15 8 8 11 10 6 19 23 23 22 21 24 24 21 20 19 17 13 11 9 8 9 13 22
24 24 21 20 18 17 15 14 13 13 14 15 17 17 10 12 11 9 11 11 14 17 16 15 15 16 17 18 12 9 8 9 10 6 7 13 17 18 18 15 14 11 8 7 5 2 5 7 10 16 20 20 19 19
23 24 26 24 23 19 18 17 17 18 18 18 14 13 10 7 9 15 17 17 15 13 12 12 11 8 11 10 9 6 9 7 7 8 10 12 10 13 10 6 6 7 8 9 8 9 10 11 12 13 14 16 18 18
12 12 12 10 13 20 19 19 16 16 17 16 10 8 12 11 8 7 10 13 13 12 11 12 11 11 8 7 6 8 5 6 7 7 7 7 8 8 8 9 7 5 6 7 8 11 12 13 16 18 19 19 19 20
9 9 11 10 10 9 8 9 13 11 11 6 5 5 6 8 9 9 10 10 9 10 9 11 10 5 10 7 7 8 5 5 5 4 4 5 9 10 8 7 7 8 10 11 10 11 13 15 16 18 19 20 22 24
8 8 9 9 9 10 10 13 14 10 6 3 2 5 6 7 7 8 9 10 11 13 14 9 7 8 6 6 7 7 5 6 6 4 3 7 8 9 10 12 10 7 6 10 13 15 16 17 19 20 22 23 26 29
13 11 9 9 8 8 8 7 6 4 3 2 2 3 5 6 7 8 7 7 8 10 12 12 8 8 5 3 4 6 6 6 4 3 5 8 11 9 9 8 9 11 14 16 17 18 19 20 22 24 27 30 33 36
13 12 11 11 10 9 9 7 5 3 2 2 2 3 4 5 6 5 6 6 6 7 8 8 6 6 8 9 9 8 7 7 7 7 8 8 8 9 11 12 14 16 18 18 18 20 22 24 27 30 34 38 41 43
7 6 5 5 4 4 4 4 2 2 2 1 2 3 5 6 6 7 6 5 5 6 7 7 9 8 8 9 9 8 9 10 12 12 11 10 11 13 14 16 18 19 19 20 21 22 25 28 32 36 40 44 46 48
5 5 5 4 4 3 1 1 1 2 2 4 6 8 9 9 10 10 11 10 11 10 11 12 12 11 11 11 11 11 12 13 14 14 14 14 14 15 17 19 19 20 20 21 23 27 31 35 39 43 45 47 47 48
8 7 7 6 4 2 1 2 3 4 5 6 8 9 10 11 12 13 14 15 16 14 11 12 12 13 13 14 15 16 16 15 15 15 15 16 17 18 19 19 19 20 22 25 30 34 37 41 44 45 46 47 48 46
10 10 9 6 4 3 4 3 4 6 5 6 8 9 10 10 9 9 10 10 11 11 13 14 16 16 15 15 16 16 14 13 14 16 16 17 17 18 19 19 21 24 28 33 36 39 42 43 44 46 46 43 41 41
11 7 7 7 7 6 6 6 6 7 5 6 7 8 9 8 9 9 10 10 11 12 13 13 14 16 16 16 21 17 19 20 18 17 17 17 18 18 20 23 27 31 34 36 39 40 42 43 43 41 39 38 38 38
6 7 7 8 6 8 9 10 8 7 6 8 9 8 8 8 8 10 10 11 11 11 11 10 10 11 13 16 16 16 16 16 17 17 17 17 19 22 25 29 32 35 36 37 38 40 41 40 37 35 35 36 36 36
5 4 4 4 5 4 5 6 5 8 9 8 6 9 12 12 6 6 11 13 12 10 9 9 11 12 13 14 15 15 15 16 15 16 19 22 25 28 31 32 34 35 37 39 41 40 37 35 34 32 34 34 35 36
5 4 4 6 6 6 5 6 6 5 6 5 7 10 7 3 3 7 12 12 11 9 9 10 12 14 13 10 11 12 13 16 19 23 25 27 29 31 32 33 34 37 39 39 37 36 35 34 32 32 33 33 35 34
7 7 8 9 9 7 6 8 8 6 5 5 6 5 6 5 7 10 10 9 9 9 9 9 11 11 12 14 16 18 22 25 27 28 29 29 29 31 33 36 38 37 36 36 37 36 34 31 31 31 31 32 32 31
8 8 7 7 7 7 6 5 5 5 6 8 8 8 8 9 10 10 10 10 10 11 12 13 15 17 19 22 25 27 29 28 27 26 27 29 31 34 35 35 34 34 35 35 34 31 29 29 30 30 30 30 30 28
6 7 8 9 10 10 9 10 11 11 11 11 11 12 13 13 14 14 15 15 16 18 19 21 23 24 26 25 25 25 25 25 26 27 29 30 33 34 32 31 32 32 31 29 27 27 27 29 30 30 29 29 28 27
10 12 13 13 13 13 14 14 14 14 14 14 14 15 15 16 16 17 18 20 21 22 22 22 22 21 20 20 21 23 23 25 27 29 31 32 32 31 31 31 31 30 28 27 26 25 26 26 27 27 27 26 25 24
13 13 14 14 13 13 12 12 12 13 14 15 17 17 17 17 20 21 18 18 18 18 18 17 17 18 21 21 23 25 27 28 29 30 30 31 32 31 31 30 29 28 27 25 24 25 26 26 26 26 26 25 24 23
14 14 14 13 12 11 12 14 15 17 17 16 16 15 14 13 13 13 14 14 16 16 17 18 19 21 22 23 25 26 27 30 32 32 31 29 28 27 27 27 26 25 24 23 24 25 26 26 26 26 25 24 24 23

GFSWCAN_700_spd_024.txt.gz
Wind_Speed
30 37 39 46 39 58 54 47 51 52 51 50 52 53 52 50 47 42 39 33 28 23 19 17 29 28 36 33 31 27 23 23 21 17 14 11 8 11 11 11 8 8 5 6 7 6 6 2 7 9 12 21 21 20
40 35 32 48 55 47 48 47 48 48 46 47 49 50 49 48 46 40 34 28 26 26 18 16 22 25 29 34 29 24 24 17 21 18 15 9 11 9 10 6 10 11 11 8 7 6 14 19 16 17 21 23 23 24
43 54 56 49 52 47 45 43 41 41 44 44 44 45 47 46 44 39 35 24 21 20 17 21 23 24 25 31 29 27 23 22 17 17 15 12 11 10 11 11 13 13 12 15 17 16 15 19 19 20 22 23 24 25
52 51 50 50 48 45 41 39 38 38 39 39 40 42 44 45 42 38 33 28 23 21 14 24 26 26 21 26 26 25 24 19 18 17 17 16 15 13 14 14 13 14 17 19 20 17 18 19 23 24 24 26 27 28
50 47 44 43 42 39 36 36 36 36 35 36 37 40 42 43 41 38 37 26 21 16 15 23 25 24 23 24 22 20 18 19 18 18 18 18 17 17 17 16 17 15 16 15 17 20 23 24 24 26 25 26 27 29
41 38 36 36 37 36 35 33 31 31 33 34 36 38 40 39 37 39 31 27 19 14 10 25 25 24 23 23 23 21 20 18 19 19 19 17 17 16 10 13 14 16 17 22 24 24 24 24 25 26 28 29 32 33
38 36 35 33 34 39 33 31 29 29 31 33 35 36 37 41 32 20 25 20 15 14 9 19 23 24 24 22 21 20 19 19 19 19 20 20 19 19 19 17 19 19 21 25 26 24 25 25 26 29 32 32 32 32
35 32 31 32 25 32 36 32 32 32 30 33 36 36 36 38 30 22 14 12 18 18 13 10 13 20 19 20 20 20 20 21 22 22 23 22 21 21 17 19 20 21 22 26 27 27 27 31 31 28 28 28 28 30
28 25 26 27 25 32 31 29 34 35 33 33 32 31 30 29 26 24 16 17 21 18 15 14 13 12 17 17 17 18 19 21 21 23 23 23 22 18 19 20 22 24 25 27 28 29 26 25 24 25 27 29 26 21
21 18 13 27 31 28 23 31 31 27 26 32 32 29 26 27 24 20 19 21 20 20 17 13 15 14 13 15 16 17 17 14 14 19 19 24 27 25 25 27 27 26 23 22 21 21 22 24 25 22 19 17 15 13
16 16 12 17 27 30 27 27 25 29 24 26 24 22 21 22 22 20 12 14 11 12 15 16 14 14 16 17 16 13 12 8 9 14 16 12 19 23 23 24 24 21 19 18 19 20 18 16 14 12 10 9 8 9
15 15 14 13 12 24 28 29 25 23 23 22 20 18 20 15 9 7 10 8 7 10 12 14 16 18 22 20 16 13 14 8 8 12 10 7 22 22 21 20 17 14 14 12 11 9 8 7 6 5 6 9 11 11
15 17 14 13 13 14 14 23 23 25 23 21 20 19 12 11 8 9 12 13 13 14 16 21 24 21 20 18 13 8 8 9 9 7 7 16 18 16 13 13 10 10 7 6 6 6 6 7 8 10 10 10 11 13
14 11 9 11 12 14 13 8 14 20 22 21 15 11 9 6 9 13 17 16 15 15 17 19 18 13 14 12 10 7 9 7 6 8 12 15 12 10 10 9 8 6 6 8 8 7 7 8 9 10 11 13 14 15
17 15 15 16 15 15 16 14 13 14 18 12 8 7 12 10 10 13 15 15 14 13 14 15 15 14 11 8 7 8 6 6 7 8 10 7 10 10 10 9 8 8 7 7 8 8 9 11 12 14 14 16 17 19
14 11 13 12 16 17 15 15 15 17 20 10 9 7 11 13 13 12 13 13 12 15 15 14 12 6 9 6 7 8 5 6 6 7 7 7 8 10 11 10 8 8 8 9 9 10 12 14 15 16 17 19 21 23
12 9 9 9 8 8 8 16 14 11 5 7 10 10 10 11 11 11 11 11 10 11 12 8 6 8 5 6 7 6 6 6 6 4 2 5 7 9 10 10 11 10 9 9 11 13 15 15 16 18 20 22 24 27
10 9 9 9 8 8 9 9 7 6 7 8 9 8 9 9 9 10 10 11 12 12 12 11 7 7 4 4 4 5 4 4 3 3 4 6 8 11 12 11 10 10 11 13 15 16 17 18 20 21 24 27 31 35
17 16 14 13 12 9 10 8 7 7 9 9 8 9 8 8 9 8 8 8 8 8 8 9 6 7 9 8 6 6 6 6 5 6 8 11 14 13 14 14 13 14 16 17 17 18 19 20 22 26 30 34 38 41
10 10 10 9 8 7 7 7 8 7 8 8 8 8 6 6 6 7 7 6 6 6 6 6 7 6 7 7 8 8 8 8 9 10 12 12 13 14 15 15 16 17 19 19 19 20 21 24 28 32 36 39 43 45
7 5 4 3 3 2 4 4 4 5 5 4 3 3 3 3 4 6 7 7 8 8 9 10 11 12 12 11 11 12 12 13 14 15 15 14 14 15 16 16 19 20 20 21 21 23 26 30 34 37 40 42 44 45
6 5 5 3 1 2 3 3 3 3 3 2 1 2 2 2 3 5 7 9 10 10 11 12 14 13 13 14 14 15 16 16 17 17 17 17 16 16 18 21 21 21 21 22 25 28 32 35 38 41 42 42 43 42
6 6 4 2 3 4 5 3 4 4 3 3 4 4 4 3 3 3 2 2 5 7 9 11 13 13 13 14 16 17 18 16 16 16 15 16 17 18 19 19 21 22 24 27 30 33 36 38 40 40 41 40 39 37
5 3 7 5 5 6 6 8 8 8 7 7 6 5 5 4 4 3 2 3 4 6 8 11 13 15 17 17 16 20 18 12 13 15 14 15 18 18 19 20 22 24 28 31 34 36 37 38 39 39 38 36 35 34
5 8 9 10 8 11 11 9 8 7 5 5 7 5 3 4 4 5 6 6 7 8 9 9 9 10 11 11 9 9 12 14 14 14 14 16 17 18 21 23 26 28 32 33 34 35 36 37 36 35 35 34 32 33
6 6 6 6 6 3 2 2 1 2 4 4 3 3 5 3 2 2 6 8 8 8 8 7 8 9 11 12 14 16 16 15 14 15 17 18 20 23 26 29 31 31 32 33 34 35 34 34 34 34 33 31 30 30
8 8 8 8 7 6 5 4 3 3 3 2 3 3 2 1 1 2 5 6 6 5 4 4 7 9 11 12 12 12 13 14 16 18 21 24 26 27 28 28 29 31 33 35 34 33 33 33 34 31 28 28 29 29
13 12 11 10 9 8 6 4 3 2 1 1 3 2 2 2 3 7 7 7 7 7 8 8 8 10 11 12 13 15 17 20 23 25 27 26 26 26 28 30 32 34 34 33 32 32 32 31 28 27 26 27 28 28
11 10 8 7 6 5 4 5 4 5 7 8 8 8 7 9 10 10 10 11 11 12 12 13 14 16 18 20 22 24 25 24 23 23 24 25 28 30 32 33 34 33 32 32 32 31 30 29 27 26 26 27 27 26
6 5 5 6 7 7 8 9 11 13 13 13 13 13 13 13 14 15 15 15 16 17 18 19 20 21 21 21 21 21 20 21 23 25 27 29 31 32 33 32 32 32 31 31 30 30 29 27 26 26 26 27 27 26
7 8 8 9 9 10 11 11 12 12 12 13 13 14 14 15 15 16 16 17 19 19 20 19 19 19 19 18 19 21 22 24 26 28 29 31 32 32 33 33 32 31 30 29 28 27 25 24 24 25 26 26 26 25
12 11 12 12 13 12 11 11 11 13 13 14 15 15 16 16 17 18 16 15 16 16 16 16 17 17 18 19 21 23 25 26 28 30 31 30 29 29 29 29 28 28 27 26 25 24 23 23 24 25 25 25 25 24
14 14 14 12 11 11 11 12 15 16 15 14 15 14 13 12 11 11 13 14 15 16 17 17 17 18 19 21 23 25 28 29 29 29 30 30 30 29 29 28 28 27 26 25 24 24 24 24 25 25 25 24 24 23

GFSWCAN_700_spd_027.txt.gz
Wind_Speed
40 33 30 30 33 34 30 32 43 53 37 64 69 67 67 65 62 43 42 35 25 23 27 31 24 27 26 26 28 28 23 23 19 16 15 10 11 12 8 7 7 7 7 8 9 6 7 7 4 3 7 15 20 23
34 36 32 22 25 41 34 41 49 50 71 58 61 65 64 63 56 41 38 37 29 23 24 23 31 28 28 26 23 26 22 22 20 14 16 13 11 9 12 6 11 7 10 5 8 3 10 9 16 15 21 23 23 24
27 36 38 33 39 45 47 47 67 58 54 61 62 62 60 56 50 42 35 30 31 25 20 20 24 29 27 32 36 27 29 24 21 22 17 15 10 12 11 12 10 12 12 13 13 6 8 11 19 18 17 20 23 25
38 39 40 48 54 53 44 46 50 54 55 57 57 55 56 55 44 37 32 31 26 27 25 23 22 27 29 28 33 29 28 22 20 17 19 20 16 12 14 12 10 10 11 11 15 16 12 9 9 17 24 25 26 25
43 47 44 44 47 47 51 52 48 50 52 52 53 55 54 51 41 34 31 27 24 23 24 22 24 23 23 25 30 30 26 25 21 22 20 21 20 17 15 15 14 17 12 15 10 15 19 20 25 29 28 27 27 27
45 44 42 41 39 41 42 42 43 44 46 48 49 50 49 48 42 33 28 29 24 20 17 23 28 29 24 23 26 28 26 23 23 22 23 22 19 17 14 16 18 19 20 20 20 22 23 25 29 27 27 27 29 32
41 39 40 37 35 34 37 38 39 41 42 43 45 46 46 45 41 32 17 25 25 13 11 16 24 28 25 25 25 23 22 24 25 23 23 21 19 19 19 15 18 20 22 24 24 24 24 25 26 27 29 32 30 29
36 40 41 40 36 34 35 36 38 39 40 41 42 45 46 45 36 24 21 20 22 12 12 11 14 26 28 28 26 24 22 22 22 22 22 21 21 21 20 22 23 23 27 28 28 26 25 26 27 29 26 25 26 28
29 36 40 39 35 34 37 34 36 38 39 39 41 41 43 36 30 25 20 26 23 12 8 8 16 21 25 24 24 23 23 23 20 23 24 23 24 17 22 24 25 25 28 28 28 28 28 27 23 23 24 25 22 19
19 19 30 34 34 37 35 34 35 36 37 39 40 46 41 37 26 25 15 16 17 14 12 12 13 12 21 25 23 22 22 21 15 23 24 26 28 27 27 27 28 27 27 27 27 23 21 21 21 19 15 13 13 13
13 12 16 22 37 39 37 36 29 32 34 36 40 41 37 36 28 21 8 12 11 15 17 15 14 15 17 21 22 18 12 10 10 15 17 14 22 23 25 28 28 26 21 18 16 16 15 13 10 9 10 10 10 10
14 15 16 19 34 34 38 33 31 31 30 28 27 25 29 24 9 5 10 10 9 11 12 20 19 18 18 18 15 17 13 8 8 11 11 9 22 20 23 22 21 18 13 10 9 7 6 7 9 9 9 10 12 13
13 15 19 15 19 26 35 34 29 33 31 28 29 25 19 11 9 10 15 13 11 16 19 17 20 20 18 19 15 10 9 9 10 8 9 18 18 19 17 17 15 10 9 7 6 6 7 8 10 11 12 13 14 15
11 13 13 15 17 17 21 29 30 26 26 26 21 15 9 8 10 9 16 16 17 17 17 17 20 17 17 13 10 7 9 7 7 7 10 15 14 14 14 11 10 9 7 6 7 8 10 12 13 14 15 16 16 16
5 7 9 12 13 14 16 16 18 24 26 16 9 8 10 9 8 11 13 15 16 16 16 16 17 16 13 9 8 8 6 6 8 10 14 9 10 11 11 10 9 7 8 9 10 13 14 15 15 16 16 17 18 19
3 3 4 8 7 11 12 15 16 16 13 8 6 8 13 12 12 14 15 15 14 13 14 14 11 8 10 7 8 8 6 7 8 8 8 7 8 10 11 11 11 11 11 12 14 15 15 14 16 17 18 19 21 22
15 12 11 12 11 13 15 14 15 18 9 8 9 9 11 13 13 12 11 11 12 13 14 10 8 9 6 6 7 7 7 7 6 5 5 5 7 10 12 13 12 14 15 15 15 14 15 17 18 19 20 21 23 26
8 8 10 10 10 10 10 6 11 6 15 15 12 11 8 8 7 7 7 9 9 11 12 7 5 6 4 3 3 5 5 4 5 5 5 7 9 11 12 13 15 15 14 15 15 17 18 19 20 21 22 23 26 31
17 15 12 10 10 11 12 8 8 11 12 11 8 7 7 8 8 7 8 7 7 8 8 6 3 4 4 5 5 5 6 5 4 5 6 8 11 13 16 16 15 16 16 17 19 20 20 20 22 23 25 28 33 37
13 13 12 11 10 7 7 8 11 10 13 13 11 10 9 8 7 8 7 7 6 6 5 4 4 4 4 4 5 6 8 8 9 9 9 10 14 16 17 19 20 19 19 20 21 22 23 24 24 27 30 35 39 41
8 7 7 6 5 4 6 6 8 11 11 9 9 6 4 4 4 7 8 7 7 6 5 5 6 8 9 9 9 10 11 11 11 12 14 14 14 15 17 19 19 20 20 23 25 24 24 26 29 33 36 40 42 44
5 4 4 3 2 3 5 5 7 7 8 7 6 4 4 4 4 5 7 9 10 10 11 12 13 14 14 14 13 13 13 12 12 13 15 17 20 19 19 19 18 20 24 26 26 26 28 30 34 38 41 42 43 44
5 3 1 1 2 4 5 3 4 4 4 5 3 3 3 2 2 1 3 3 5 7 8 10 11 13 14 14 13 14 16 18 19 20 21 20 19 18 18 20 22 23 24 24 26 28 32 35 38 40 41 42 43 41
4 1 2 3 5 6 7 7 7 8 8 7 5 6 4 3 3 2 1 1 3 5 7 9 10 12 14 17 17 18 19 21 22 17 13 13 15 17 18 20 21 22 24 27 30 33 37 38 39 40 42 40 38 37
4 6 7 8 7 11 12 11 9 9 9 8 6 4 2 1 1 1 1 2 4 6 8 9 9 9 9 10 9 8 6 7 11 14 14 14 15 17 19 21 23 26 29 32 35 36 37 38 40 39 37 36 36 34
7 6 8 8 6 5 3 3 2 3 4 3 2 0 2 1 1 1 3 5 5 6 7 7 7 7 8 8 9 11 13 14 13 12 14 17 19 20 22 26 30 32 32 33 34 36 38 38 36 34 34 34 32 30
11 10 11 10 9 8 7 6 5 3 2 1 1 2 2 0 2 3 5 7 7 7 7 7 8 8 9 10 12 12 12 14 15 17 19 21 24 27 30 30 30 31 33 35 36 36 34 33 32 32 31 31 30 28
13 13 11 10 9 7 6 5 3 2 1 2 4 4 3 3 5 8 10 10 10 10 10 11 11 12 12 13 14 15 16 18 21 24 26 27 27 27 27 29 31 33 34 35 34 34 33 32 32 31 30 29 27 27
11 9 7 5 4 3 2 4 4 5 7 9 11 12 12 13 13 14 13 14 14 15 15 15 16 16 17 18 19 21 22 22 22 22 23 24 27 29 30 32 33 34 34 35 35 34 32 31 31 30 28 26 26 26
5 4 3 4 5 5 7 8 10 11 13 14 14 14 14 15 16 17 17 18 17 17 17 17 18 19 19 18 18 18 18 19 20 23 26 28 30 31 33 33 33 33 32 32 31 31 30 29 28 27 25 25 26 26
5 7 8 9 9 10 11 12 13 13 12 12 13 14 15 16 17 17 18 18 18 18 18 16 15 16 16 17 18 19 20 22 24 26 27 30 32 32 31 32 33 33 32 31 30 30 29 28 27 26 25 26 26 26
11 11 12 12 13 13 13 13 13 14 14 15 16 16 17 18 18 18 15 13 12 13 13 14 16 17 18 18 19 21 23 25 28 30 31 32 32 32 32 32 32 32 32 31 30 29 28 27 26 26 26 26 26 25
12 12 12 12 12 13 13 13 14 16 16 16 16 16 15 14 12 9 10 11 13 14 15 16 17 17 18 21 22 24 28 32 33 33 33 33 33 33 33 33 32 31 30 29 29 28 27 26 26 26 25 25 25 24

GFSWCAN_700_spd_030.txt.gz
Wind_Speed
36 45 45 34 34 35 35 37 37 37 45 46 43 57 66 59 80 57 53 28 38 24 34 46 37 39 27 28 32 32 30 25 22 16 15 10 10 13 9 7 8 6 8 10 12 6 8 10 7 3 9 10 14 22
35 41 41 33 31 30 29 30 34 35 35 37 43 54 57 77 71 51 38 32 29 19 38 45 41 43 33 25 29 30 27 23 22 18 13 11 11 14 15 8 11 8 9 5 9 1 7 7 11 12 15 18 20 19
33 34 34 33 31 31 32 38 40 41 37 38 44 54 71 81 52 42 47 35 16 39 40 35 32 34 35 27 26 28 29 19 20 18 14 14 11 14 13 15 10 11 12 12 12 8 5 7 12 11 8 17 18 21
30 31 34 35 37 34 35 39 36 38 42 43 62 70 78 67 47 36 23 11 19 29 30 32 32 32 33 35 30 24 29 25 22 17 16 16 14 12 14 9 11 11 13 8 10 12 14 10 15 18 21 22 26 25
16 15 17 23 26 30 35 37 40 53 44 59 76 71 68 57 46 18 26 20 16 16 19 25 24 28 31 30 26 31 28 24 22 19 18 19 18 16 14 13 13 14 12 15 13 17 18 23 27 25 27 28 28 25
27 33 34 28 42 44 42 41 55 54 67 56 67 63 68 54 33 29 25 24 21 21 8 23 27 24 27 30 27 28 29 24 23 24 23 24 20 18 17 18 18 19 18 18 21 21 22 27 28 30 29 27 27 28
42 38 37 36 39 44 48 48 57 55 59 60 65 64 54 47 35 31 21 26 21 18 14 23 19 26 27 29 29 28 29 29 28 27 26 23 22 22 20 18 21 19 21 22 22 22 27 27 31 29 26 28 30 30
42 37 38 38 40 41 44 52 55 56 57 56 56 55 45 47 14 19 15 21 17 21 17 11 12 27 30 28 27 30 32 31 29 25 24 23 22 23 22 23 22 23 27 26 26 26 30 30 26 27 29 29 25 25
37 33 33 34 34 36 36 38 41 43 45 47 47 46 39 28 21 18 13 14 19 19 8 8 15 24 31 29 28 26 28 27 23 25 24 23 25 19 24 25 26 27 30 30 28 26 25 26 27 26 24 23 21 18
37 30 31 33 34 35 37 38 38 38 39 38 37 45 35 30 18 18 12 15 14 16 8 8 16 21 29 30 29 27 22 20 17 23 21 26 28 27 25 26 28 27 30 28 26 24 25 25 22 20 20 16 13 13
38 33 28 34 34 32 34 34 35 37 39 43 44 41 23 27 20 18 11 15 13 5 9 10 19 14 22 29 27 22 15 14 10 15 18 19 27 26 27 30 30 30 30 27 25 22 19 17 15 12 10 11 11 11
23 38 37 35 34 32 34 36 37 40 41 38 39 37 29 29 10 8 8 9 8 11 12 16 15 14 16 19 16 21 11 10 7 11 13 11 22 21 22 24 26 25 22 19 16 14 13 10 10 10 10 11 12 13
21 19 37 40 35 34 38 37 35 35 34 33 29 29 22 10 4 6 7 7 9 14 16 20 18 17 16 16 12 10 10 10 8 9 8 17 16 18 21 23 21 19 15 13 12 11 10 10 10 10 11 12 13 15
20 21 20 30 35 36 32 32 33 28 34 27 20 15 8 9 8 8 16 13 12 10 16 16 19 18 16 15 9 7 10 8 7 6 10 14 16 18 19 18 16 13 12 12 11 9 9 9 10 11 13 15 17 17
10 12 15 14 16 29 34 29 29 30 30 19 11 10 11 10 12 11 13 14 16 13 12 16 17 15 12 8 7 7 7 6 7 8 12 11 11 13 12 14 12 13 12 11 9 10 10 12 13 15 16 17 19 20
10 11 12 10 10 11 15 22 32 32 22 9 6 10 13 11 11 12 11 11 10 10 10 12 11 7 9 6 8 8 5 6 8 11 10 8 7 8 13 12 12 11 11 10 11 12 14 15 16 17 19 20 21 22
18 10 10 7 8 10 11 11 15 18 6 7 10 9 10 12 10 8 9 13 13 11 11 7 8 6 6 5 6 7 8 9 8 7 4 3 4 8 10 11 12 12 13 13 14 15 16 16 18 20 21 21 24 26
13 17 18 14 8 9 11 13 13 5 12 16 13 11 9 10 11 10 8 8 7 7 8 7 5 6 5 4 2 2 3 2 1 2 1 6 10 12 11 12 13 15 14 16 16 16 17 19 21 22 22 23 25 27
17 14 13 12 12 10 10 13 10 14 17 15 12 9 7 7 5 5 4 2 2 3 5 7 5 6 5 6 4 3 3 2 2 3 5 7 9 12 14 14 13 15 17 17 18 19 20 22 23 23 24 26 28 31
16 16 15 13 11 8 10 10 9 10 11 10 7 5 3 1 2 3 5 5 5 6 6 5 6 7 5 5 4 5 4 4 5 5 6 8 9 11 13 16 19 18 18 20 21 22 22 23 24 26 27 29 32 35
11 11 10 9 9 9 10 9 11 13 13 10 8 6 4 4 3 4 6 5 5 6 9 8 7 7 6 5 5 7 8 8 8 8 9 10 12 14 14 16 17 20 22 22 22 22 23 26 28 29 30 33 37 40
8 7 6 6 6 8 7 7 10 9 8 9 6 4 4 3 3 2 4 4 3 3 3 4 6 8 9 9 9 10 9 11 12 14 16 16 17 19 17 16 19 19 21 22 21 24 28 28 28 31 35 38 41 43
8 7 5 5 4 5 7 7 6 6 5 6 5 4 3 2 1 1 0 1 1 2 4 6 8 10 10 11 11 12 13 13 15 16 17 19 20 20 21 20 17 17 18 21 25 27 28 30 33 36 40 41 42 43
6 4 6 5 6 7 7 7 7 8 7 6 5 7 6 5 4 3 4 2 1 3 5 7 9 10 10 11 12 14 15 16 16 17 18 16 12 13 14 15 17 20 23 25 26 29 32 35 38 40 41 42 42 41
4 6 7 9 8 11 13 13 12 11 11 9 8 6 4 4 2 2 2 1 3 5 7 8 9 10 10 10 10 9 7 7 7 9 12 14 15 17 17 19 21 23 25 27 30 34 36 37 38 40 40 39 38 37
6 6 7 8 8 6 5 6 5 5 4 4 4 4 4 3 1 1 1 3 5 6 7 8 8 8 9 9 9 9 11 12 13 13 13 13 16 18 20 23 26 26 30 32 34 34 36 38 39 38 37 36 35 34
12 11 13 12 11 10 10 9 7 6 4 3 4 4 3 2 4 3 4 6 9 10 10 11 11 11 11 11 12 12 12 13 14 15 16 18 21 23 26 28 29 31 33 34 35 37 37 36 36 36 35 34 33 33
15 14 12 11 9 9 8 6 5 3 3 3 5 5 3 3 6 9 11 12 13 13 13 14 15 16 17 17 17 17 18 19 21 22 24 24 25 24 26 28 30 31 33 34 35 35 35 34 34 33 32 32 30 30
12 10 8 6 6 5 5 6 7 7 8 10 11 13 13 13 15 15 15 17 17 18 19 19 20 20 20 21 21 21 22 22 22 22 23 24 27 29 29 30 31 33 34 34 34 34 34 34 33 32 31 30 28 27
7 5 5 6 7 7 7 9 11 12 13 14 15 16 15 15 16 16 18 19 20 20 20 20 20 20 21 21 19 19 19 20 20 22 24 26 28 30 32 34 34 35 35 34 34 33 33 33 32 31 30 29 27 26
7 8 9 10 11 12 12 14 15 15 14 14 15 16 16 16 17 17 18 19 19 20 20 18 16 15 16 17 18 19 19 20 22 23 26 29 32 35 36 36 36 35 35 35 34 34 33 31 30 29 28 27 27 26
11 11 12 12 14 12 12 13 13 14 17 16 16 16 17 18 17 17 15 13 11 11 12 13 15 16 17 18 18 20 23 25 26 30 34 37 37 36 36 36 36 36 35 34 33 32 31 30 29 28 27 26 26 26
10 11 12 12 12 12 12 12 14 15 15 16 16 15 13 12 10 9 9 9 11 12 13 15 16 17 20 22 23 25 29 33 37 38 37 36 35 35 35 35 34 33 33 32 31 30 29 28 28 27 27 26 26 25

GFSWCAN_700_spd_033.txt.gz
Wind_Speed
33 38 44 41 35 34 29 29 33 31 38 43 47 49 56 53 78 65 62 48 43 7 22 35 34 53 46 39 40 36 35 33 34 29 22 13 10 18 11 14 12 11 14 16 14 9 9 13 13 12 12 16 13 12
37 41 44 37 35 33 30 32 33 30 36 37 40 51 55 49 77 67 61 48 39 17 28 29 43 44 52 42 37 35 39 34 29 26 17 17 13 21 19 13 12 12 13 11 8 4 5 7 12 12 14 13 17 23
34 41 39 37 35 30 29 30 33 37 37 39 41 52 53 57 90 64 49 32 29 32 31 35 48 43 34 39 34 34 43 29 30 27 23 16 14 15 20 23 14 16 11 11 9 5 7 10 18 20 20 19 22 17
40 39 37 34 33 31 30 32 32 33 33 39 42 44 38 66 78 71 44 42 39 21 40 40 41 43 39 32 32 29 31 29 26 23 22 19 15 13 15 12 19 19 18 16 15 16 15 16 20 20 21 24 23 20
36 34 31 28 30 30 30 32 33 32 35 34 34 38 42 70 70 46 36 29 23 16 14 26 47 40 33 28 32 32 29 32 30 24 23 19 17 15 13 16 18 19 19 18 19 20 23 26 25 24 23 23 25 26
29 28 25 25 26 31 33 32 33 36 38 31 36 40 60 64 69 42 26 24 47 24 7 21 36 34 31 25 23 22 20 23 23 24 24 22 19 18 13 22 22 20 19 19 18 19 23 23 22 24 26 27 27 26
24 23 21 22 27 31 30 32 34 38 40 45 53 65 73 49 38 49 33 17 25 17 17 21 28 32 33 31 31 30 27 29 29 27 25 24 22 20 22 23 21 22 20 20 22 24 26 27 25 25 26 27 27 27
34 32 32 33 33 33 34 34 35 39 50 48 59 63 49 41 31 23 31 22 25 17 20 21 21 29 36 37 35 35 34 34 32 29 27 26 23 24 26 27 21 21 21 22 23 26 29 28 25 25 26 26 26 27
40 37 36 37 33 36 42 41 47 48 47 51 61 55 54 25 17 17 22 20 19 19 17 15 24 24 27 31 33 33 33 32 29 30 27 23 26 24 24 21 21 23 25 25 26 27 26 26 25 25 25 26 25 20
35 34 36 40 39 43 45 47 52 56 62 60 42 45 22 24 26 21 19 18 14 14 16 14 19 20 29 28 29 28 26 20 18 26 25 27 27 28 26 23 21 24 27 27 26 26 24 24 25 27 24 19 16 13
27 29 35 42 39 41 44 44 47 53 50 44 34 26 25 19 24 12 11 10 10 9 13 11 17 17 26 31 29 24 17 17 11 17 20 18 28 26 25 25 26 28 29 28 26 24 23 25 23 19 15 13 12 12
32 31 32 33 35 36 37 40 42 45 51 41 37 23 31 14 7 4 6 3 3 7 7 6 13 15 22 28 16 22 9 11 6 14 15 14 18 20 22 24 27 28 28 26 23 21 19 16 12 10 10 10 11 12
37 38 42 33 34 32 33 34 34 35 31 33 27 25 7 6 3 5 6 8 6 9 15 12 14 16 15 17 10 10 9 10 7 9 8 10 11 15 17 20 23 24 22 21 16 12 10 10 10 10 9 10 12 13
30 33 32 47 45 37 38 33 34 33 28 18 16 9 3 5 5 4 9 12 7 6 10 20 17 12 12 14 7 7 8 9 8 8 9 12 14 16 19 22 21 20 17 10 11 11 10 10 10 10 11 12 13 14
21 26 29 34 31 33 31 25 24 27 24 14 7 3 4 5 8 9 10 12 10 6 13 15 16 14 15 8 8 6 7 6 7 8 9 11 12 14 16 16 15 14 11 13 12 10 10 9 9 10 12 13 14 16
18 18 17 26 30 29 28 26 24 24 19 9 5 7 9 9 9 10 10 12 16 15 11 14 11 7 7 6 7 6 5 5 6 7 9 10 11 12 10 9 13 12 9 9 11 10 8 9 11 12 13 15 17 19
15 15 19 16 12 16 24 27 28 23 12 11 12 12 11 14 11 11 10 10 11 13 16 10 8 7 6 5 6 6 5 4 6 6 6 6 6 6 6 10 11 10 10 10 10 10 12 13 14 14 17 20 20 21
16 16 12 11 12 13 14 16 19 7 18 19 15 13 11 12 11 11 9 8 9 10 11 7 8 7 6 6 6 5 4 5 6 5 4 3 3 7 11 12 12 11 10 10 11 13 15 15 16 18 19 21 24 25
20 20 19 17 14 8 13 10 9 15 21 19 15 11 10 11 9 9 8 6 5 8 11 11 5 9 10 11 8 8 6 3 1 3 6 9 10 10 11 11 11 11 12 14 15 16 18 19 19 20 21 23 26 28
21 20 19 17 14 16 21 19 20 16 17 14 10 8 7 8 6 6 5 4 4 3 3 8 14 11 9 7 5 3 3 3 4 4 5 7 9 10 12 14 14 15 17 20 20 21 20 20 21 23 24 26 27 29
16 16 16 17 13 19 22 14 16 16 13 9 7 4 4 2 2 3 4 5 5 5 12 10 9 7 6 6 6 5 5 5 6 5 7 9 11 13 15 17 19 19 18 19 22 23 21 22 22 24 28 28 30 33
14 14 13 12 14 18 15 13 14 13 10 9 6 5 6 5 5 5 5 2 6 10 8 5 3 3 5 6 8 9 9 9 11 12 13 14 13 15 17 19 22 23 21 21 22 23 20 21 25 27 29 31 34 38
11 11 10 13 11 9 12 12 9 7 6 7 5 4 5 5 4 3 3 6 7 4 2 0 1 2 3 5 6 8 10 11 14 16 17 19 21 21 19 19 21 22 20 18 17 19 22 25 27 29 32 36 39 41
8 7 9 7 9 9 10 10 9 9 8 7 7 9 8 8 6 6 7 6 5 4 4 5 6 5 6 6 7 7 8 11 13 14 14 14 14 15 14 14 14 15 16 18 21 24 26 29 32 35 38 39 40 40
6 8 8 10 9 13 16 16 15 15 14 11 11 8 5 4 3 4 4 4 3 4 5 6 8 8 8 8 9 8 8 7 7 7 9 11 13 15 15 15 16 18 21 24 26 28 32 34 36 36 37 38 38 37
8 7 7 9 10 8 8 9 8 9 8 7 6 6 5 3 1 1 1 2 3 5 6 7 7 8 9 9 9 10 10 10 12 13 13 14 15 16 18 20 21 24 26 28 30 31 33 34 35 36 36 36 36 35
13 14 16 15 13 11 13 11 9 7 6 4 6 4 4 1 2 0 2 4 7 8 9 10 10 11 11 12 13 13 13 14 14 15 16 17 19 21 22 24 25 26 27 29 31 32 33 34 34 34 34 34 34 34
20 16 15 13 11 11 9 9 7 5 5 4 5 4 2 2 4 8 9 11 12 12 12 13 15 16 16 17 17 18 18 18 19 20 20 20 18 19 21 23 25 28 30 31 32 33 34 34 34 34 34 33 32 31
16 14 11 10 9 9 8 8 7 6 8 9 9 9 8 11 12 13 13 13 16 17 17 18 18 18 18 18 19 19 19 19 19 19 21 24 26 25 27 28 30 32 34 35 36 36 35 35 34 34 33 32 31 30
11 9 8 9 10 10 10 10 11 12 13 14 13 12 11 12 12 13 14 15 16 17 18 18 18 19 19 16 14 15 17 18 19 21 23 24 26 29 31 34 37 37 37 36 35 35 34 34 34 33 32 31 30 29
8 10 10 11 11 12 13 13 13 13 13 13 13 13 13 14 14 15 15 15 16 17 14 12 12 12 14 16 18 19 18 20 21 24 26 29 33 37 39 38 37 37 36 36 35 34 33 32 31 30 29 28 28 27
9 10 12 13 13 13 12 12 12 13 16 15 13 13 14 13 10 10 9 8 8 9 10 12 13 14 16 17 20 22 24 25 28 32 36 37 36 36 37 36 36 35 35 34 33 33 32 31 30 29 28 27 27 26
10 11 12 13 13 14 12 13 13 13 13 13 13 11 8 7 7 8 8 9 9 10 11 13 15 18 21 22 25 28 32 34 35 36 36 35 34 34 34 33 33 32 32 31 30 30 29 28 28 27 26 25 25 24

GFSWCAN_700_spd_036.txt.gz
Wind_Speed
28 33 33 37 37 37 34 32 32 33 33 38 44 47 57 73 65 72 70 56 28 32 31 27 43 47 37 46 51 51 41 36 43 33 31 22 14 22 19 17 20 23 22 21 21 14 14 17 21 22 16 16 16 15
32 37 38 39 36 34 28 27 26 28 28 34 41 50 58 72 57 65 69 52 35 28 27 38 41 47 45 41 51 44 47 37 33 36 24 26 17 23 22 16 20 16 19 16 14 9 11 12 18 17 15 11 12 13
34 35 37 35 33 30 30 31 24 30 33 31 40 54 65 62 51 66 72 61 51 24 11 33 43 41 44 43 52 45 39 38 43 33 23 25 28 23 24 24 19 22 13 16 14 15 13 13 14 15 15 15 15 18
32 34 33 34 31 31 31 30 30 31 31 42 37 44 57 55 50 69 80 61 36 21 14 36 20 32 37 41 43 45 36 34 32 34 27 30 24 24 21 17 27 22 21 20 19 18 18 18 19 19 19 20 20 20
34 33 34 34 31 29 31 31 30 30 30 43 46 42 50 50 50 65 72 65 38 25 21 24 23 25 33 30 41 41 28 35 35 43 28 29 29 24 22 20 21 25 24 26 26 21 21 19 21 21 23 23 22 22
36 32 31 31 29 28 28 28 31 30 29 35 40 42 44 40 44 71 70 60 37 31 18 24 28 27 32 32 42 47 31 38 40 40 36 25 28 23 19 25 23 23 23 22 20 19 19 20 22 25 25 25 25 26
32 32 30 30 27 25 24 25 27 25 25 29 29 30 36 34 54 72 55 46 36 31 27 10 21 27 38 38 43 37 50 40 35 33 31 31 25 21 22 22 22 24 22 21 18 18 20 21 24 24 26 27 27 28
32 30 27 24 25 25 25 28 29 30 29 27 27 32 30 26 51 65 42 29 24 23 30 13 7 15 48 31 27 32 38 38 28 35 28 22 20 25 24 27 22 19 20 23 23 21 23 25 26 27 27 27 28 28
22 20 23 30 32 28 28 31 30 32 32 30 30 27 29 27 53 54 35 14 10 28 19 21 21 19 31 29 26 23 23 25 21 24 26 25 29 25 25 24 24 23 23 24 24 25 27 28 27 27 27 27 27 26
26 24 25 29 31 32 33 34 35 30 31 29 36 39 45 65 45 29 12 19 11 11 8 14 20 18 28 31 30 27 20 15 13 19 19 27 28 29 28 26 23 21 24 27 27 29 28 27 26 25 25 25 25 22
42 41 40 43 44 46 45 45 46 50 51 41 33 38 40 39 29 28 13 10 8 7 8 16 24 22 23 25 26 21 15 13 9 15 18 21 30 29 27 26 25 26 27 28 28 28 27 27 26 26 24 22 17 15
40 43 44 41 43 41 45 51 51 47 28 31 41 40 20 8 9 8 10 9 6 7 10 11 13 16 20 21 15 16 11 8 7 14 16 14 21 23 29 28 28 28 29 29 29 28 26 24 24 20 17 15 12 11
36 39 39 36 40 42 40 44 40 38 32 27 30 10 8 7 7 8 6 8 8 15 17 18 22 21 19 19 10 10 9 9 6 8 6 14 18 22 23 22 24 26 27 27 24 19 18 17 16 15 14 13 12 10
28 33 35 35 35 37 33 25 19 21 23 14 8 9 7 7 6 8 14 15 14 19 19 19 15 12 11 21 7 8 7 7 9 8 11 13 12 14 17 21 24 22 21 18 17 16 15 15 16 14 12 10 9 10
32 33 34 34 30 31 27 23 20 17 18 4 6 6 8 12 12 13 17 15 14 12 15 17 16 11 13 5 6 5 9 6 7 9 11 16 18 18 17 17 16 16 16 14 14 15 14 12 11 10 8 7 9 11
29 34 34 33 29 26 24 23 21 17 12 6 7 13 14 12 15 14 13 11 10 9 12 15 11 5 6 5 6 4 5 6 8 8 8 9 9 9 10 12 10 9 11 11 10 10 11 11 8 6 7 9 11 12
11 14 19 30 27 24 25 19 17 12 6 8 12 10 9 8 9 10 9 9 11 11 15 10 9 5 7 6 7 7 5 6 7 7 8 7 7 6 6 7 8 7 10 10 9 11 9 5 7 8 10 12 14 16
13 17 16 15 18 21 19 17 14 5 18 19 17 13 11 10 8 7 7 7 9 13 15 11 9 9 7 6 8 9 7 6 7 7 7 8 8 4 6 8 8 8 9 9 8 7 7 8 10 12 14 16 18 20
16 15 14 14 14 11 16 10 12 17 22 19 13 9 9 10 9 9 6 5 5 7 11 10 5 10 12 13 11 9 9 8 5 4 4 6 8 10 10 8 8 7 8 9 10 11 12 13 15 17 19 21 22 23
24 22 19 13 14 15 12 20 23 17 19 16 11 9 8 10 9 7 7 7 7 6 7 13 17 14 13 11 9 6 5 3 2 3 5 6 8 9 10 11 11 11 12 13 15 17 18 19 20 22 23 24 25 26
21 22 23 22 22 23 27 18 20 17 16 12 9 7 8 5 3 3 3 5 3 7 14 14 10 8 7 6 5 3 2 3 3 5 7 8 10 12 13 14 15 17 18 19 20 20 20 22 24 25 25 24 27 29
21 19 17 19 24 26 20 18 16 15 12 10 7 6 9 8 7 6 7 2 10 14 12 8 4 3 2 3 4 5 6 7 7 9 11 11 13 15 16 17 19 21 22 23 24 24 24 24 25 25 25 28 30 31
15 13 11 15 14 12 16 15 11 8 7 9 8 8 7 7 8 6 6 11 12 9 6 3 1 1 2 4 5 7 9 10 11 11 11 13 19 20 19 19 19 20 23 23 24 24 23 22 23 26 29 31 32 35
9 7 10 9 10 12 12 12 11 12 10 9 8 10 10 9 8 9 10 9 8 7 6 5 3 3 3 4 5 5 6 7 10 11 11 12 16 19 20 22 20 19 18 18 19 20 23 25 28 30 32 34 36 37
5 8 10 11 10 14 18 18 17 16 16 13 12 8 6 4 5 8 7 6 6 6 5 5 5 5 6 6 6 6 7 7 8 9 10 12 14 16 17 18 19 19 21 22 24 26 28 30 32 33 35 36 37 36
7 7 8 10 11 10 11 11 11 11 10 9 7 6 5 5 3 4 4 3 3 4 5 5 6 8 8 8 9 9 10 11 12 12 13 14 15 16 18 20 21 23 25 27 28 29 31 32 34 35 35 36 36 36
14 15 19 18 16 14 14 13 11 9 7 5 5 3 1 2 1 1 1 3 5 7 9 9 10 10 12 13 14 15 15 16 16 17 18 19 21 22 23 24 25 26 27 28 30 32 33 34 35 36 36 36 36 36
25 22 19 17 14 13 11 10 8 6 5 3 4 2 2 2 4 6 8 9 9 10 12 13 14 15 16 17 17 17 17 17 18 18 18 18 20 21 22 23 25 28 29 31 32 34 36 37 37 37 36 36 35 35
20 17 13 11 9 9 9 9 7 6 7 7 7 6 6 7 9 9 10 11 11 11 13 15 15 16 17 17 16 16 16 16 17 18 18 20 21 23 25 28 30 33 36 38 39 38 38 37 36 35 35 34 33 32
13 10 9 8 9 8 8 8 8 9 9 9 8 8 8 9 9 10 11 12 13 13 14 16 16 13 11 11 12 14 15 17 19 21 23 26 28 30 33 36 38 39 38 37 37 35 35 35 35 34 33 32 31 30
11 11 10 11 10 10 10 10 10 10 10 9 8 9 9 9 10 10 11 12 10 8 9 9 9 10 11 12 13 15 17 20 23 25 28 32 35 36 37 37 37 37 36 36 35 35 34 33 32 31 30 29 28 28
8 9 9 10 10 9 10 11 12 14 13 12 11 11 11 8 6 5 5 6 6 6 8 9 11 13 15 18 19 22 26 29 30 31 31 32 33 34 34 35 35 35 35 34 34 33 32 31 30 29 28 27 26 26
7 9 10 12 12 12 11 11 11 11 11 12 11 6 4 5 5 6 6 7 7 9 11 14 16 18 21 25 26 27 27 28 29 30 31 32 33 33 33 33 33 32 32 31 31 31 30 30 29 28 26 25 24 24

GFSWCAN_700_spd_039.txt.gz
Wind_Speed
23 22 25 31 35 34 35 36 37 39 41 44 47 46 54 68 82 51 59 58 69 53 29 36 43 38 29 29 43 43 37 46 41 33 35 26 14 26 26 26 31 31 28 25 26 19 14 19 19 24 20 24 14 14
28 30 31 31 32 32 33 34 33 34 38 40 40 41 56 65 65 60 55 63 33 60 36 26 30 41 48 41 28 43 38 32 34 33 31 30 18 25 30 27 26 27 27 24 19 21 21 13 15 22 25 17 13 10
25 28 29 32 33 33 31 30 31 33 33 36 42 49 47 57 69 60 52 58 40 49 36 36 28 33 42 49 34 36 43 31 35 38 37 24 26 23 29 32 28 29 23 23 20 23 19 16 14 14 16 16 14 12
28 30 31 30 29 28 25 21 24 28 32 38 45 43 45 47 54 57 47 56 54 37 28 20 31 28 42 47 42 34 36 30 33 35 38 31 24 27 26 26 32 32 27 25 24 22 18 18 17 16 16 15 14 16
29 30 30 28 27 27 23 19 22 24 27 32 38 43 44 45 50 55 51 39 55 36 7 18 17 32 35 39 38 37 38 35 35 36 37 29 35 32 20 28 32 29 28 27 27 22 21 16 15 17 18 20 21 23
30 30 29 28 26 26 25 25 21 23 26 30 35 41 44 40 51 49 51 45 54 40 23 5 10 19 32 31 30 36 39 39 36 33 33 36 40 36 29 34 36 28 23 21 23 19 18 18 19 19 20 23 25 25
30 29 27 27 27 25 26 27 30 29 23 37 38 38 45 50 56 48 45 55 51 37 27 6 8 10 11 25 27 34 37 40 39 39 35 29 28 29 33 27 33 27 23 21 22 22 21 20 20 21 22 23 25 26
30 28 26 26 26 25 26 25 26 32 32 31 39 43 34 27 29 33 41 43 41 39 25 8 9 6 16 22 27 34 39 41 40 35 41 40 36 36 34 30 21 20 19 23 25 25 23 22 23 24 25 26 26 27
28 27 24 24 26 27 27 25 24 26 25 25 28 26 29 25 21 30 31 33 36 30 20 16 20 18 10 24 24 39 44 40 37 33 39 36 31 25 29 33 21 25 22 22 24 26 29 30 29 28 28 28 28 28
33 30 28 27 25 25 26 26 31 30 29 30 28 26 24 16 22 37 29 40 18 31 32 22 16 22 29 24 24 34 32 27 28 28 20 26 22 18 18 22 24 24 24 26 28 31 33 34 29 29 29 27 28 27
30 35 34 30 28 28 28 29 29 29 30 32 30 29 20 22 35 40 19 7 9 9 26 31 23 18 18 6 14 12 15 13 14 15 16 11 24 31 32 26 23 24 26 29 32 33 32 32 28 25 27 27 26 25
27 34 38 34 33 34 35 30 32 38 31 24 17 31 30 26 25 14 6 8 7 6 12 16 11 15 16 12 6 6 5 7 5 11 16 13 19 20 26 28 29 30 30 32 31 30 27 25 23 25 26 24 23 22
45 44 43 42 45 50 50 49 39 32 33 28 26 24 21 14 14 8 7 9 8 11 16 21 20 17 15 8 5 6 7 7 7 11 8 8 11 16 21 27 30 30 28 27 25 26 27 26 24 22 19 18 18 18
46 49 56 50 52 43 42 40 35 22 29 37 26 13 7 7 6 10 13 10 9 15 21 23 20 9 10 12 6 5 5 5 7 7 9 8 13 16 18 19 19 20 20 22 25 25 22 19 18 17 17 16 15 14
38 34 39 33 25 30 33 25 9 19 15 6 8 8 12 21 19 17 16 13 12 13 15 15 16 10 13 5 6 4 6 3 3 3 7 13 16 15 17 19 22 21 19 19 18 16 16 16 16 15 13 13 12 9
27 25 18 18 18 25 11 12 10 10 15 12 12 18 15 14 18 18 16 14 12 18 21 15 6 4 3 5 4 3 6 3 3 4 6 6 7 9 10 11 10 10 11 10 9 10 11 11 12 13 13 10 7 6
23 24 25 23 23 20 14 9 12 10 10 11 14 11 11 10 11 13 13 14 15 17 16 7 6 4 6 4 6 6 4 3 5 5 5 4 2 2 3 5 6 7 6 6 6 9 11 11 12 11 8 7 8 12
14 24 27 22 16 11 15 10 8 12 25 20 17 12 8 8 5 5 5 9 12 15 15 11 8 8 6 5 7 7 6 5 4 4 5 6 8 6 4 3 5 7 8 9 10 10 10 11 9 9 10 12 14 16
10 11 11 11 13 15 11 11 17 24 23 20 14 11 11 14 14 12 7 6 5 8 10 9 6 12 14 14 11 9 9 10 9 9 5 4 5 4 5 6 7 8 9 10 10 11 10 10 12 14 16 18 20 21
15 11 11 12 12 9 9 21 26 20 21 20 16 14 13 14 12 10 8 7 6 3 4 13 20 17 15 13 11 9 8 7 4 3 3 5 6 6 7 8 8 8 9 10 12 13 14 15 17 19 21 23 25 26
24 25 19 13 10 13 26 20 22 19 18 20 15 15 16 10 8 8 6 8 5 18 24 19 13 11 10 8 6 4 3 2 2 3 4 6 7 9 11 12 13 13 14 14 16 18 19 21 22 24 25 26 27 29
21 17 22 23 26 29 21 20 18 16 15 15 13 13 13 12 11 13 13 6 19 21 17 12 8 5 3 2 1 2 3 4 5 5 7 8 10 12 14 15 16 18 19 20 21 21 22 24 25 27 27 28 29 29
16 12 14 18 16 13 18 16 11 10 9 12 10 11 10 10 11 9 10 16 17 14 11 8 6 5 3 3 3 4 5 6 7 7 8 9 12 14 15 15 15 16 18 20 23 24 26 26 27 27 27 28 30 32
8 8 11 10 11 14 13 15 14 17 14 13 13 15 15 14 13 14 14 12 11 10 8 6 5 4 4 4 4 5 5 6 6 7 8 10 11 14 16 18 19 20 20 20 21 22 23 24 26 28 30 32 34 36
4 8 9 11 11 15 19 19 18 17 16 13 12 10 9 7 7 10 9 9 7 6 5 4 4 4 4 5 5 6 6 7 8 9 10 12 13 15 17 18 19 21 22 23 24 26 28 30 32 33 34 35 36 37
6 6 8 10 14 12 15 15 13 13 10 9 7 6 6 4 3 4 5 5 4 2 2 5 6 6 7 8 9 10 11 12 13 14 14 16 17 18 19 21 22 24 26 28 29 30 31 32 34 35 37 38 39 40
12 15 21 20 18 16 17 15 12 9 7 5 5 3 2 0 1 4 3 2 4 6 8 8 9 10 12 13 14 15 15 16 16 17 17 18 19 20 21 22 23 25 27 28 30 32 34 36 38 40 41 41 41 41
26 24 20 17 15 13 10 9 6 5 5 4 3 2 3 2 3 4 6 8 9 10 10 11 13 14 15 15 16 15 16 16 17 17 17 18 19 21 23 25 26 28 31 33 36 39 41 42 41 40 40 39 38 37
20 17 13 11 9 8 9 9 7 6 6 6 6 6 6 7 7 9 9 9 10 11 12 13 14 16 16 16 15 13 12 13 14 15 17 19 22 25 28 31 34 36 38 39 39 39 39 39 39 38 37 36 35 34
16 13 10 10 10 12 10 9 9 8 8 8 8 7 7 7 7 9 10 11 12 13 13 12 11 9 9 10 11 13 15 17 20 22 25 27 30 32 33 33 34 35 36 37 37 37 37 36 36 35 35 34 33 32
13 10 9 10 10 10 9 9 9 8 8 8 8 8 8 8 9 9 9 9 8 7 7 6 7 8 9 11 14 17 19 22 25 26 27 28 29 30 31 32 33 34 34 35 35 35 34 34 33 32 31 31 30 29
8 8 9 9 8 8 9 11 13 11 10 10 10 11 8 5 4 4 4 4 5 6 7 8 10 13 16 17 20 22 22 23 23 24 25 27 28 28 28 29 30 32 34 35 34 33 32 31 30 29 29 28 26 25
8 9 10 10 9 9 10 11 11 12 12 12 10 4 2 4 4 4 5 5 6 9 12 13 16 18 19 19 19 21 22 23 24 25 25 25 24 24 25 27 30 32 31 30 29 28 28 27 27 27 26 25 24 22

GFSWCAN_700_spd_042.txt.gz
Wind_Speed
11 11 15 20 27 32 37 35 33 39 41 46 55 56 47 50 55 60 71 54 65 41 19 19 36 36 45 41 39 37 29 41 36 36 29 21 18 25 25 28 33 33 30 25 26 17 14 21 21 26 26 19 20 18
14 21 30 33 34 29 30 29 37 36 37 44 54 54 50 50 49 45 72 42 57 49 28 24 28 33 32 32 32 28 29 32 42 37 28 22 21 20 30 30 31 34 35 32 27 26 25 17 13 16 19 23 17 12
16 19 22 26 27 29 29 29 31 34 42 43 42 48 50 47 51 52 69 41 34 44 35 21 28 30 27 34 28 30 24 18 21 38 38 28 19 32 24 30 28 35 30 36 28 29 28 26 23 19 16 17 20 16
16 18 21 23 25 27 28 30 33 37 40 41 40 41 43 43 47 50 70 46 33 32 37 30 17 24 31 36 38 38 27 25 18 27 31 37 30 27 29 25 31 33 32 32 33 33 30 25 20 19 17 17 17 16
26 27 28 28 27 25 25 25 27 29 32 36 37 37 38 41 42 43 57 50 28 16 23 43 22 23 24 27 42 44 39 27 33 27 35 34 41 30 24 29 33 33 32 33 32 28 27 21 15 16 18 18 17 17
26 28 31 27 24 21 22 26 27 27 27 30 33 35 33 33 34 41 38 36 17 28 18 34 28 29 32 27 28 38 32 31 31 36 29 31 37 33 26 34 30 35 32 27 30 23 20 16 18 18 18 18 19 20
25 25 23 24 25 22 22 22 24 27 29 33 34 32 30 28 33 36 39 33 32 16 30 7 8 20 27 23 29 30 35 35 34 34 35 34 34 39 33 33 32 33 35 31 29 27 25 21 22 21 21 21 22 25
25 23 22 24 29 27 24 23 21 25 29 34 34 32 28 24 22 30 43 32 34 14 23 4 4 11 15 14 35 30 35 37 39 39 35 33 27 26 33 37 37 33 28 28 28 28 29 24 22 21 23 24 25 27
25 24 24 26 27 28 27 27 27 24 34 35 39 34 33 30 32 41 39 20 9 27 13 8 3 1 5 8 16 30 33 35 33 42 43 35 34 32 33 26 19 26 25 26 24 25 31 27 25 26 27 28 30 33
25 25 25 27 27 28 26 22 25 32 36 41 41 39 30 30 32 30 17 10 12 18 23 13 8 5 10 10 7 10 22 24 24 31 32 38 37 38 40 33 36 35 24 21 20 20 29 28 30 32 33 33 34 35
26 25 26 27 26 27 27 24 25 28 31 30 30 32 31 29 31 27 17 16 12 10 15 26 28 21 17 11 13 12 14 10 19 29 27 27 30 38 34 25 27 29 21 19 21 28 31 32 30 30 32 33 33 29
28 26 26 27 27 28 27 30 35 36 35 30 26 27 27 19 24 8 8 9 5 7 7 14 21 17 15 12 6 5 8 10 5 17 19 18 28 33 23 23 31 25 27 31 33 32 31 32 31 28 27 24 24 19
31 28 28 29 29 27 27 30 36 37 31 34 27 21 22 15 10 7 11 16 8 11 15 17 17 19 15 11 5 3 1 3 11 8 5 5 9 16 21 24 30 29 31 32 31 28 26 24 22 18 18 20 22 23
33 30 31 29 28 25 28 35 32 14 14 17 7 16 10 8 9 9 13 13 10 17 18 19 16 10 12 8 6 5 5 9 6 5 6 10 14 17 20 21 20 20 20 20 20 19 17 17 20 19 17 19 19 19
32 31 30 30 30 32 36 35 19 15 14 5 10 6 6 10 12 11 12 12 13 17 18 17 14 8 13 5 5 6 5 4 4 2 3 5 9 13 15 15 14 13 13 15 15 16 17 17 13 14 16 15 15 13
32 39 36 34 29 26 22 22 7 8 13 9 10 15 14 13 14 13 13 13 16 17 15 11 7 5 3 6 4 4 5 4 3 1 1 1 3 7 9 11 12 12 12 12 14 14 10 11 12 11 10 10 12 13
21 22 26 24 28 25 19 15 16 10 10 12 16 16 13 11 11 10 9 10 15 17 13 6 4 3 4 4 5 5 6 4 4 4 5 7 7 5 7 8 8 9 8 7 6 6 8 9 9 9 10 12 13 11
17 20 18 15 17 14 21 26 28 24 30 22 20 15 11 9 6 3 4 5 9 9 8 4 5 4 5 6 9 9 6 6 7 7 9 10 8 5 5 4 5 5 3 4 6 7 8 8 9 10 12 12 12 13
18 19 19 21 12 8 27 26 29 26 24 22 19 14 11 14 14 11 7 3 1 2 2 5 7 16 17 14 12 10 9 9 10 10 7 8 8 6 4 3 3 5 5 5 5 6 7 10 11 12 14 15 17 20
11 11 12 9 5 5 16 26 26 20 25 20 17 14 11 14 13 11 10 8 5 2 5 13 21 18 15 14 12 10 9 9 8 5 4 4 4 3 2 3 4 5 5 7 8 10 12 14 15 15 16 18 21 24
13 12 12 7 9 18 29 22 24 23 22 24 18 15 17 14 10 10 9 11 4 16 26 20 15 13 11 9 7 6 4 4 3 1 0 1 2 3 5 6 8 9 10 12 14 16 16 17 18 20 21 24 26 29
21 17 12 14 22 28 22 24 22 19 21 20 17 16 15 14 13 14 13 7 19 23 19 14 10 8 6 3 2 1 1 1 2 4 5 6 7 8 9 10 11 13 15 17 18 18 19 21 23 25 27 29 30 31
18 20 21 25 22 16 24 22 18 19 13 15 13 15 14 14 13 10 12 17 18 15 13 9 7 5 4 4 4 4 4 4 5 6 7 8 9 10 11 12 13 14 15 16 18 20 23 25 27 28 28 29 29 30
9 13 18 12 12 19 21 23 22 21 18 17 18 18 17 17 14 15 15 14 13 11 9 6 5 4 4 5 5 5 5 6 6 7 7 8 9 10 12 13 14 15 16 18 19 21 23 24 26 28 30 32 34 36
5 9 11 12 12 18 22 22 20 20 19 15 15 11 9 7 7 11 11 10 10 8 6 4 2 2 3 4 5 6 7 9 10 11 12 13 14 16 17 18 19 20 22 23 25 27 29 30 32 33 34 36 37 38
7 7 7 10 13 11 15 16 14 14 12 11 9 8 7 4 3 5 8 7 6 3 2 2 4 6 7 8 10 11 12 13 14 15 16 17 17 18 19 20 21 23 24 26 27 29 31 33 35 37 40 42 44 44
13 16 20 21 19 17 17 15 12 10 8 7 7 6 4 1 1 5 7 6 5 5 7 8 8 9 10 12 13 14 14 14 14 15 16 16 17 18 19 20 22 24 26 29 31 34 36 38 40 41 41 41 42 42
23 23 19 17 14 13 12 10 9 7 7 6 5 4 4 2 4 4 6 7 8 10 10 10 11 12 13 13 13 14 14 14 13 14 15 17 18 20 22 25 27 29 31 32 34 35 37 38 39 40 40 40 39 39
22 18 15 13 11 11 12 12 10 9 8 7 7 7 7 7 7 7 8 9 9 10 11 12 13 13 12 11 10 9 10 12 13 16 18 21 23 25 26 27 28 29 31 33 34 35 36 37 37 37 38 37 37 36
19 16 13 11 10 12 10 9 9 9 9 9 9 9 8 7 7 8 9 9 10 10 9 9 9 8 9 10 11 13 16 19 21 23 23 23 24 25 26 28 29 29 28 29 31 33 34 33 33 33 33 33 33 33
16 12 10 10 10 9 8 9 9 10 10 10 11 10 9 9 9 8 8 7 6 5 5 6 8 9 11 13 16 18 19 20 21 21 23 24 25 26 26 25 24 25 27 30 32 30 28 27 26 26 27 28 29 29
11 10 10 9 8 8 9 9 10 10 11 11 10 11 8 4 1 3 3 4 5 5 5 8 11 13 15 16 16 17 19 20 21 22 23 24 23 21 21 22 23 25 27 29 28 26 25 24 24 24 25 26 26 26
9 9 9 9 9 9 11 12 13 14 12 12 9 5 2 4 3 3 4 3 6 9 10 12 13 14 14 16 17 18 19 20 21 21 19 18 18 18 19 20 22 23 25 26 26 25 24 23 23 24 25 25 25 25

GFSWCAN_700_spd_045.txt.gz
Wind_Speed
18 8 12 15 20 26 30 31 31 34 34 45 46 48 46 49 57 70 58 43 50 47 23 30 34 37 33 37 42 36 31 38 32 28 19 20 17 27 29 21 25 28 25 24 29 21 15 26 23 26 25 24 21 15
22 15 15 21 24 26 27 28 31 28 37 36 42 43 43 51 53 57 60 45 44 49 26 15 43 36 35 33 36 34 33 36 41 32 35 20 17 20 25 32 30 30 33 33 28 34 30 23 23 25 28 21 18 16
16 21 25 21 21 24 28 29 26 36 34 37 33 46 47 46 51 58 49 43 51 43 56 23 17 31 31 35 34 35 35 27 26 31 30 28 18 32 29 36 33 35 31 37 32 33 33 32 30 29 28 22 17 12
16 19 20 18 19 22 21 24 25 30 33 33 43 47 45 45 43 40 41 39 37 38 46 36 12 31 23 24 31 35 34 37 25 20 30 28 26 31 27 36 29 28 32 37 38 34 31 30 29 30 28 22 19 18
16 17 20 24 26 28 30 30 30 32 38 48 47 39 38 36 38 34 37 37 42 34 27 44 21 18 24 23 25 28 29 32 32 26 28 32 33 28 33 33 37 35 32 33 34 28 28 24 26 26 22 22 21 20
28 28 28 25 23 25 28 31 34 37 41 45 44 41 40 35 30 33 33 43 56 30 10 18 43 21 19 25 29 35 34 36 29 31 27 32 28 22 36 39 34 27 30 29 27 32 24 28 26 22 24 22 23 23
25 26 24 24 26 27 27 29 33 35 36 34 32 29 30 31 28 27 20 37 40 28 17 9 32 32 12 17 21 23 31 39 36 33 35 32 28 32 32 36 31 36 33 28 24 23 27 27 30 25 25 23 25 25
24 25 25 22 22 24 25 27 29 31 31 31 29 28 27 25 24 21 27 33 27 26 16 7 16 26 22 20 19 24 24 35 34 34 36 36 37 35 34 38 36 32 32 30 23 27 31 30 28 27 24 25 27 28
26 25 28 28 24 23 24 26 29 34 35 36 35 30 29 29 30 26 18 20 20 15 9 12 20 21 17 20 18 16 28 33 32 40 40 33 35 31 29 29 27 25 28 38 40 33 38 33 33 28 24 27 29 30
28 26 27 30 30 27 25 29 33 35 37 33 31 28 27 22 31 23 21 16 11 11 20 19 5 16 12 6 18 8 18 26 26 30 31 43 42 34 33 25 18 18 18 21 24 24 23 25 28 30 30 31 35 36
27 27 28 29 36 35 37 35 36 35 36 35 32 14 24 27 30 15 11 17 10 9 18 27 18 12 7 5 5 2 3 8 12 18 28 18 29 37 41 35 29 28 29 31 31 33 29 27 26 25 25 31 33 35
27 28 30 32 31 35 45 41 36 36 25 19 34 39 36 22 10 8 7 10 11 12 12 18 20 20 12 4 4 6 6 8 3 16 19 15 20 25 29 33 35 34 34 32 24 24 21 18 24 26 27 27 29 28
22 22 26 32 32 32 37 18 27 34 36 39 34 20 20 10 10 10 8 8 6 10 12 16 14 13 11 6 4 4 4 4 9 9 5 2 5 22 24 26 29 33 27 15 19 18 22 22 24 23 21 21 23 23
20 21 22 23 28 33 30 34 31 25 32 27 16 11 7 9 13 18 14 14 9 11 15 14 10 14 12 9 6 4 6 8 2 3 5 4 6 7 9 11 12 13 16 20 20 19 20 19 16 14 13 15 19 22
17 16 16 16 16 22 34 36 25 15 12 9 11 5 5 7 10 10 11 11 7 12 19 19 13 8 9 4 5 5 3 4 5 4 5 2 1 5 6 6 6 7 8 11 11 12 11 9 10 13 16 17 19 18
19 17 16 17 19 32 36 27 16 8 20 12 8 13 14 11 13 14 14 14 13 15 16 12 9 5 5 5 3 5 4 5 4 3 2 3 4 3 3 5 5 5 5 6 7 7 8 8 9 11 11 12 11 10
28 24 25 22 23 29 20 9 4 8 10 11 13 15 17 17 17 14 13 15 14 12 11 6 4 4 6 5 6 6 7 6 4 2 3 5 6 5 4 5 6 7 5 4 3 1 2 4 6 7 8 8 7 8
26 25 24 21 18 16 13 13 25 20 29 24 24 21 18 17 14 12 12 10 8 8 6 6 7 5 7 8 13 11 8 7 6 6 5 6 6 6 6 5 6 4 3 3 0 1 3 5 6 6 6 7 10 12
18 24 17 16 18 17 29 25 27 21 24 24 22 19 19 22 20 17 13 8 5 4 4 8 9 20 21 17 14 12 10 8 9 9 6 7 8 8 7 5 2 1 3 2 2 2 3 5 6 8 11 14 16 17
20 21 14 12 23 27 19 19 22 17 24 23 21 19 20 24 21 15 12 10 8 6 13 24 26 22 19 17 15 11 10 11 10 6 4 5 6 5 3 2 2 2 2 3 5 6 7 9 11 14 16 17 18 19
24 21 14 8 24 33 24 18 24 23 23 24 20 20 22 15 16 17 18 14 9 25 32 28 22 19 16 14 11 9 7 6 3 2 2 2 1 2 3 4 5 6 8 8 11 12 13 14 15 17 18 20 22 24
23 26 24 24 21 25 20 24 19 20 23 21 19 19 18 18 19 22 20 20 28 28 25 20 16 14 11 7 5 4 3 3 3 3 4 4 5 6 6 7 7 8 8 9 11 12 13 15 17 19 22 25 27 29
22 23 25 25 18 15 24 25 18 17 11 15 14 17 16 17 16 13 17 22 23 20 17 13 11 9 7 5 6 6 5 4 4 4 4 5 6 7 8 9 10 11 11 12 14 16 18 20 22 23 25 27 29 31
16 17 14 7 10 14 16 17 19 17 16 15 16 16 15 15 13 15 16 15 14 13 11 9 7 6 4 4 4 3 4 4 5 6 7 8 8 9 10 11 12 14 15 17 18 20 22 24 26 28 30 31 33 34
9 10 13 18 15 18 21 18 18 19 17 13 14 10 7 6 6 9 9 9 9 7 6 4 2 2 3 4 5 7 9 10 10 12 13 13 15 16 16 17 18 19 20 21 22 24 25 27 29 31 33 36 38 39
8 7 11 19 20 19 21 20 17 16 13 11 8 7 6 4 2 4 7 6 6 5 3 2 3 6 8 9 10 11 13 13 14 15 15 15 15 16 17 18 19 19 21 23 25 28 30 32 33 34 36 38 39 40
15 16 21 22 22 20 20 17 13 11 10 7 7 6 3 1 0 2 5 7 6 5 6 7 9 10 11 12 12 13 14 14 14 14 14 14 15 16 18 20 22 24 26 27 28 29 31 32 34 34 35 37 38 38
26 24 22 20 18 16 15 13 11 9 8 7 5 3 1 1 2 3 6 6 7 8 9 9 9 10 11 12 12 12 12 11 11 13 15 17 19 21 23 23 23 25 27 28 29 29 29 31 33 33 32 30 29 30
26 23 19 16 14 14 14 14 11 10 8 7 7 5 4 4 3 2 4 5 6 7 8 9 9 10 9 7 7 8 10 12 15 17 19 20 20 21 22 24 25 26 25 25 26 28 30 30 28 26 25 24 24 26
23 19 15 13 13 16 13 11 11 10 10 9 9 9 7 5 4 5 5 6 7 8 8 6 4 4 6 7 9 13 15 17 18 18 19 20 22 23 23 23 22 21 21 22 24 26 27 26 25 24 24 24 25 26
19 15 13 14 15 14 12 11 10 10 10 11 11 9 9 8 6 5 5 4 3 3 4 4 5 8 11 13 15 15 16 17 18 20 21 22 22 21 19 19 19 19 19 20 22 22 22 21 21 21 22 23 23 24
16 15 14 14 13 11 9 9 9 10 10 10 11 10 6 3 2 3 3 3 3 3 5 8 10 12 12 13 14 16 17 18 20 20 20 18 17 17 17 17 17 17 18 19 20 21 22 22 22 22 22 23 23 23
14 13 12 12 11 9 9 10 10 11 10 10 7 4 2 3 4 4 4 3 5 8 9 10 10 11 13 14 15 16 17 18 17 16 15 14 14 15 15 16 16 17 18 19 20 20 21 22 22 23 23 24 24 24

GFSWCAN_700_spd_048.txt.gz
Wind_Speed
18 11 9 7 6 4 15 21 31 33 44 44 50 47 56 54 58 57 56 53 54 40 29 27 31 30 33 37 41 33 31 30 31 26 21 13 12 15 16 24 17 17 19 21 21 16 16 22 22 24 26 20 20 21
13 9 9 13 13 17 24 25 28 34 42 42 43 47 44 51 60 50 56 62 52 38 31 35 26 32 39 39 35 34 47 40 36 23 18 16 15 14 19 23 31 25 19 14 21 21 28 22 19 22 21 22 24 23
16 8 12 16 18 19 21 22 23 29 32 40 44 45 40 55 48 46 57 57 52 44 35 16 35 33 32 42 35 33 35 37 41 41 26 22 17 21 25 27 24 34 36 36 28 28 29 27 27 28 28 27 27 25
12 16 17 14 17 21 24 27 27 30 37 38 40 40 43 45 48 47 54 47 47 36 34 29 32 34 32 36 38 37 27 36 30 22 29 29 25 25 24 22 30 30 31 37 40 34 29 31 29 29 26 23 25 25
13 13 17 24 28 31 34 38 36 35 35 39 35 44 45 46 50 47 46 42 37 32 14 22 31 17 40 42 44 40 35 32 34 27 30 31 28 19 25 30 34 32 33 34 41 35 35 34 31 26 25 24 25 24
16 16 18 23 24 29 27 30 30 35 37 38 40 43 45 44 39 36 35 42 49 39 22 7 21 35 14 28 43 43 43 31 29 34 28 30 32 33 23 33 34 35 34 28 33 34 31 24 24 24 27 23 23 25
21 20 20 24 24 27 29 29 34 34 39 39 37 34 32 31 30 30 34 36 31 24 20 5 4 25 12 16 25 34 35 34 34 31 34 24 28 31 33 35 22 24 29 24 26 33 32 28 27 24 24 28 24 26
23 25 25 24 27 26 25 31 33 38 41 37 34 34 31 29 21 21 21 23 33 33 19 4 3 10 16 12 21 25 28 31 31 33 32 36 32 28 31 34 31 30 20 27 31 32 34 32 29 29 27 29 28 31
23 23 24 27 28 30 32 33 34 34 34 34 30 27 25 22 14 14 15 18 32 25 9 4 7 7 18 17 14 18 22 24 33 38 38 30 30 24 26 29 26 22 30 31 30 31 31 28 31 32 25 30 35 35
25 26 22 23 27 28 28 30 31 30 28 27 27 23 25 30 28 17 20 19 26 27 17 16 15 14 16 18 20 16 13 19 11 29 29 41 32 34 30 25 21 18 20 24 27 32 36 39 38 40 31 32 30 27
22 24 22 22 29 32 34 33 32 32 32 31 30 30 41 25 18 9 11 11 11 10 14 16 19 19 14 18 21 17 7 10 13 17 25 15 24 36 34 30 28 28 31 24 22 24 25 27 33 32 28 28 36 39
23 23 26 34 33 32 36 36 37 36 35 31 26 33 31 15 6 5 7 8 8 7 7 13 23 25 12 13 10 15 7 5 3 22 17 8 8 16 24 29 34 37 41 34 34 35 34 36 35 35 35 33 30 25
25 28 32 37 38 36 38 35 30 29 30 36 36 25 18 6 7 7 10 6 9 10 11 17 24 19 14 12 5 8 7 5 6 5 4 4 1 9 16 20 27 31 32 33 32 36 41 32 23 16 21 25 28 27
24 25 25 29 31 32 12 16 15 19 29 12 9 12 10 7 9 10 14 11 13 13 11 16 16 15 13 12 7 5 7 9 4 4 3 6 1 3 2 1 2 3 5 9 12 14 16 23 24 20 19 16 15 17
23 20 18 14 17 33 30 28 27 24 7 6 9 5 5 6 8 13 13 11 14 10 19 21 19 9 11 7 5 6 4 5 6 4 5 4 3 2 1 1 1 2 3 3 4 4 6 6 6 7 7 8 11 14
16 17 16 14 14 17 20 23 12 9 6 4 5 5 6 4 8 15 20 18 12 16 23 16 9 6 5 6 5 6 5 5 4 6 5 3 3 2 2 3 3 4 6 5 4 3 2 2 3 5 7 8 8 10
11 12 11 7 9 22 23 18 5 4 8 6 7 7 10 12 10 12 10 11 12 12 13 10 5 5 7 6 6 6 9 10 8 8 8 5 5 5 6 7 8 7 4 2 2 4 4 2 2 4 6 7 8 8
13 14 12 14 17 22 19 7 12 17 21 18 15 14 14 16 16 14 11 12 10 8 8 10 10 8 8 9 16 15 12 11 11 10 9 8 8 8 9 8 6 7 7 6 5 3 2 1 2 3 4 4 5 6
16 13 9 7 8 11 23 22 26 25 24 23 21 20 21 23 21 18 14 11 10 8 8 12 11 26 24 20 18 15 14 12 12 11 9 10 10 10 8 6 4 4 4 3 1 0 2 3 4 4 5 6 9 11
16 14 16 13 21 27 23 19 20 19 27 27 27 28 27 25 21 17 14 12 10 6 23 31 31 27 23 20 17 15 14 13 12 9 6 6 6 5 2 1 1 1 1 2 3 4 5 6 7 8 10 12 14 16
14 11 15 17 13 25 17 18 24 24 26 28 27 26 27 21 21 22 23 24 23 31 35 31 25 22 19 17 14 12 10 9 5 3 2 1 1 2 3 4 5 5 6 7 8 9 10 11 12 14 15 16 18 20
13 9 15 18 20 23 20 22 21 23 23 22 22 25 25 26 25 24 22 25 30 30 27 22 19 16 13 10 9 6 4 3 1 2 3 5 5 6 7 7 7 8 9 9 10 11 13 14 16 18 20 22 24 26
23 22 25 28 20 15 24 23 17 19 13 17 18 21 19 20 19 15 21 24 24 22 19 16 13 10 7 5 4 3 3 3 3 3 3 4 5 6 7 8 8 9 10 12 13 14 16 18 20 22 25 27 29 31
14 13 12 7 9 14 18 19 20 21 19 19 18 18 17 17 15 17 18 17 16 16 13 11 9 7 5 5 4 2 2 3 4 6 7 9 10 11 12 14 15 16 17 18 19 20 21 22 23 25 27 29 30 32
7 9 12 15 13 17 18 18 19 20 17 14 13 10 8 7 7 8 9 9 9 8 7 5 4 3 2 1 3 5 7 8 9 10 10 11 12 12 13 13 14 15 16 17 19 21 23 25 27 28 29 30 31 32
4 5 8 13 17 15 15 18 15 14 11 9 8 7 5 4 3 3 5 3 3 4 3 2 2 4 6 8 9 10 11 11 11 11 12 12 12 13 13 14 16 18 20 21 22 23 24 25 26 27 28 29 30 30
9 10 15 15 18 18 18 16 14 11 9 6 6 4 2 1 1 3 4 6 7 6 5 6 8 9 9 10 10 10 11 11 11 10 10 11 14 16 18 20 20 20 21 22 23 24 23 24 25 27 27 27 25 24
24 25 23 20 18 15 15 14 11 7 6 5 3 2 1 0 2 4 6 7 7 7 8 8 8 9 9 9 9 9 7 8 9 11 14 16 18 18 17 19 20 21 22 21 20 21 22 24 24 23 22 21 21 21
27 24 20 17 14 13 11 9 8 8 6 4 3 1 1 2 4 4 5 6 7 7 8 8 8 8 6 5 5 7 9 12 14 16 16 17 18 19 20 21 21 19 19 19 19 20 21 22 21 20 20 19 20 20
23 19 16 13 12 13 10 9 8 6 5 3 3 2 2 2 2 4 5 5 6 6 6 4 3 4 5 6 9 11 12 12 13 15 17 18 19 19 18 17 16 17 17 18 18 19 20 20 20 20 20 20 20 21
21 15 13 12 14 13 10 8 6 4 4 4 5 5 4 3 2 2 3 3 3 2 2 2 3 6 8 10 11 11 13 15 15 16 17 16 15 14 14 14 14 15 15 16 17 17 18 18 19 19 19 20 20 21
19 17 13 13 12 10 7 6 4 5 6 7 7 5 4 2 1 1 1 1 1 1 3 6 8 9 9 10 12 13 14 15 15 15 14 13 13 13 13 13 14 14 14 15 16 16 17 18 19 20 20 21 21 21
17 15 12 11 9 7 6 6 6 6 7 6 4 4 3 3 3 2 2 1 3 5 6 7 8 9 11 12 12 12 13 13 13 13 12 12 12 12 13 13 14 15 16 16 17 18 19 20 20 21 21 21 22 22

GFSWCAN_700_spd_051.txt.gz
Wind_Speed
19 17 17 16 14 16 15 20 25 22 30 37 47 56 54 57 64 61 51 49 58 40 29 29 21 31 38 45 42 35 40 28 29 24 26 21 20 23 22 23 26 17 14 19 22 23 19 17 20 22 27 18 15 15
16 10 10 8 6 8 8 9 19 19 28 40 50 49 51 54 57 57 55 41 56 33 24 42 25 26 35 37 44 34 45 42 28 25 24 24 23 21 22 20 21 27 22 19 19 19 28 25 27 27 21 18 20 19
14 6 6 3 5 9 12 12 22 22 34 43 43 48 51 48 51 56 57 43 48 50 30 22 26 28 32 42 37 40 40 26 30 25 22 20 20 22 20 24 19 23 22 30 23 17 16 16 17 17 20 22 21 24
11 13 5 5 6 10 13 22 29 29 33 37 41 44 41 45 42 62 57 43 40 36 23 24 22 32 28 42 46 41 37 33 21 27 25 21 23 18 17 19 22 23 18 24 31 30 26 24 24 22 22 25 25 23
11 13 14 11 12 15 18 28 31 31 34 37 38 40 39 39 49 53 49 40 44 24 20 18 26 24 35 38 51 48 31 36 29 27 32 28 22 21 19 23 28 24 28 29 28 20 25 30 28 28 28 26 27 21
13 15 19 22 24 24 27 30 30 33 35 37 35 33 47 52 47 42 39 29 44 42 14 8 16 26 25 39 47 51 33 27 25 26 22 19 18 21 18 27 25 24 26 26 27 23 25 24 21 26 26 28 26 23
17 20 22 22 25 28 30 32 35 35 35 31 33 38 40 37 35 35 31 36 35 34 23 9 7 16 23 37 49 47 42 33 30 28 26 21 22 25 27 32 25 15 20 24 23 31 31 32 32 26 27 33 29 27
19 20 21 23 29 29 31 34 34 31 32 36 37 41 39 31 25 26 18 17 27 24 27 13 7 9 23 40 44 51 40 41 31 25 19 21 22 27 25 23 29 34 34 28 27 28 30 26 25 25 27 28 31 34
18 19 20 23 26 25 29 35 36 38 38 35 32 29 25 21 23 18 16 17 22 25 17 9 3 9 23 29 47 43 35 37 29 35 27 16 25 19 18 20 21 24 24 23 27 28 26 29 32 31 28 33 33 31
20 20 22 26 27 26 31 32 34 35 34 34 34 32 26 20 18 17 16 16 18 26 19 11 6 10 9 13 17 22 31 25 30 19 24 26 19 30 26 24 26 26 24 21 25 27 32 36 34 35 39 38 37 35
19 21 24 27 28 32 30 29 27 27 27 27 25 23 24 25 21 11 10 10 10 8 17 21 15 10 8 11 13 15 16 14 9 10 24 14 23 28 29 31 33 31 27 26 25 27 26 29 33 32 33 36 38 41
21 22 22 24 25 26 27 26 24 21 21 22 22 36 23 9 6 4 8 8 7 9 6 11 10 16 15 12 8 19 4 11 7 18 17 11 16 21 30 37 40 39 39 39 36 37 35 34 29 30 30 29 30 31
28 25 26 29 30 29 29 28 24 24 22 26 29 10 7 3 3 4 4 4 4 5 5 11 17 23 18 8 5 8 7 5 8 6 5 2 3 6 13 18 25 32 35 38 41 41 40 38 36 36 32 36 36 35
26 26 29 30 32 29 23 18 18 25 24 22 6 4 3 3 4 5 8 5 10 17 11 12 19 18 13 7 6 6 10 10 4 5 4 4 1 2 3 5 8 10 12 14 18 20 19 18 19 20 19 19 18 16
19 16 22 19 19 16 14 14 31 7 8 9 4 3 0 2 3 6 9 11 7 10 8 17 20 19 13 5 4 5 4 6 6 5 4 5 5 4 2 3 3 3 2 3 3 3 1 1 2 3 4 4 4 4
13 13 13 17 16 17 15 17 11 2 6 6 3 3 2 2 1 4 7 9 10 8 16 23 17 11 4 4 4 6 5 5 5 8 8 8 8 7 6 6 8 10 7 5 5 5 5 6 5 4 4 4 3 3
10 9 7 4 5 10 11 3 4 2 3 4 5 5 4 4 2 3 9 15 16 10 14 7 6 4 6 5 6 7 9 11 10 10 10 10 10 11 12 10 9 8 7 8 8 9 7 6 4 3 2 1 2 3
8 5 6 13 18 15 10 7 3 5 9 8 5 6 3 5 7 3 5 8 12 13 14 8 8 8 8 9 19 18 16 14 13 11 12 12 13 14 11 9 9 9 7 6 5 3 2 1 1 3 3 3 4 5
8 7 6 5 8 12 7 10 16 15 16 14 13 11 12 13 13 12 13 15 16 17 18 13 13 28 26 25 22 19 17 16 14 12 12 13 12 9 7 6 5 4 3 2 1 1 2 3 4 4 5 6 7 8
8 8 5 7 10 21 24 20 24 19 26 25 23 20 19 18 14 12 10 12 13 21 34 36 33 28 25 22 20 18 16 16 13 10 8 7 5 3 1 1 1 2 2 3 3 4 5 6 7 8 9 10 11 13
15 12 12 20 27 29 23 20 24 21 24 25 28 28 28 25 24 26 28 30 28 34 37 32 27 24 20 17 15 13 11 11 7 5 3 2 1 1 3 4 5 6 6 7 8 8 9 10 11 12 13 15 17 18
17 15 11 18 18 24 22 23 21 25 25 26 25 27 26 25 23 23 23 28 33 31 29 24 22 19 16 13 11 9 8 7 5 3 2 2 2 3 4 5 6 7 8 9 10 11 12 13 14 16 18 20 21 23
24 23 23 24 16 14 24 22 19 21 13 17 18 20 19 19 17 16 20 24 24 22 19 16 14 12 9 7 6 4 3 1 1 1 2 3 4 5 7 8 9 10 11 12 13 14 15 17 18 19 20 22 24 26
15 15 11 7 8 12 16 17 19 18 17 17 17 18 17 17 15 16 17 17 15 13 11 9 8 6 5 3 3 2 2 3 5 6 7 8 9 10 11 12 12 13 14 15 16 17 18 20 21 23 25 26 28 29
10 8 11 16 14 17 16 16 16 18 16 13 12 9 7 7 8 9 10 10 9 8 7 6 5 3 2 1 3 5 7 8 9 10 10 11 12 12 13 13 14 15 16 18 20 21 22 23 24 26 26 26 27 27
5 5 7 13 18 15 15 18 15 14 10 8 7 6 5 4 3 3 5 4 4 4 4 4 3 3 4 5 7 7 8 8 9 9 9 9 9 10 12 14 16 16 17 18 19 20 22 22 21 21 23 23 22 21
6 9 13 13 13 16 16 16 13 9 7 5 5 4 3 2 2 1 2 4 5 5 5 5 5 7 8 8 8 8 9 8 8 8 9 11 13 15 16 16 17 18 19 19 19 18 17 18 19 19 19 19 18 18
15 18 19 18 16 15 14 11 9 5 4 3 1 1 1 2 4 5 6 7 8 7 8 9 10 10 9 9 9 7 6 7 10 12 14 15 15 16 17 18 18 18 16 15 15 15 16 17 17 18 18 18 18 19
26 23 19 16 13 12 9 6 5 5 3 2 2 2 3 5 7 8 8 8 8 9 9 9 9 9 7 5 5 7 9 12 13 13 14 16 17 17 17 15 14 14 13 13 14 14 15 16 17 17 18 18 18 18
23 20 17 13 11 10 8 6 6 4 2 1 3 4 5 6 7 8 8 8 9 9 9 8 5 4 5 6 8 10 11 11 13 14 15 16 15 14 13 13 13 13 13 14 14 15 15 16 17 17 18 18 19 20
20 15 12 10 10 10 8 6 3 1 1 3 4 6 7 7 7 7 7 7 6 6 5 4 4 5 7 8 8 9 11 12 12 13 13 12 12 11 11 12 12 13 14 15 15 16 17 18 19 19 20 20 20 21
17 14 11 11 11 8 5 3 0 2 4 5 6 5 5 5 4 5 5 5 5 4 4 6 7 7 7 8 10 11 11 11 11 11 10 10 10 10 11 12 12 13 14 16 17 18 19 20 21 21 22 22 22 23
18 15 11 10 8 5 2 0 2 4 6 5 4 4 4 5 4 4 4 4 4 5 6 6 7 8 9 9 9 9 10 10 10 9 9 10 10 11 11 12 14 15 16 17 18 19 20 21 21 22 22 23 23 23

GFSWCAN_700_spd_054.txt.gz
Wind_Speed
20 23 24 20 21 23 24 28 32 34 33 31 46 52 53 53 55 61 70 66 58 54 26 37 39 33 37 36 39 36 34 35 44 38 44 29 23 27 21 20 20 23 25 22 18 13 18 10 21 28 27 25 28 17
17 20 14 15 15 16 20 18 20 26 33 26 37 42 46 50 61 60 58 54 59 53 42 24 41 42 42 36 31 35 43 38 38 26 23 29 18 21 28 21 18 21 23 24 13 17 12 12 23 19 23 17 19 16
12 15 11 13 11 13 15 6 3 11 20 27 33 40 43 55 60 56 53 53 48 44 22 40 39 34 31 36 33 41 42 44 45 37 22 21 17 19 25 30 25 15 20 28 24 29 21 16 15 27 24 21 22 20
9 11 8 7 8 8 4 8 9 17 19 27 33 38 44 48 52 55 55 51 44 44 14 19 34 31 21 37 37 41 33 35 33 32 26 22 22 21 27 24 31 33 17 23 24 22 21 24 22 20 15 20 22 22
7 9 8 6 3 7 13 12 26 29 36 40 41 44 44 49 53 41 41 37 35 31 19 17 25 20 20 24 33 46 39 36 37 38 28 33 27 20 18 19 27 27 28 27 23 21 16 13 15 28 25 26 22 30
8 11 10 9 10 17 19 22 27 33 36 39 42 44 42 40 41 41 35 33 33 34 14 20 19 19 23 22 28 51 39 44 37 33 32 20 19 18 14 21 23 26 30 29 28 30 29 29 25 17 18 20 20 29
14 12 17 15 20 19 21 26 30 34 35 39 41 38 40 38 38 40 40 39 31 22 15 8 9 15 21 22 28 42 39 44 40 37 22 26 27 26 20 22 15 15 17 20 27 31 26 29 31 28 27 28 27 27
17 18 17 20 24 26 26 30 34 34 34 36 33 35 35 32 31 32 26 28 25 31 16 7 3 5 17 22 28 35 47 39 32 29 37 28 24 19 21 15 19 24 28 22 24 27 32 36 31 30 27 24 22 23
17 23 23 23 27 33 32 30 29 32 27 27 29 28 26 25 25 24 20 20 22 20 11 16 17 7 11 18 22 29 39 43 32 23 17 15 22 16 20 20 22 24 26 28 32 30 30 33 28 28 29 31 28 26
19 23 26 28 28 29 30 30 29 26 25 24 24 26 25 19 15 14 14 20 22 16 10 14 22 15 6 14 20 19 20 36 20 23 17 18 14 25 25 24 27 31 30 28 28 24 25 25 25 28 29 30 31 30
23 24 27 30 33 35 35 35 34 31 28 28 26 24 21 18 16 10 9 8 8 6 14 17 9 8 13 14 24 22 19 28 8 18 21 15 20 22 26 34 34 29 28 28 28 26 24 24 26 25 22 28 32 34
23 25 30 31 31 31 33 35 33 30 28 23 22 25 24 11 5 6 9 7 5 4 3 10 14 14 14 10 21 29 23 17 12 25 20 9 8 16 28 24 28 33 36 35 36 34 32 32 33 35 32 30 31 30
20 22 22 21 21 22 22 20 17 20 20 29 23 7 5 6 5 5 5 5 5 7 0 4 9 5 8 10 3 6 8 7 17 13 5 4 5 5 10 21 28 32 33 35 38 40 39 38 38 38 38 39 39 37
29 28 24 19 18 16 15 18 19 22 30 15 9 8 5 4 4 5 9 8 5 3 8 8 6 5 4 2 2 3 8 7 6 5 4 5 3 1 2 6 11 13 14 14 15 18 19 21 21 22 22 22 20 18
30 32 28 21 15 15 16 24 20 25 11 9 6 6 6 4 2 5 9 4 1 7 12 5 5 4 3 1 4 5 5 8 7 5 4 5 6 5 4 4 4 4 4 3 3 2 2 2 1 0 2 2 4 3
14 13 18 20 19 14 14 9 10 13 8 5 4 3 1 1 1 4 9 11 15 17 12 8 7 3 2 3 5 8 5 6 4 7 7 7 8 9 10 10 10 9 9 8 9 9 9 9 9 9 9 8 7 6
10 10 9 11 14 14 10 10 11 9 6 6 6 3 2 1 4 4 7 10 14 12 12 7 6 4 4 5 7 6 6 9 9 9 10 12 13 14 12 10 10 9 8 8 8 8 7 8 8 7 5 3 2 1
6 3 2 2 6 7 6 9 7 8 12 11 8 7 3 2 5 6 2 6 8 11 11 6 7 6 9 7 13 13 11 12 12 12 13 16 16 14 12 10 10 8 7 6 5 4 4 4 3 4 3 2 3 3
1 1 2 7 8 2 4 7 7 10 17 18 14 12 12 12 10 10 13 10 10 11 10 9 8 19 23 24 19 17 16 15 14 15 15 14 11 9 7 6 4 3 2 2 2 2 3 3 4 5 5 6 7 8
1 3 4 3 6 8 9 15 22 18 23 23 24 21 16 13 11 10 11 13 15 20 32 35 31 25 23 21 19 17 19 16 13 12 11 9 7 4 1 0 1 1 2 2 3 4 5 6 7 8 9 10 11 13
11 12 13 13 15 29 24 18 20 18 22 25 24 25 27 23 22 21 25 29 30 34 37 30 26 23 20 17 15 14 12 10 7 6 5 4 3 2 1 2 2 3 4 5 6 7 8 9 10 11 13 14 16 17
16 15 18 24 26 25 20 24 21 21 22 22 21 24 24 23 23 23 24 31 34 30 28 23 21 17 15 12 11 9 7 6 4 2 1 0 2 4 5 6 7 7 8 8 9 11 12 13 15 16 18 19 19 21
12 14 15 23 21 17 24 26 20 20 12 16 16 18 17 16 15 12 20 25 25 22 18 15 13 11 8 7 5 3 2 1 1 2 4 5 6 7 9 10 10 11 12 12 13 14 15 16 17 19 20 21 23 24
22 19 16 8 8 11 15 15 18 17 18 17 16 16 15 15 14 16 18 17 14 13 10 9 8 6 4 3 2 1 2 3 5 7 8 8 9 9 10 11 12 12 13 14 15 16 17 18 20 21 22 23 23 24
11 8 9 13 13 16 14 14 16 17 15 13 11 8 7 6 7 8 9 8 6 5 4 2 1 0 2 3 6 7 9 10 11 11 11 12 13 13 12 11 14 16 17 18 19 19 20 21 22 22 21 21 22 22
6 5 6 11 15 13 13 14 12 12 9 7 6 5 5 5 4 3 5 3 2 2 2 3 3 4 6 7 8 9 9 9 10 10 10 10 11 12 14 16 17 16 17 18 20 20 19 18 18 18 19 19 18 19
7 9 14 13 13 15 14 14 11 8 6 5 5 4 4 2 3 2 1 2 3 4 5 5 6 7 8 8 8 9 9 9 8 8 10 12 13 14 15 16 17 18 18 17 16 15 15 15 15 15 16 16 16 17
13 17 16 16 16 14 14 12 8 5 5 4 3 3 3 4 5 7 6 6 6 6 6 7 8 9 9 9 9 7 6 8 9 12 12 13 15 15 16 16 15 14 13 13 13 13 13 13 14 15 16 16 16 17
22 21 19 18 15 13 8 7 6 5 4 3 4 4 5 7 8 9 9 8 8 8 8 9 9 9 9 6 6 7 9 11 11 12 14 15 15 13 12 11 11 10 10 11 11 12 13 14 15 16 17 17 18 18
23 20 17 14 10 10 8 7 6 4 3 4 5 6 7 8 9 10 10 10 9 9 9 9 7 6 6 7 9 10 10 11 13 14 14 14 13 11 10 10 10 10 11 12 13 14 15 17 18 18 19 20 20 21
21 16 12 10 10 10 7 5 3 2 3 5 6 7 8 9 9 10 9 8 8 7 7 6 6 7 9 10 10 10 10 12 12 12 12 11 10 10 10 10 11 12 13 14 16 17 18 19 20 21 21 22 22 22
17 13 10 10 10 8 5 3 1 3 5 6 8 8 9 10 9 9 8 7 7 7 6 7 8 9 8 9 10 11 11 11 11 11 10 10 9 9 10 11 12 14 15 16 17 18 19 19 20 20 20 21 22 22
16 14 11 10 8 6 3 1 2 5 7 9 7 8 10 10 9 9 8 7 6 7 8 8 8 9 10 10 10 10 10 10 10 9 9 9 10 10 12 13 14 15 16 17 18 18 19 20 21 22 23 23 23 24

GFSWCAN_700_spd_057.txt.gz
Wind_Speed
19 17 20 21 25 24 24 26 29 32 33 35 38 41 44 48 47 54 52 57 61 55 30 52 42 42 32 38 39 34 34 33 34 38 36 28 30 35 20 18 19 12 7 7 14 7 8 6 16 21 29 20 21 22
14 14 17 21 18 21 22 26 29 30 30 31 38 40 43 46 48 53 54 52 47 54 21 37 43 50 31 36 37 33 33 32 37 37 38 31 34 25 38 27 26 25 24 13 10 18 13 14 24 19 16 21 12 21
13 15 19 16 16 18 21 25 22 21 25 30 35 40 41 46 47 49 51 48 43 45 41 36 37 46 34 34 32 34 37 28 35 43 32 28 26 26 22 38 31 27 21 20 14 24 21 28 21 23 25 22 21 10
14 15 15 10 10 13 16 18 20 16 16 19 28 33 36 47 46 47 50 44 42 43 35 33 39 32 29 28 32 34 38 30 27 36 37 30 32 18 42 21 29 27 24 23 23 25 21 19 23 22 28 28 28 18
11 12 11 8 9 9 11 7 5 11 16 21 24 32 37 43 42 44 39 37 42 42 28 22 17 24 28 32 31 39 33 31 28 38 36 35 43 24 25 28 32 26 35 29 34 29 30 11 17 9 13 14 35 25
9 13 13 11 11 10 15 20 19 20 23 27 28 34 40 46 41 37 42 39 44 44 26 5 10 15 18 21 19 34 30 32 40 32 26 37 28 35 16 22 27 27 27 26 25 22 23 27 22 21 25 20 17 16
10 12 14 11 16 17 24 28 32 33 34 34 35 42 44 44 48 48 43 39 32 32 22 9 8 12 12 19 18 24 26 31 31 30 21 36 22 30 28 20 16 22 26 29 31 28 27 29 30 31 28 26 27 25
16 16 16 21 18 20 27 31 32 34 41 44 50 44 54 42 38 33 29 32 31 28 17 8 9 10 12 17 19 20 19 23 32 32 30 16 34 27 18 25 23 23 25 26 24 25 30 31 30 32 33 28 28 28
20 22 26 25 27 29 29 30 31 34 37 38 36 35 39 34 29 26 26 27 24 18 7 7 6 5 11 16 15 14 14 17 27 24 25 20 21 15 20 24 29 29 30 30 27 29 33 31 31 33 35 37 29 26
21 26 29 31 31 31 29 28 30 32 34 35 33 30 30 26 22 19 18 18 17 13 10 10 12 17 9 9 15 12 10 13 15 24 24 21 16 28 30 25 27 27 26 27 30 32 31 25 24 23 22 23 23 25
25 32 35 34 31 29 30 27 25 24 26 29 28 30 25 23 21 14 9 7 6 5 8 9 9 7 11 11 13 13 6 9 9 14 19 7 7 10 24 30 29 27 27 27 24 22 23 24 26 25 23 21 20 17
26 30 33 31 30 31 27 23 19 19 22 23 28 30 27 15 8 6 9 7 5 4 4 11 12 11 12 12 14 15 9 10 6 16 14 7 7 10 18 22 24 28 29 33 30 29 28 27 28 28 28 29 28 29
24 25 23 23 24 25 24 24 23 25 31 27 18 9 6 5 5 6 6 6 7 10 6 8 11 13 12 9 8 10 9 6 6 10 5 2 6 6 9 12 17 25 31 29 26 31 32 34 36 36 35 36 35 35
20 20 18 17 16 14 16 19 20 25 18 13 10 7 4 4 5 8 11 12 11 10 6 5 11 1 3 3 4 6 8 9 7 4 3 3 2 1 2 6 6 9 11 13 15 16 17 16 15 16 17 18 17 14
20 18 18 17 15 14 17 19 23 13 8 7 5 6 6 7 7 10 11 12 8 5 6 5 7 6 1 4 5 5 4 7 7 7 5 3 4 4 4 5 6 7 8 7 9 8 8 8 6 4 6 8 9 8
21 20 16 16 14 18 16 21 23 13 6 5 6 6 5 5 2 6 11 12 9 6 3 2 6 3 1 3 5 7 5 6 7 8 5 6 7 9 12 13 13 13 13 13 14 13 12 12 11 11 10 8 7 6
15 15 16 14 13 12 14 19 10 4 4 5 8 5 3 3 5 8 13 11 9 6 7 6 4 4 3 6 8 7 8 12 8 8 10 12 12 14 14 13 13 12 12 12 11 11 10 10 11 9 7 7 6 5
7 7 8 8 8 7 11 13 10 7 11 9 8 8 5 3 6 3 8 14 13 10 7 7 8 6 8 11 14 13 12 13 13 12 15 16 14 13 11 9 8 7 5 5 5 6 6 7 6 5 5 5 5 5
5 5 4 6 6 6 9 11 11 13 22 18 13 12 13 14 12 13 12 13 13 12 14 11 9 22 27 23 16 16 14 14 16 17 15 14 12 10 9 7 5 3 3 3 4 4 4 4 5 5 5 6 6 7
4 4 2 1 1 6 13 17 22 19 23 22 22 22 20 19 16 13 14 18 16 13 32 37 32 26 22 19 14 14 14 12 10 10 9 8 7 5 2 1 1 2 3 4 5 6 6 7 8 9 10 11 12 13
6 9 12 13 15 32 24 18 21 19 21 18 23 27 28 25 25 23 26 29 27 34 37 30 24 21 17 14 12 11 10 9 6 4 3 2 3 3 4 4 5 5 6 7 8 9 10 10 11 12 13 15 17 18
18 22 22 24 29 28 20 21 19 21 26 24 24 26 28 29 28 27 27 31 35 31 27 21 18 15 12 11 9 8 7 6 5 4 4 4 5 6 6 6 7 7 8 10 11 11 12 12 13 14 15 16 18 19
17 22 23 21 17 15 23 23 18 21 13 16 16 18 16 16 16 11 22 29 27 22 18 15 13 12 9 7 6 5 4 4 4 4 5 6 7 8 10 10 10 11 11 12 12 13 14 14 15 17 19 20 21 21
20 18 14 7 8 13 15 17 19 18 18 18 17 18 18 18 15 17 22 19 16 13 11 9 8 6 5 4 4 3 3 4 5 6 7 8 9 10 10 11 11 12 12 13 14 15 16 18 18 18 19 19 18 18
12 8 8 14 14 16 16 17 18 18 17 13 13 11 9 9 11 13 12 11 9 7 6 5 4 3 2 2 3 5 6 7 8 9 9 9 9 7 8 11 13 14 15 15 15 17 17 17 16 14 14 14 14 15
5 5 7 11 17 14 14 16 15 14 11 10 8 7 6 6 5 6 7 5 4 2 1 1 1 2 3 5 8 8 8 8 9 9 9 9 11 13 14 14 13 15 16 16 16 14 13 13 13 13 13 13 14 15
8 10 16 16 15 16 15 15 12 9 8 7 8 6 5 4 4 4 3 1 1 1 2 3 3 5 6 7 7 7 7 6 5 6 9 11 12 12 14 15 15 14 12 11 11 11 11 12 12 13 14 14 15 15
16 19 17 17 16 14 15 13 9 7 7 6 6 5 4 4 4 4 3 1 1 2 4 5 6 7 7 7 7 5 5 6 8 10 10 12 13 13 13 12 11 10 9 9 10 10 11 12 14 15 16 17 17 18
21 20 19 18 17 14 9 9 9 10 9 7 8 6 6 6 6 6 6 5 5 5 6 7 7 7 5 4 5 6 8 9 9 10 11 10 10 9 9 8 8 8 9 10 11 12 14 15 16 17 18 19 19 20
23 22 19 16 12 13 11 11 10 9 8 8 8 8 8 9 9 9 8 7 6 6 6 5 4 4 4 5 7 8 8 9 10 10 10 10 9 8 8 8 8 9 10 11 13 14 15 16 17 17 17 17 17 18
22 19 14 12 13 14 12 10 8 6 6 7 8 10 10 10 10 9 8 7 6 6 5 5 5 6 7 8 6 7 10 10 10 10 10 9 8 8 8 8 9 10 12 13 14 15 16 17 17 18 19 20 21 21
18 14 11 12 14 12 9 7 7 6 7 9 9 8 9 10 9 8 8 7 6 6 5 6 7 7 8 9 10 10 9 10 10 10 9 8 8 8 9 10 11 12 13 14 15 16 17 19 20 21 21 21 21 22
19 17 13 13 11 9 7 5 5 5 6 7 7 8 9 8 8 7 6 5 5 6 6 7 7 9 10 10 10 10 11 10 9 9 9 9 9 10 11 11 12 13 14 15 16 18 20 21 22 23 23 22 22 22

GFSWCAN_700_spd_060.txt.gz
Wind_Speed
24 22 19 18 19 20 23 26 26 27 28 30 32 34 34 34 39 49 51 51 48 50 13 37 43 48 39 32 32 33 28 30 26 33 30 28 18 26 26 25 20 22 18 14 7 7 12 12 13 15 17 16 18 23
15 14 16 17 20 22 19 20 23 25 27 28 31 34 37 39 40 38 50 50 46 46 43 23 36 46 42 40 38 32 32 29 29 29 38 24 28 18 33 28 20 16 19 17 13 23 28 14 16 17 9 10 18 22
15 16 15 16 17 16 18 23 27 28 30 31 33 34 36 38 42 48 43 44 42 39 40 42 21 23 33 39 36 36 33 33 29 33 23 26 31 24 31 29 26 34 27 30 26 27 26 14 23 32 23 17 14 14
14 13 16 12 11 11 14 19 23 29 31 28 30 38 37 39 41 47 52 47 43 38 36 31 28 39 34 39 42 37 30 30 32 35 33 25 30 28 27 20 19 23 29 28 32 35 29 22 12 9 17 20 29 19
10 10 10 6 7 11 14 12 9 9 13 25 31 33 36 38 39 42 45 41 40 37 21 23 36 22 23 20 24 25 33 27 31 33 27 34 35 30 23 20 24 32 25 34 33 27 24 22 29 25 16 11 10 17
8 9 14 13 14 14 11 6 7 10 12 19 29 34 39 37 39 38 35 37 39 42 12 23 16 13 20 23 25 27 28 32 29 29 40 30 23 29 26 37 30 25 28 29 24 25 26 22 13 10 18 19 22 23
13 12 14 16 16 18 18 17 17 19 20 21 27 42 38 39 42 47 42 38 39 39 20 12 19 18 15 19 19 21 26 35 35 39 36 32 21 31 28 31 31 22 24 26 27 22 24 21 17 18 22 25 26 23
16 16 17 22 22 23 22 24 24 27 29 33 45 43 43 36 35 35 17 34 32 14 15 6 10 17 19 17 13 17 18 20 26 24 26 18 22 26 19 29 28 33 26 22 21 22 22 22 22 25 25 29 28 26
20 22 21 24 26 30 32 37 32 31 37 39 45 44 42 41 36 33 32 40 31 16 11 11 14 13 18 18 14 14 10 11 11 16 19 14 15 11 18 16 33 33 33 28 22 21 22 23 26 27 28 29 30 31
24 24 24 26 25 27 30 36 40 48 46 40 40 40 26 34 30 24 24 22 20 17 14 13 10 8 10 9 10 7 7 10 7 12 15 17 18 20 20 20 18 21 28 30 31 29 29 29 28 28 27 26 25 26
27 28 26 26 29 29 27 27 30 32 31 29 37 38 35 34 30 17 11 9 12 9 11 9 8 6 12 8 3 12 7 8 7 10 13 10 11 13 20 25 28 27 22 24 28 27 25 27 26 26 26 26 25 23
22 24 24 19 21 24 27 27 25 24 27 30 34 33 28 18 9 6 8 8 7 6 10 12 11 10 8 3 3 12 7 9 5 20 12 8 8 12 11 11 12 20 28 27 26 24 25 29 30 27 28 28 29 30
20 22 21 18 19 20 23 24 26 31 32 29 20 14 6 5 5 6 6 7 9 10 5 12 10 10 7 6 7 8 8 7 11 13 6 3 6 7 8 10 12 16 21 27 29 29 29 29 27 27 27 28 29 31
18 18 18 18 19 20 20 24 25 16 11 8 7 6 4 5 5 8 13 15 16 15 8 6 12 5 6 11 6 8 9 10 5 4 4 2 1 1 2 6 8 9 12 12 11 12 13 14 14 14 14 14 12 10
12 11 10 9 14 16 19 19 14 5 1 4 4 5 7 10 13 14 16 15 14 11 4 2 11 7 3 5 5 4 4 6 5 7 8 4 4 6 6 6 6 7 9 10 10 9 9 9 8 7 9 10 9 8
17 20 17 14 11 16 18 20 6 6 9 7 8 9 8 8 10 12 16 15 12 11 8 4 5 2 4 4 4 5 4 4 10 11 8 7 9 11 13 15 16 17 16 15 14 13 11 10 9 9 8 7 7 6
14 11 10 10 10 6 16 18 2 4 4 5 7 3 4 7 8 11 13 15 10 8 6 3 3 3 4 4 6 5 10 18 13 10 10 12 14 15 15 13 12 10 9 9 8 7 6 6 7 7 5 5 5 4
10 9 7 8 9 14 18 11 4 6 12 10 10 8 3 5 5 10 16 15 10 7 9 5 6 6 6 8 16 18 15 14 13 14 16 16 14 13 11 9 8 7 7 6 6 6 6 7 6 5 6 6 6 6
6 8 7 4 4 5 13 7 10 15 21 17 12 8 7 12 16 16 16 14 11 11 12 10 7 15 23 22 18 16 14 12 12 12 12 12 10 9 7 5 4 3 4 4 5 5 5 6 6 7 7 8 8 9
7 8 7 5 4 12 16 21 26 20 25 23 28 27 21 19 17 18 20 17 15 15 12 27 31 25 21 18 17 15 14 13 11 10 9 8 7 5 3 4 4 4 5 5 6 7 8 9 10 11 11 12 12 14
8 8 9 9 12 31 21 17 20 19 22 26 34 35 35 23 17 14 16 14 22 34 34 30 25 23 20 19 18 15 14 13 9 7 5 4 4 4 2 2 4 5 6 8 9 9 11 12 13 14 15 16 17 18
20 21 20 22 25 24 18 17 20 28 31 29 28 30 34 35 34 33 34 35 39 31 28 23 21 18 16 15 14 13 10 9 6 4 3 2 2 2 3 5 6 8 9 10 10 11 12 13 14 15 16 17 18 19
21 19 19 23 18 14 23 21 20 22 12 17 16 20 21 20 18 14 29 31 29 24 21 18 16 14 10 9 8 5 4 3 1 2 4 5 6 7 8 9 9 10 11 12 12 12 14 15 17 18 18 19 18 18
19 17 15 7 8 12 16 18 20 19 19 19 19 20 20 20 18 21 25 22 19 16 13 10 9 8 6 4 3 1 2 3 5 6 7 8 8 9 9 9 9 10 11 12 14 15 14 15 17 17 15 15 14 14
10 7 9 15 13 17 15 18 19 20 18 14 14 11 10 11 13 16 15 14 13 11 8 6 5 3 2 2 4 6 7 7 7 6 6 6 7 7 9 10 11 12 13 13 14 14 13 10 10 11 11 12 13 13
4 4 8 11 16 15 15 18 16 16 13 11 9 10 11 8 6 7 8 8 8 7 6 4 2 3 5 5 7 9 9 9 9 8 8 7 7 9 10 12 13 13 13 11 10 9 9 9 9 10 12 13 14 15
6 9 14 17 17 18 17 18 15 13 11 9 10 8 6 4 4 4 5 4 3 2 2 3 5 7 8 8 8 8 9 8 7 7 9 11 11 11 11 11 10 8 7 7 7 7 8 9 11 12 13 15 16 17
16 20 19 19 18 17 18 16 13 10 9 8 7 5 3 3 4 3 3 1 0 1 2 4 6 8 8 8 8 6 5 6 7 8 9 11 12 12 11 8 7 6 6 6 7 8 10 12 13 15 16 17 18 18
23 23 22 21 20 17 13 12 12 13 11 9 9 8 8 7 6 5 4 3 2 2 3 4 5 5 5 4 4 5 7 8 7 8 9 9 9 8 7 6 5 6 6 8 10 11 12 13 15 16 17 18 18 19
26 25 24 20 16 16 14 15 13 12 10 10 9 9 9 8 7 6 4 3 3 4 4 4 3 3 3 5 6 7 8 9 9 9 8 8 7 6 5 5 6 7 8 9 10 12 13 14 15 16 18 19 20 21
24 22 18 15 18 18 16 14 11 11 10 10 9 10 9 9 8 6 6 5 4 3 3 2 2 3 4 5 7 8 8 8 8 8 8 7 6 6 6 6 7 8 9 10 11 12 14 16 18 19 20 21 21 21
20 17 13 14 19 17 14 13 11 9 9 9 8 8 9 8 8 7 6 5 3 2 3 3 3 4 5 6 7 8 8 8 8 7 7 6 6 6 7 8 8 9 10 11 12 14 16 18 20 21 21 22 22 22
21 19 15 17 16 15 12 10 8 8 7 7 7 7 7 7 6 6 5 3 2 2 2 3 4 6 7 7 7 7 7 7 7 7 7 6 7 7 8 8 9 10 11 12 15 17 19 21 22 22 23 23 23 23

GFSWCAN_700_spd_063.txt.gz
Wind_Speed
22 21 22 23 22 22 22 21 22 25 26 28 30 31 33 37 47 41 47 52 54 57 49 39 28 29 35 38 41 36 22 24 25 31 31 24 16 15 20 23 18 17 10 15 14 10 12 21 14 9 13 4 21 16
16 18 19 20 20 19 21 22 23 26 28 30 31 31 30 34 39 45 45 45 44 44 43 42 28 30 31 26 23 33 32 20 22 24 27 22 26 17 15 22 20 26 27 21 22 19 16 27 26 21 26 16 5 11
18 18 16 16 18 19 21 21 22 23 25 26 27 29 33 33 33 41 47 45 41 37 38 38 31 28 28 25 28 29 28 29 25 25 26 22 27 24 27 31 26 27 20 26 23 30 23 20 18 16 19 23 25 12
18 16 17 18 16 15 15 17 21 26 29 29 29 29 30 34 36 35 36 40 45 42 39 33 35 46 23 32 24 29 30 27 29 28 25 26 29 25 33 33 27 27 26 31 38 37 33 29 22 20 17 18 22 23
13 9 12 9 9 11 13 16 21 24 30 34 35 32 32 32 36 36 37 40 29 42 11 32 30 37 22 19 23 27 25 25 27 30 31 33 34 36 30 18 25 22 21 27 31 21 19 21 27 23 20 23 17 16
9 6 9 12 15 13 7 3 6 10 16 26 36 34 36 33 35 36 36 33 35 30 27 8 15 27 33 29 23 29 30 30 32 26 27 29 28 26 23 34 27 17 21 24 26 28 26 26 27 23 22 24 25 20
10 11 14 15 17 14 11 7 6 6 12 24 38 31 36 37 39 41 38 34 30 26 27 17 13 17 20 17 23 21 20 22 28 28 28 29 26 25 19 22 28 35 39 38 36 32 29 27 24 24 22 23 21 21
11 14 18 22 25 23 15 15 11 18 24 32 39 35 34 35 34 36 39 31 33 28 33 7 13 20 17 23 22 19 22 22 25 29 32 31 28 31 27 24 30 28 28 30 32 32 29 29 27 25 24 24 24 23
15 20 23 28 25 26 30 25 34 41 38 40 41 39 38 37 39 36 26 26 28 28 22 7 18 19 23 21 21 20 24 22 20 27 31 22 19 9 10 19 24 28 35 30 28 30 22 21 19 20 21 24 23 23
18 15 22 27 28 31 32 39 40 40 37 38 38 34 28 29 28 33 25 30 28 10 8 15 18 16 26 24 20 11 10 12 6 13 13 21 16 18 18 18 19 12 15 29 28 24 19 22 21 20 21 22 22 22
17 19 21 25 26 28 31 31 30 34 33 23 36 33 32 44 41 23 12 11 9 8 13 18 13 13 16 15 16 13 8 10 9 12 17 13 16 14 13 15 16 20 19 21 20 18 21 19 19 20 21 22 24 23
20 20 21 20 20 21 21 24 25 22 19 21 40 37 30 14 9 6 9 10 8 9 15 14 14 17 16 14 9 10 6 11 7 16 12 8 9 12 12 10 11 11 12 15 21 25 21 20 22 24 26 29 26 30
15 16 15 15 16 16 17 21 26 33 34 33 28 20 12 5 6 6 5 8 9 15 18 17 15 15 15 9 6 7 6 6 7 12 6 6 8 7 9 10 11 12 14 14 14 17 21 24 25 25 28 27 26 25
10 12 14 16 16 18 22 28 29 15 14 12 5 5 4 5 5 8 15 17 18 13 12 15 10 11 9 12 7 6 8 8 5 5 6 5 4 3 4 6 6 7 8 9 8 10 10 12 14 15 16 14 13 10
11 10 12 14 16 19 25 16 8 6 1 2 4 4 5 11 16 19 20 21 18 13 11 19 13 8 6 6 8 6 7 5 4 6 11 6 4 3 4 5 5 5 6 6 8 8 7 7 7 6 8 9 9 7
10 9 7 9 13 17 14 9 5 10 8 4 6 12 13 14 15 17 18 16 13 11 9 9 8 5 5 4 4 3 5 4 9 13 11 9 9 9 11 13 14 15 14 14 13 12 11 11 10 10 10 8 7 7
6 5 9 4 9 15 12 8 5 7 3 4 8 9 11 13 14 15 16 14 12 11 7 4 4 2 2 3 4 3 6 18 16 14 13 13 12 13 13 13 14 12 11 10 10 10 9 10 11 11 9 9 8 8
6 5 3 6 6 11 11 9 6 3 9 10 9 9 9 12 13 15 14 11 8 8 8 4 3 3 3 4 13 21 16 14 11 11 12 14 14 15 13 10 9 7 7 7 7 7 7 7 7 6 6 6 5 5
2 3 3 4 3 7 6 2 4 12 15 12 11 11 10 11 13 14 13 12 9 7 4 5 5 14 22 23 18 17 14 13 12 13 14 14 12 10 8 6 5 4 4 4 4 5 4 5 5 7 8 9 10 11
2 3 3 1 2 8 8 20 24 18 23 20 18 16 16 16 16 15 12 9 6 5 4 25 29 26 24 22 19 17 18 17 13 11 10 10 8 6 4 2 1 1 1 3 4 5 7 8 8 9 10 11 13 14
5 3 3 6 11 27 19 18 19 20 30 32 30 27 25 20 17 13 10 9 8 31 34 31 26 23 21 20 19 17 15 14 11 9 6 5 4 4 2 1 3 5 6 7 8 10 12 13 14 15 15 16 17 18
14 17 18 23 23 26 20 23 29 33 32 34 38 37 35 32 30 32 33 31 35 31 28 23 20 18 16 15 14 13 10 9 6 4 2 2 2 3 5 6 8 10 11 11 12 12 13 13 14 14 15 16 18 18
22 21 22 23 21 17 26 23 20 23 14 20 21 24 23 26 27 22 24 27 29 25 22 19 16 14 12 10 9 7 5 5 3 2 3 5 6 6 7 8 8 9 9 10 10 11 12 13 13 14 15 14 14 14
18 17 14 7 8 12 18 17 19 19 21 20 22 24 23 23 20 22 26 24 21 19 16 13 12 9 6 4 3 0 2 4 5 6 7 8 8 8 7 7 8 9 10 11 12 14 15 15 13 11 10 10 11 12
10 7 9 16 15 17 16 18 19 22 21 17 16 14 12 14 15 16 15 14 13 12 9 5 4 2 1 2 4 6 8 9 9 9 9 9 9 9 9 10 11 12 13 14 12 10 9 9 9 9 10 11 11 12
4 5 7 12 19 17 17 18 17 19 14 11 11 14 14 9 6 6 9 8 7 5 3 3 3 4 6 8 9 10 10 9 8 7 7 7 9 10 11 11 11 12 10 9 7 6 5 7 8 10 12 14 15 16
6 9 16 17 18 19 18 18 16 14 13 10 13 10 5 4 3 6 5 5 4 3 4 5 6 6 8 9 10 10 10 9 8 8 9 9 10 10 11 11 9 8 6 5 5 6 7 8 10 11 13 15 16 18
14 20 19 19 18 17 19 17 15 11 10 9 7 5 4 3 6 5 4 2 3 4 5 6 6 7 7 7 8 6 6 7 9 10 10 10 11 10 9 7 6 5 5 5 6 7 9 10 11 13 14 16 17 19
24 23 21 20 20 18 14 11 12 14 13 11 10 9 9 7 5 4 2 2 2 3 4 5 6 6 5 5 4 5 7 8 8 9 10 11 10 10 8 6 6 6 6 7 8 8 9 11 12 14 16 18 20 21
26 25 25 22 18 17 16 15 15 14 12 12 9 9 8 6 5 3 2 1 0 1 3 3 3 3 3 5 5 5 6 7 8 8 8 8 7 7 6 6 6 6 7 8 9 9 10 11 13 16 18 20 21 22
27 25 21 19 18 20 18 17 15 14 11 10 8 8 7 7 5 3 2 2 1 1 1 1 2 4 4 5 6 8 8 9 8 8 8 7 7 7 6 7 7 8 8 9 9 10 12 15 17 19 20 21 22 24
23 19 17 17 20 19 17 16 13 11 10 9 7 7 7 6 4 3 3 3 2 2 1 2 3 5 7 9 9 9 9 8 8 8 8 7 7 7 7 8 8 9 9 9 10 12 14 16 18 20 21 23 24 24
21 20 18 19 19 18 15 13 12 10 8 7 6 6 5 5 4 4 3 2 2 3 3 4 6 8 9 10 9 9 9 8 8 7 7 7 8 8 8 9 8 9 9 10 12 14 16 18 20 21 22 23 24 25

GFSWCAN_700_spd_069.txt.gz
Wind_Speed
28 29 26 22 21 22 20 21 23 25 27 30 28 28 29 34 39 42 46 45 48 50 46 42 37 35 35 37 28 26 19 22 23 24 17 13 11 11 15 9 8 13 14 14 13 10 12 5 4 4 13 16 18 19
27 22 24 26 26 26 24 23 25 24 23 24 27 28 29 30 34 38 44 47 45 47 35 41 40 30 28 29 29 33 30 20 19 16 19 15 18 13 18 9 18 15 19 15 15 12 7 6 9 22 26 27 21 28
20 24 24 25 25 25 26 26 25 22 22 22 21 23 32 32 31 35 40 41 41 45 43 44 38 27 34 29 26 26 21 19 19 18 20 18 14 16 18 21 17 16 13 23 23 24 26 24 21 24 26 31 31 36
23 20 25 23 21 21 20 19 20 24 22 20 21 20 24 29 31 39 37 38 41 39 41 28 29 29 19 24 21 22 20 18 22 25 26 22 19 17 17 16 16 14 14 21 27 28 28 24 30 31 29 30 28 28
13 22 20 22 23 23 23 22 20 19 21 22 22 22 26 24 26 30 35 30 33 38 23 33 24 20 35 34 25 24 24 26 29 32 28 27 21 18 17 20 20 20 22 24 30 28 28 30 28 29 26 23 26 29
15 17 16 20 22 20 18 17 18 20 21 23 22 22 24 26 29 28 26 28 29 30 17 23 28 24 22 22 20 28 34 36 38 33 33 29 22 21 15 23 27 26 22 22 22 22 26 30 25 26 30 29 26 29
15 19 20 23 19 13 12 9 14 19 23 24 23 21 27 32 32 30 27 26 29 36 19 14 8 7 10 24 20 30 29 39 35 36 34 27 30 28 32 34 34 29 25 22 25 24 24 28 32 32 35 32 33 33
13 17 24 23 23 13 8 9 12 17 26 30 27 24 25 30 28 28 19 16 26 26 20 8 8 14 14 25 25 24 17 20 18 14 21 28 29 28 11 30 31 29 25 27 29 27 27 27 33 37 35 30 29 33
9 14 26 27 27 23 13 13 15 20 34 33 29 28 25 25 26 25 20 11 21 16 10 10 14 11 16 20 22 23 20 15 15 18 20 15 20 14 30 32 29 25 24 17 15 16 26 31 27 30 29 24 32 28
16 16 19 24 29 31 24 21 25 31 41 39 36 32 26 26 15 19 18 18 19 16 11 9 8 5 22 23 27 16 23 17 8 18 11 23 28 30 33 32 28 26 24 21 21 24 15 21 27 29 27 30 24 22
9 12 15 19 33 30 29 32 36 38 38 37 34 29 23 20 19 9 9 7 9 7 9 12 7 13 20 23 24 15 9 12 7 9 14 15 22 29 31 31 29 28 30 31 27 25 21 22 22 24 25 25 20 22
7 8 11 11 13 23 22 30 33 29 36 33 30 30 27 22 11 7 10 9 7 7 9 10 11 14 19 15 16 17 5 11 6 13 12 9 16 19 21 25 25 26 27 26 24 21 22 19 20 23 23 21 18 17
6 6 8 12 15 17 20 22 24 23 26 24 34 18 13 4 5 7 6 9 7 14 15 15 13 16 10 10 8 6 8 6 4 8 7 12 15 16 17 18 19 19 18 17 17 17 14 14 15 15 14 16 17 16
5 6 8 10 17 25 24 21 18 24 28 20 8 6 3 3 5 8 14 13 14 15 18 16 16 9 9 8 5 5 5 5 6 5 6 7 8 8 9 9 10 10 10 12 11 9 7 7 6 4 3 1 3 1
4 3 5 8 14 23 20 18 13 14 8 4 4 3 5 11 17 16 15 12 15 18 16 14 12 5 7 4 5 4 4 4 4 5 8 8 6 4 3 1 1 1 3 4 6 7 8 9 9 9 11 13 12 12
4 5 1 2 9 16 18 16 9 10 2 3 3 9 13 17 19 18 15 12 14 18 15 11 7 4 6 5 5 5 3 3 5 11 9 7 8 10 12 14 15 15 14 13 13 12 12 11 11 10 11 10 10 9
2 4 0 4 7 15 14 9 8 5 3 1 7 12 16 18 19 18 17 14 13 13 16 6 5 5 3 3 3 2 3 9 13 11 12 14 15 18 17 15 13 12 10 10 9 9 8 8 8 8 5 5 5 5
4 4 3 5 9 17 12 5 3 3 6 10 13 16 16 17 17 15 13 10 9 10 6 4 3 4 2 1 5 13 13 13 13 14 16 18 17 14 12 9 8 7 6 5 4 4 4 4 4 4 5 7 8 8
6 5 1 9 9 9 9 9 8 6 10 13 14 16 15 15 14 13 11 7 4 3 3 2 3 8 16 18 17 17 17 16 15 17 17 16 14 11 8 6 5 4 3 2 1 1 2 4 6 7 8 8 9 10
5 5 8 5 17 14 9 5 10 12 16 18 18 18 16 14 12 10 7 6 6 5 4 12 23 21 20 20 18 17 17 15 13 11 10 9 8 7 5 4 3 2 1 2 4 6 7 8 9 10 10 10 11 11
7 6 8 7 3 14 14 14 17 22 23 20 19 16 15 13 10 8 6 6 5 11 28 24 20 19 18 17 16 14 12 11 10 8 5 3 2 2 1 2 3 5 7 8 9 10 10 10 10 10 10 11 12 13
15 12 11 13 24 27 18 19 22 23 22 22 19 18 17 15 14 16 20 24 29 25 23 21 18 16 13 10 8 7 5 3 2 0 1 2 4 5 7 7 8 9 9 10 10 9 9 9 10 11 12 12 11 9
20 21 18 25 18 16 26 26 27 27 21 28 28 26 26 27 26 22 15 20 24 22 18 16 13 10 9 6 4 3 2 1 2 3 5 6 7 8 8 9 9 8 8 9 9 10 11 11 12 11 9 6 5 5
17 9 10 7 11 18 25 27 32 31 30 28 27 25 21 17 15 16 18 17 15 14 13 10 7 5 3 1 2 4 5 7 8 9 10 10 10 10 9 9 9 10 10 11 11 12 12 10 8 6 4 4 6 7
9 6 10 17 13 20 19 21 24 25 23 22 20 17 14 12 10 12 12 10 9 8 6 4 2 1 2 4 5 7 7 8 8 8 8 8 8 8 9 9 10 11 11 11 10 8 6 5 4 4 5 7 8 9
5 5 6 12 19 17 16 20 21 23 19 13 12 13 15 10 4 6 9 8 6 4 3 1 2 4 6 7 8 9 9 9 8 8 7 7 8 9 10 10 11 11 9 7 6 4 3 3 4 6 6 7 8 10
6 9 18 19 21 22 21 20 19 16 9 8 13 11 5 3 3 7 7 6 4 1 2 3 5 6 8 9 9 9 9 7 6 7 7 8 9 10 10 10 9 7 6 5 4 4 4 5 6 7 7 8 10 12
14 21 20 21 20 18 20 18 14 8 8 11 8 4 3 3 5 6 5 2 1 2 4 6 7 8 9 9 8 7 6 7 8 8 8 9 9 9 9 8 7 6 5 5 5 6 6 7 7 8 9 11 13 15
24 23 22 20 18 19 15 11 6 9 9 8 6 6 7 8 6 5 3 2 3 5 6 8 9 10 9 9 8 8 9 9 10 10 10 10 9 9 8 7 7 6 6 6 7 8 8 8 8 10 12 14 16 18
26 25 23 21 20 16 12 12 13 12 11 10 9 8 8 8 6 6 5 5 6 7 8 9 10 9 9 9 10 10 11 12 12 12 12 11 11 10 9 8 8 8 8 9 9 9 10 10 11 13 15 17 18 20
27 26 24 23 19 17 17 16 15 13 11 10 9 9 8 8 7 6 6 7 7 8 9 8 8 8 9 9 11 12 13 13 12 12 12 11 10 10 9 9 9 9 10 10 10 10 10 11 13 15 17 19 21 22
26 25 23 21 22 21 19 17 15 13 11 10 9 8 7 7 7 7 8 8 8 8 8 8 9 9 11 12 13 13 13 13 13 13 12 11 11 10 10 10 10 10 10 10 11 11 12 14 16 18 20 21 23 24
21 20 21 21 23 21 19 17 15 12 10 9 8 7 7 7 6 8 8 8 8 8 8 9 10 11 12 13 14 14 14 14 14 13 12 12 12 12 12 11 11 11 11 11 12 13 15 17 19 21 22 23 24 24

GFSWCAN_700_spd_072.txt.gz
Wind_Speed
21 25 29 22 21 20 20 20 20 20 20 22 24 27 28 30 35 38 47 44 46 43 34 35 20 23 25 30 26 21 22 25 26 21 15 10 10 12 11 7 11 16 17 17 18 14 12 8 12 13 11 10 15 18
24 28 21 21 23 21 21 23 25 25 23 23 24 26 29 28 30 37 46 43 43 44 32 32 39 32 29 26 23 29 28 18 18 14 16 11 10 11 13 14 16 12 15 13 14 12 8 6 5 13 18 23 27 30
28 21 24 22 20 24 23 21 23 25 25 22 21 23 26 27 29 35 42 41 42 42 41 38 31 33 33 26 22 23 25 30 27 21 14 13 9 12 15 19 14 18 16 19 15 15 16 16 20 25 28 29 26 26
20 20 18 23 24 22 22 20 21 22 24 23 22 21 22 27 31 33 38 38 40 40 41 31 27 38 21 21 24 24 22 24 19 19 21 20 14 11 13 13 17 16 14 17 19 17 17 17 21 26 24 26 25 22
12 15 19 20 20 23 24 21 22 19 20 21 22 21 22 23 28 32 34 33 35 39 16 38 30 25 18 34 28 23 20 20 20 22 24 24 23 16 14 18 19 17 15 17 16 19 22 24 26 27 25 27 29 27
9 14 18 22 23 25 22 22 21 23 19 21 21 20 24 24 29 31 33 35 35 34 30 6 12 26 20 23 21 23 13 23 26 26 28 24 23 17 13 18 16 23 23 23 26 27 22 22 22 24 22 23 24 29
13 15 22 22 23 22 18 16 16 22 23 22 22 21 20 26 28 30 31 33 28 32 34 19 10 16 21 23 30 28 30 29 26 32 28 29 27 25 26 19 22 23 23 22 26 25 24 27 27 26 26 28 31 33
12 17 22 23 21 8 8 12 17 22 27 26 23 22 28 27 26 18 25 25 26 28 29 12 9 17 19 23 28 28 27 24 28 29 33 35 26 23 22 29 32 31 32 31 28 26 28 30 28 25 27 29 29 28
14 15 21 29 14 12 13 16 21 25 29 27 25 26 33 30 25 22 19 21 28 32 20 10 12 11 19 17 26 23 18 18 18 17 19 12 22 20 29 34 36 33 25 18 20 26 25 24 25 26 26 25 25 25
13 17 24 29 15 14 16 17 23 36 33 32 29 35 34 32 28 20 19 29 23 17 17 14 18 8 15 16 21 22 19 12 9 16 10 19 21 27 31 30 28 25 25 22 24 23 26 30 32 27 27 22 23 25
9 12 18 24 22 23 24 34 38 35 33 31 28 28 28 27 29 21 17 9 9 9 11 15 11 13 15 17 22 14 9 13 8 9 12 8 18 25 28 30 30 29 27 27 28 29 30 31 32 28 26 20 22 22
9 15 18 20 26 32 32 33 31 30 32 29 34 44 34 14 8 7 11 10 8 8 12 15 11 10 16 19 16 15 3 9 6 13 11 10 21 22 25 28 30 29 29 27 27 26 25 25 26 23 22 19 18 17
11 14 16 21 23 23 21 24 27 24 24 31 35 17 9 4 5 8 8 9 9 18 17 16 18 19 16 7 9 9 7 6 5 11 7 16 20 21 20 20 21 23 23 21 21 21 21 21 19 18 17 15 13 13
12 18 16 19 19 19 20 22 21 20 27 20 10 8 3 5 6 10 13 16 19 21 18 16 15 10 9 6 5 5 6 5 5 5 6 13 13 14 13 13 14 13 13 13 12 12 11 9 8 7 5 4 1 2
7 12 21 23 22 18 16 24 27 19 6 4 4 3 4 10 19 21 18 16 21 22 19 15 14 7 8 4 4 4 4 5 6 6 10 11 9 7 6 5 4 4 4 4 4 4 4 5 5 6 8 9 9 9
7 7 10 19 24 22 17 14 14 6 5 3 5 14 17 19 19 18 16 17 19 20 18 13 7 4 5 4 5 6 3 4 5 7 7 6 5 6 7 10 11 12 12 11 11 11 10 10 9 9 10 9 8 7
4 4 6 10 19 21 19 14 11 7 1 4 8 13 16 17 16 16 15 18 18 17 15 6 6 4 3 4 3 3 4 4 5 6 6 8 11 14 14 13 12 11 9 8 7 8 7 7 7 6 4 3 2 2
3 5 6 9 13 18 16 14 10 5 6 10 12 15 17 16 17 15 14 14 13 12 12 6 2 5 3 2 2 4 6 8 8 10 12 14 14 12 10 8 7 6 5 5 5 4 3 2 2 1 3 5 7 7
2 2 5 10 14 19 14 9 7 7 10 12 14 16 16 16 15 14 11 9 8 7 5 6 3 3 7 11 12 11 10 11 11 13 15 14 12 10 8 6 5 4 4 3 3 2 2 3 5 7 8 8 9 10
5 6 8 11 15 17 14 9 12 9 14 16 16 16 14 13 12 10 8 7 5 4 3 6 15 17 17 15 14 13 13 13 11 9 8 6 5 3 3 3 3 3 3 4 5 7 8 9 10 10 10 11 11 11
13 9 11 15 21 19 9 14 15 14 20 18 16 14 13 12 11 9 6 5 4 6 21 20 18 16 14 12 12 11 10 8 7 6 4 3 4 4 5 5 6 7 9 10 11 11 11 11 11 11 11 12 12 13
20 19 15 12 22 16 10 14 17 22 20 21 17 15 13 9 7 6 7 11 23 22 20 18 15 13 11 9 7 5 5 3 2 2 3 4 6 7 8 9 10 11 11 12 12 12 12 12 12 12 13 13 12 10
17 13 16 19 16 14 23 28 26 25 16 21 20 17 18 22 22 23 17 20 22 19 16 14 11 9 7 5 4 2 1 1 2 4 6 7 9 10 11 12 12 12 12 12 12 12 12 13 13 12 11 8 6 6
6 5 7 6 7 13 21 20 25 23 24 22 22 23 21 17 11 14 18 17 15 14 12 9 7 5 4 2 2 3 5 6 8 9 10 10 11 11 10 10 10 11 11 11 12 12 12 11 10 8 6 5 6 6
5 8 11 17 14 21 20 25 28 29 26 26 20 16 15 12 11 12 14 12 11 9 7 5 3 2 3 4 6 7 8 9 9 9 9 9 9 9 10 10 11 12 12 13 12 11 9 7 6 5 5 6 6 6
6 6 7 16 26 23 25 24 25 26 22 15 12 13 15 9 5 6 10 9 7 4 2 1 2 3 4 6 7 8 9 9 9 8 8 9 10 11 11 11 11 12 11 10 8 7 6 5 5 6 7 7 7 8
7 11 21 22 22 25 22 24 23 15 11 9 15 13 5 3 3 9 9 7 5 2 1 2 4 5 6 7 7 8 7 7 7 8 9 9 10 11 11 11 10 9 8 7 6 5 5 6 7 7 7 7 9 10
17 23 21 20 21 20 24 21 14 9 8 13 10 5 4 4 8 10 7 5 3 1 2 4 5 6 7 7 7 7 7 8 9 9 10 10 11 11 11 10 9 7 7 6 6 6 7 8 8 8 8 9 11 13
24 25 23 20 19 20 17 14 8 10 12 10 7 7 10 10 10 8 6 4 2 3 4 5 6 7 7 6 6 7 7 8 10 10 11 11 11 10 10 9 8 7 6 6 7 8 8 9 9 9 10 12 13 15
27 26 25 21 20 17 14 10 14 14 13 12 10 11 11 11 9 7 6 4 4 4 5 6 6 6 6 7 8 9 10 11 10 10 10 10 10 9 9 8 8 7 7 7 8 8 9 9 9 10 12 14 16 17
28 26 23 21 19 16 16 17 17 16 14 14 14 12 10 10 9 7 6 5 5 5 5 5 5 6 7 9 10 11 11 12 12 11 10 10 10 9 9 8 8 8 9 9 9 9 9 9 11 12 14 16 18 19
24 23 22 22 21 21 21 20 17 16 15 13 12 10 9 8 7 7 7 6 6 5 5 5 6 7 9 10 11 12 12 13 13 12 11 10 9 9 9 9 9 9 9 9 9 9 10 11 13 15 17 19 21 22
19 18 19 20 24 24 21 20 19 16 14 12 10 8 7 6 5 6 7 6 6 5 5 6 7 9 9 10 11 13 13 14 13 12 11 10 10 10 10 10 10 9 9 9 10 11 13 15 17 18 20 21 23 23

GFSWCAN_700_spd_075.txt.gz
Wind_Speed
27 21 20 21 24 21 20 20 21 18 19 21 23 22 23 26 30 35 31 33 36 38 33 29 17 24 22 19 20 12 18 20 16 18 13 10 10 10 11 7 14 20 16 17 19 11 19 10 9 9 7 4 3 4
22 21 22 25 21 21 23 22 21 21 23 22 22 24 24 25 27 32 37 36 36 38 27 29 32 25 25 21 23 24 19 8 10 9 15 9 9 9 11 14 12 14 16 16 17 16 6 7 7 4 7 10 13 18
20 22 23 21 19 18 19 20 21 24 23 25 24 24 25 27 29 32 37 37 39 40 36 34 31 35 27 24 20 24 21 19 19 15 13 12 10 8 11 15 13 15 17 13 11 13 15 10 3 10 17 17 23 28
21 20 18 17 21 22 21 21 21 19 20 25 26 24 24 26 30 31 36 36 36 40 39 28 26 33 21 27 30 27 23 15 21 21 22 18 9 7 10 12 13 15 10 15 17 13 11 7 11 21 20 20 27 29
19 14 15 18 20 22 22 22 23 21 21 22 25 21 22 23 28 29 29 31 31 30 14 30 21 18 26 23 18 18 22 25 19 17 21 18 15 13 12 14 14 12 12 13 12 14 15 11 18 24 25 25 27 27
12 13 18 22 28 24 23 25 24 21 23 18 22 25 22 21 28 29 31 33 31 29 18 5 7 22 20 15 17 25 28 20 20 15 19 20 17 15 7 14 13 15 19 20 20 16 16 22 31 25 23 24 25 27
12 13 18 26 28 28 28 22 23 23 26 23 22 22 25 26 31 35 33 32 25 30 33 20 6 7 17 27 23 21 23 20 23 23 26 22 14 16 19 15 12 21 20 21 25 24 25 24 27 26 28 30 30 31
10 15 21 21 16 12 8 14 20 24 30 26 24 22 26 23 28 31 29 25 29 29 27 10 7 7 14 24 23 21 21 25 28 27 24 20 21 23 18 26 26 26 26 26 23 24 30 26 25 26 23 21 26 29
13 19 25 15 10 4 9 14 22 27 32 28 26 25 25 25 24 21 24 18 25 34 28 17 13 10 18 22 22 21 24 21 21 22 23 20 22 14 17 23 25 23 21 22 29 31 26 25 28 26 26 28 26 27
12 17 24 12 7 9 13 21 26 32 33 31 32 34 30 26 21 20 23 30 35 33 22 17 16 11 11 18 14 14 19 18 13 19 12 16 19 24 21 21 23 25 24 25 24 27 25 26 27 29 31 31 28 27
10 15 20 14 15 15 18 28 30 31 29 30 39 33 30 26 22 24 9 16 12 11 28 18 15 9 12 15 14 14 7 12 4 7 15 6 13 21 24 25 26 27 27 27 27 29 30 30 31 31 31 28 25 24
11 15 22 28 31 34 28 29 28 30 29 35 38 37 35 20 7 5 9 9 8 10 17 21 17 17 13 16 12 12 6 9 5 9 9 6 17 21 22 22 23 24 24 25 26 27 26 26 25 24 22 22 19 18
15 16 20 20 20 23 22 21 21 26 28 32 34 24 11 6 5 7 7 8 7 12 20 22 14 11 11 17 7 7 5 5 3 8 6 12 21 19 20 22 22 22 21 21 20 19 19 19 18 18 16 14 13 12
17 19 21 18 15 18 18 20 22 27 32 18 10 7 4 5 7 10 16 16 17 18 20 18 15 12 8 7 7 5 7 4 5 4 6 17 16 17 18 20 20 20 19 17 15 14 12 11 9 7 6 6 5 5
19 18 21 19 17 20 22 21 25 20 7 3 4 4 7 7 13 18 18 18 21 21 20 18 15 8 11 5 5 4 4 4 7 6 16 16 15 14 13 12 11 10 9 8 6 4 3 2 3 4 6 6 7 7
20 19 22 22 22 19 21 24 13 5 5 2 3 11 17 21 22 21 19 24 23 21 18 16 8 5 5 3 5 5 3 3 7 10 9 9 8 7 6 4 3 4 5 6 7 7 7 7 6 5 6 6 6 5
10 17 22 23 22 20 22 16 8 4 1 5 12 16 17 21 21 19 20 24 22 20 18 7 6 4 3 3 3 4 6 8 9 7 6 5 5 7 9 9 9 8 6 5 5 5 5 5 5 4 3 1 1 2
9 10 16 23 21 18 16 12 8 3 2 11 15 18 17 17 16 16 19 20 20 18 15 6 4 6 4 3 4 6 4 2 2 2 4 7 10 9 8 7 6 5 4 4 4 3 3 2 2 2 4 7 8 9
10 12 13 19 23 20 16 12 7 6 10 13 17 16 16 16 15 15 15 15 13 13 12 9 5 5 5 5 6 5 5 4 4 5 7 8 6 4 3 2 2 3 3 3 4 5 6 6 8 10 11 12 12 13
10 13 14 18 22 20 10 8 7 9 15 17 17 17 15 15 14 13 12 11 10 9 8 5 6 10 10 9 7 6 4 4 5 6 5 4 3 3 4 5 6 6 7 8 9 10 11 13 13 14 14 14 15 15
13 17 16 19 21 19 9 10 8 12 18 19 18 17 15 14 12 10 8 6 5 4 12 16 15 12 10 8 5 4 3 3 2 2 4 5 7 7 8 8 9 10 11 12 14 15 15 15 15 15 15 15 15 15
16 17 21 20 20 15 8 12 12 17 17 19 16 14 12 10 9 7 6 5 13 19 18 16 13 10 7 5 3 2 1 2 3 5 6 8 9 10 11 12 13 14 15 15 16 16 16 15 15 15 15 15 15 14
20 18 16 19 14 7 11 17 19 18 13 17 15 12 10 12 12 15 12 19 19 16 14 12 9 7 5 3 1 1 3 4 6 8 9 11 12 13 14 14 15 15 15 14 15 15 15 15 15 15 15 13 11 9
7 7 8 5 6 10 23 19 22 20 20 17 14 16 17 16 13 14 17 16 14 12 10 8 6 4 2 0 2 4 5 7 9 10 12 13 13 13 13 12 12 13 13 14 14 15 15 14 14 12 11 9 8 8
5 6 7 10 15 16 17 19 21 22 19 22 20 15 12 11 11 12 13 12 10 9 7 5 3 0 2 4 5 7 9 10 11 12 12 12 12 12 12 12 13 13 14 14 14 14 13 11 9 8 7 8 9 9
3 5 6 12 20 18 18 21 20 27 25 16 12 13 13 11 5 7 12 10 8 5 3 1 1 3 5 7 8 9 10 10 10 10 10 11 12 13 13 13 14 14 14 13 12 10 9 8 7 8 9 9 9 9
5 10 20 22 26 27 24 27 28 21 14 10 16 16 7 4 4 10 11 8 6 3 1 1 3 5 7 8 8 8 8 9 9 10 11 11 12 13 13 13 13 13 12 10 9 9 8 8 9 10 10 10 10 11
18 24 22 25 26 25 30 25 18 12 9 16 15 6 5 5 8 11 9 7 4 2 1 3 5 6 6 7 7 7 7 8 9 11 12 13 13 13 13 13 12 12 11 10 9 9 9 10 11 11 11 11 11 12
24 23 23 22 22 25 19 14 9 9 13 13 8 7 9 11 12 10 8 5 2 1 2 4 5 6 5 5 6 7 8 9 11 11 12 13 13 13 13 13 12 11 10 10 10 10 11 12 12 12 11 12 13 14
26 25 25 23 24 19 14 10 11 14 13 11 11 13 12 11 10 8 6 3 1 3 4 5 5 5 5 6 7 8 9 10 11 12 12 13 13 13 12 12 11 11 11 11 11 12 12 12 12 12 13 14 15 17
28 25 23 22 19 17 15 16 17 16 15 15 15 13 11 10 8 6 3 3 3 4 5 5 5 5 6 7 8 9 10 11 12 12 12 12 12 12 11 11 11 11 11 12 12 12 12 12 12 13 15 16 18 20
26 24 22 22 21 20 20 21 19 18 17 15 13 12 10 7 5 3 3 4 5 5 5 5 5 6 7 8 9 10 11 12 12 13 12 12 11 11 11 11 12 12 11 11 11 11 12 12 14 15 17 19 20 22
19 18 18 20 25 26 23 22 21 18 15 14 11 9 7 4 2 2 4 5 5 6 5 5 6 7 8 8 9 11 12 12 13 12 11 10 10 10 10 10 10 10 10 10 11 12 13 15 17 18 20 21 22 23

GFSWCAN_700_spd_078.txt.gz
Wind_Speed
29 27 28 23 19 21 23 23 22 21 22 21 21 23 25 25 28 41 33 35 36 36 29 25 21 18 16 15 16 17 17 11 15 13 9 12 12 13 11 8 18 23 17 16 18 11 16 7 7 9 11 12 11 10
27 27 21 18 21 24 23 20 20 21 22 21 20 20 22 22 24 30 35 35 35 35 25 26 30 24 20 18 18 13 16 3 12 8 8 9 13 8 10 9 7 11 15 14 16 17 5 7 11 12 12 1 2 6
25 20 19 21 23 22 20 17 17 17 19 21 18 22 19 21 22 26 24 28 31 32 29 29 16 20 24 22 23 14 13 24 15 13 16 17 12 8 9 10 10 5 14 13 17 15 11 16 21 10 10 10 13 16
19 20 21 20 18 17 19 19 20 21 22 21 23 22 20 20 22 23 25 28 29 31 33 25 17 21 20 19 28 24 14 12 16 19 21 10 16 8 3 7 9 8 10 12 16 15 5 12 13 8 5 11 15 19
19 18 15 16 18 20 21 22 23 22 21 21 20 24 25 23 24 23 28 31 32 31 11 20 27 23 18 24 27 26 24 21 23 20 15 15 15 14 14 10 9 10 5 5 5 6 6 2 5 3 10 16 22 20
12 16 15 19 21 23 27 27 25 24 24 24 21 22 26 22 24 27 27 27 26 25 26 20 8 17 17 20 24 14 14 21 21 17 18 16 11 9 7 4 11 12 9 10 13 3 7 17 19 17 20 23 25 26
13 15 16 18 24 29 27 27 29 29 25 22 23 25 26 26 29 33 29 28 22 21 31 21 7 12 18 17 17 21 16 21 22 22 22 19 15 14 16 12 20 14 15 17 12 11 18 21 26 25 24 25 25 25
11 16 19 23 28 22 20 21 22 29 28 25 23 26 26 29 27 29 29 20 23 26 27 11 6 9 13 22 19 18 20 18 26 24 21 18 13 19 10 15 18 16 21 17 15 18 22 22 22 22 17 20 23 22
16 16 20 18 10 8 7 6 17 28 31 31 27 26 27 31 29 23 28 15 21 28 19 12 9 7 8 15 19 19 17 12 18 16 21 17 16 11 10 16 18 17 19 23 19 22 24 23 23 21 25 25 26 27
12 15 16 9 2 1 6 16 22 33 37 33 30 30 26 24 23 22 21 25 26 27 28 13 15 6 7 14 12 17 14 13 7 11 14 21 21 23 23 27 26 22 20 19 20 23 25 25 24 22 24 25 27 29
9 16 8 8 8 7 14 21 28 34 31 32 33 31 24 24 26 25 15 18 14 16 26 19 15 14 10 14 16 10 4 6 5 10 10 9 12 17 15 14 19 22 25 27 27 26 25 25 27 27 26 27 27 27
14 18 24 22 23 23 27 28 29 28 29 34 34 31 30 32 8 6 11 12 9 12 14 21 15 13 10 13 9 12 6 6 5 5 7 4 8 14 18 20 21 24 25 26 26 26 26 25 23 23 23 23 22 21
15 13 18 20 22 22 14 16 25 31 30 32 32 23 13 5 6 7 9 10 8 13 17 24 18 13 12 11 3 6 4 4 2 5 4 7 16 17 19 21 20 20 19 18 17 18 19 20 20 19 19 18 17 15
17 21 13 16 13 12 12 17 23 21 31 28 9 7 5 5 6 9 15 15 13 15 16 19 17 14 10 13 5 4 6 3 4 4 5 16 14 16 17 17 16 15 15 14 13 13 12 11 11 11 10 9 8 8
17 15 12 16 17 23 22 31 24 14 15 7 5 3 5 5 10 17 16 14 17 21 23 18 14 10 10 4 5 4 3 3 6 6 14 15 17 18 17 16 14 13 11 10 8 7 6 4 3 2 3 3 3 3
16 15 14 17 18 23 24 22 10 7 8 3 2 9 11 9 17 18 18 18 20 22 21 16 9 6 5 4 4 5 5 5 8 12 12 13 14 14 12 10 8 6 3 2 1 2 3 3 4 3 3 3 3 2
14 19 16 18 17 18 20 12 5 6 3 4 10 14 17 17 19 18 19 21 21 20 19 8 5 4 5 3 3 4 7 10 9 11 10 9 7 5 2 0 2 2 2 2 2 1 2 1 1 1 0 1 3 4
18 20 19 19 17 17 17 8 1 2 6 11 13 14 13 16 17 19 20 21 21 19 16 7 5 6 5 4 5 5 6 4 2 2 2 2 2 2 1 1 0 1 2 2 2 3 4 4 5 6 7 9 11 12
12 20 24 20 18 16 13 8 2 1 10 13 15 15 14 12 12 15 18 18 16 15 14 5 3 2 4 5 1 3 3 4 4 4 4 2 1 1 3 4 4 5 6 7 7 8 9 9 10 12 13 15 15 15
14 15 20 24 19 15 10 6 6 6 13 16 16 15 14 14 14 14 13 13 11 9 9 6 5 3 5 8 7 6 6 5 5 3 1 2 4 6 7 8 9 9 10 11 11 12 13 14 16 17 17 17 18 17
14 16 16 20 22 18 5 9 5 11 16 17 17 15 14 12 10 9 8 7 7 7 7 6 10 11 10 8 7 6 4 4 3 5 5 8 9 11 11 11 12 13 13 14 15 17 18 19 18 18 17 17 17 17
19 18 18 18 19 15 6 8 8 13 14 16 15 13 11 9 8 6 5 5 5 12 17 16 13 10 8 6 4 2 2 4 6 8 10 11 12 13 14 14 15 16 17 18 19 18 18 17 17 17 17 17 17 16
19 21 19 18 12 9 11 12 15 13 11 15 13 11 9 8 8 6 6 14 17 16 14 11 9 6 4 1 2 3 5 7 9 11 12 13 14 15 16 16 16 16 17 16 17 16 16 16 17 17 17 16 14 13
17 17 16 10 8 8 17 15 15 16 15 15 11 9 11 12 13 14 17 16 14 12 10 7 4 2 1 2 4 6 8 10 12 13 14 15 15 15 15 15 14 15 16 16 17 17 17 17 17 15 14 13 11 10
10 8 6 7 8 13 14 16 17 16 18 16 17 15 14 12 11 12 14 13 11 9 7 5 2 1 3 5 7 9 11 13 13 13 14 14 14 14 14 15 15 15 16 17 16 16 16 14 13 12 11 10 9 10
5 5 7 11 16 16 15 18 16 21 22 16 12 13 14 12 6 7 13 11 10 7 4 2 2 4 6 8 10 11 12 13 13 13 13 13 14 15 16 16 17 13 15 15 15 14 12 11 10 10 10 10 11 12
5 5 13 19 20 21 23 20 26 24 15 8 15 17 9 4 4 10 13 10 7 4 2 2 4 7 8 10 11 12 12 12 12 13 14 15 15 15 16 16 16 15 15 14 13 12 11 10 10 11 12 13 13 13
9 18 21 21 22 23 27 29 22 14 9 16 18 9 6 5 6 12 10 7 5 2 1 4 7 9 10 11 11 11 11 12 13 14 14 15 16 15 15 15 15 14 14 13 12 11 11 11 12 13 13 14 14 14
21 24 23 22 25 29 24 20 13 10 12 18 10 6 6 9 13 11 9 6 2 1 4 7 9 10 11 11 10 11 11 12 13 14 15 16 15 13 15 14 14 14 13 13 12 12 12 13 13 14 14 14 14 15
24 25 24 24 25 21 17 11 10 14 14 10 8 11 12 13 12 10 7 3 2 4 7 9 10 11 10 10 10 11 12 12 13 14 15 15 15 15 14 14 14 13 13 13 13 12 13 13 13 14 14 15 16 17
24 23 22 22 22 17 14 13 14 13 13 14 14 12 10 11 9 7 4 2 4 6 9 10 11 10 10 10 11 11 11 13 14 15 15 16 15 14 14 14 14 14 14 13 13 13 13 13 13 14 15 17 18 20
24 23 22 23 21 20 19 19 19 19 19 17 15 13 11 8 6 3 2 4 6 8 10 10 10 10 10 10 11 12 13 14 15 16 16 15 14 13 13 13 13 13 13 13 13 13 13 14 15 17 18 20 21 22
20 19 18 18 21 21 21 22 20 19 18 15 13 11 8 6 3 1 3 6 8 10 10 10 10 10 10 11 12 13 14 15 15 14 13 12 12 12 12 12 12 12 12 13 14 15 16 17 18 19 20 21 22 24

GFSWCAN_700_spd_081.txt.gz
Wind_Speed
27 28 27 27 26 26 21 19 17 19 21 23 23 22 24 25 23 28 25 28 33 29 23 21 19 18 12 8 7 10 13 15 16 15 15 12 9 13 12 18 17 21 21 23 24 12 12 6 8 10 13 19 22 19
27 27 26 26 23 18 18 19 20 19 17 18 18 18 19 21 23 27 31 28 32 34 27 24 24 24 20 16 12 12 8 7 7 7 6 5 8 12 13 10 8 8 21 16 17 12 7 9 13 15 16 20 22 17
26 25 24 20 18 18 20 20 18 18 19 20 20 19 17 19 21 25 28 26 35 33 30 29 22 20 26 21 20 20 10 4 7 7 10 9 11 16 12 8 9 6 14 10 15 11 11 10 20 16 12 14 6 4
23 23 19 19 20 21 20 18 16 17 17 17 16 17 16 17 18 20 20 21 33 32 30 18 16 15 10 16 21 19 21 13 2 9 11 14 15 10 12 11 6 8 9 3 14 12 12 10 14 16 12 5 4 9
20 18 19 19 19 18 17 17 17 17 15 16 17 18 18 17 17 17 15 18 21 27 9 12 16 17 20 16 17 20 24 19 14 13 11 12 13 11 9 7 7 7 6 3 4 1 19 12 9 4 2 7 11 17
17 18 18 20 20 19 21 21 21 22 23 20 19 18 19 22 19 18 18 20 18 23 26 24 14 13 16 14 13 18 15 15 15 13 16 14 8 11 3 2 6 5 8 5 5 4 5 8 12 15 15 16 17 19
16 17 18 18 19 21 23 25 27 28 28 22 20 18 20 25 25 27 20 19 17 21 25 20 20 10 15 12 11 18 16 15 12 15 18 18 16 18 9 9 15 11 13 8 15 11 8 8 11 15 15 16 16 14
15 16 16 20 23 27 31 34 33 27 24 26 21 20 21 24 27 28 25 13 16 18 21 14 11 8 18 18 16 17 22 19 18 16 19 16 15 11 7 10 14 14 13 13 12 16 15 16 16 16 19 20 17 19
14 17 21 22 23 21 17 18 21 23 26 29 23 24 27 28 30 25 23 21 13 19 16 14 9 6 15 21 20 17 16 14 14 17 20 13 15 9 10 10 12 15 13 12 18 19 18 20 21 18 21 22 21 22
10 15 17 14 10 8 6 9 13 24 31 33 33 32 32 30 28 22 16 15 17 26 24 22 15 7 10 15 17 14 9 12 7 7 7 14 13 18 22 21 21 24 25 19 16 17 17 21 23 22 22 23 25 25
6 8 2 1 4 6 8 15 25 36 40 40 37 29 23 29 27 20 12 16 13 13 25 24 18 9 8 16 15 13 4 6 5 9 12 8 13 23 25 24 23 20 19 22 23 23 24 25 25 25 25 26 25 23
6 10 18 16 14 14 17 23 32 37 38 34 36 28 28 24 13 9 12 14 9 11 11 22 24 11 12 11 7 9 5 4 5 5 10 8 15 15 16 17 18 22 22 24 26 25 24 24 24 23 21 21 22 20
11 14 17 22 19 21 21 24 30 29 28 25 26 23 13 8 7 10 11 11 9 14 15 16 17 21 13 13 6 6 6 4 5 6 3 8 10 12 14 16 18 20 21 20 19 20 21 20 20 19 18 17 16 15
12 14 16 16 15 22 23 22 21 25 27 28 9 11 6 6 8 7 22 22 12 14 13 15 16 11 9 8 4 4 5 3 4 4 7 11 11 13 16 17 17 16 15 14 14 13 13 12 12 11 10 9 8 7
16 8 10 14 21 21 23 19 17 29 27 9 9 5 5 7 14 15 18 18 15 19 17 20 17 11 11 5 6 4 3 4 6 8 11 9 13 15 14 13 13 11 9 8 7 6 6 5 4 3 3 3 2 2
15 10 15 18 33 26 27 23 29 28 7 6 4 11 11 13 20 21 19 16 18 19 20 15 10 7 5 4 6 7 5 6 7 6 7 11 12 12 11 9 6 5 5 5 5 5 5 4 4 3 2 2 1 0
17 17 16 18 19 17 17 17 14 11 5 3 11 13 16 14 19 21 21 25 27 24 22 10 6 5 6 5 4 5 6 4 6 8 8 7 6 6 6 6 6 6 5 5 4 4 3 3 2 2 3 3 4 6
14 14 17 18 20 17 8 8 7 4 10 13 13 13 13 18 20 20 22 24 23 23 19 10 4 6 4 4 3 3 5 3 1 1 1 1 2 3 3 4 5 5 5 5 5 6 6 6 7 8 9 10 11 12
16 15 16 16 15 13 9 5 3 6 12 14 16 16 15 16 16 17 20 20 18 16 14 6 2 3 3 4 2 2 4 4 4 3 3 3 2 2 3 5 7 9 9 10 10 11 11 12 13 13 15 16 16 16
18 21 17 17 17 14 6 1 3 8 14 15 15 14 13 13 13 14 13 12 10 9 9 7 6 3 0 5 8 7 6 5 5 3 2 2 4 6 8 10 12 13 13 13 13 14 14 15 16 18 19 19 18 17
17 20 22 18 13 8 4 6 4 11 16 14 15 14 14 14 12 12 11 11 10 9 8 6 4 8 9 8 7 5 3 3 3 4 5 7 9 12 13 14 15 15 15 16 16 17 19 19 18 18 18 19 18 18
17 18 18 19 17 11 3 6 7 11 13 17 14 13 13 11 10 8 6 6 5 4 7 12 13 11 8 5 3 2 3 6 8 9 10 12 13 14 15 15 16 16 17 18 19 18 17 18 18 17 17 17 17 17
18 17 17 19 14 10 8 10 13 12 11 15 15 13 11 9 8 5 4 7 16 17 15 13 10 7 5 2 3 4 5 8 10 12 13 14 15 16 16 16 16 16 15 16 16 16 16 17 18 18 17 17 17 16
20 21 16 11 7 9 14 12 11 14 16 16 12 9 10 8 8 10 17 18 16 14 12 9 6 3 1 3 5 7 9 10 12 13 14 13 13 13 13 12 13 16 16 17 17 16 16 17 16 15 15 14 13 10
13 11 7 8 9 12 13 15 16 12 18 15 13 11 15 14 13 14 16 15 13 10 7 3 1 1 3 6 8 10 12 13 12 13 14 14 14 14 13 12 13 15 16 16 15 14 15 13 12 12 11 10 9 10
5 5 7 11 13 12 12 17 14 18 19 15 12 14 14 13 7 8 13 11 9 6 3 1 2 5 6 7 9 12 13 14 13 13 13 14 16 17 18 19 16 14 15 16 16 14 12 12 10 10 9 10 11 11
5 6 11 15 17 16 20 17 19 23 17 10 16 17 10 4 4 11 13 11 7 4 1 1 4 6 9 11 12 13 13 13 13 13 14 15 16 16 16 17 16 15 15 14 14 14 12 10 10 10 11 11 11 12
7 10 17 17 19 20 22 25 25 18 10 14 19 10 5 4 5 13 11 9 7 4 0 3 6 8 9 11 12 12 12 12 13 14 15 15 16 16 16 16 16 15 14 13 12 12 12 11 11 11 12 12 13 12
16 20 20 20 22 22 25 24 16 13 10 18 15 8 6 8 13 12 11 8 5 2 2 5 7 9 10 11 11 11 12 13 13 15 16 16 15 16 16 15 15 14 13 13 13 12 12 12 12 12 12 12 12 13
24 24 23 24 27 25 22 16 12 11 15 14 7 7 11 14 13 12 10 7 3 1 4 6 8 10 11 11 11 12 13 14 15 16 17 18 18 17 16 14 13 14 14 13 12 11 12 12 12 12 12 13 14 15
24 24 26 27 22 20 15 11 13 16 13 11 14 12 10 13 12 10 7 4 2 3 6 8 10 11 11 11 10 12 13 14 16 16 17 18 16 15 14 13 13 13 13 12 12 11 11 12 12 13 15 16 17 18
23 24 24 24 21 18 17 18 16 16 18 18 16 15 13 10 8 7 4 2 3 6 8 10 11 11 12 12 12 13 14 15 16 17 17 15 14 14 14 13 13 13 12 12 13 13 14 15 15 16 17 18 19 21
19 19 18 18 19 19 19 19 19 20 19 17 15 13 11 9 6 3 0 3 5 7 9 10 11 11 11 12 13 14 15 15 16 16 15 14 14 13 13 13 13 13 14 14 14 14 15 16 17 18 20 21 23 25

GFSWCAN_700_spd_084.txt.gz
Wind_Speed
28 25 24 25 24 24 23 23 21 18 17 18 19 19 19 19 19 20 20 23 22 21 16 12 15 14 13 7 6 6 5 4 9 10 10 9 6 8 11 15 14 15 9 19 26 15 14 25 16 12 11 18 17 16
27 25 25 24 23 23 22 19 16 17 17 16 16 17 16 18 18 22 24 21 29 24 17 18 16 16 15 16 12 12 6 4 3 5 11 6 6 6 11 12 14 15 19 9 13 17 16 15 14 14 13 16 20 19
26 25 24 23 22 21 19 17 17 17 17 17 16 16 15 16 18 21 23 20 24 31 23 25 19 11 20 19 17 17 17 14 6 5 3 5 5 7 9 8 17 20 10 9 13 11 17 19 13 13 17 19 18 19
25 24 23 22 20 19 18 19 19 18 17 14 12 13 15 16 17 22 23 21 22 24 28 22 9 16 20 18 20 19 18 18 19 7 3 4 8 9 12 14 15 11 5 9 9 16 13 13 8 14 15 15 9 6
24 23 22 21 19 20 19 17 16 16 15 13 12 14 14 15 14 18 18 20 20 21 9 15 20 11 14 15 16 15 17 13 19 15 9 7 8 9 12 11 2 3 9 9 6 3 11 13 11 2 5 7 5 2
22 22 22 20 20 18 16 16 17 17 15 14 11 10 13 16 17 16 17 15 14 15 20 10 11 14 13 12 21 15 15 14 14 14 12 11 8 12 10 2 3 5 8 8 12 6 4 5 6 6 9 9 10 9
21 21 21 20 19 19 19 20 21 21 19 16 12 13 13 18 18 18 14 10 13 19 17 10 8 10 12 13 21 21 17 13 12 9 14 14 11 8 10 12 6 7 9 10 8 7 5 7 11 11 6 7 11 9
19 19 19 18 19 20 20 21 22 22 22 19 15 15 16 18 19 21 16 9 11 15 14 7 7 5 14 19 16 17 22 16 18 15 16 13 7 8 5 6 7 10 10 11 10 12 12 14 14 13 13 13 12 14
16 16 17 20 23 25 24 25 26 28 30 25 20 21 20 24 26 25 20 12 8 14 11 10 10 7 16 18 17 14 15 18 16 14 13 8 11 9 10 11 11 11 13 15 15 16 21 17 14 17 18 20 19 18
11 14 18 21 20 17 17 17 17 19 24 29 33 31 28 28 24 22 25 16 13 14 19 22 11 14 17 17 19 14 11 11 6 10 6 9 17 16 18 18 18 18 19 19 23 24 21 19 19 21 22 21 22 21
5 5 8 8 9 10 11 13 20 27 31 39 37 31 28 29 23 22 10 15 13 11 14 21 20 14 12 17 18 14 6 7 6 8 10 7 15 20 21 22 21 21 20 19 17 18 22 24 25 24 24 23 22 21
6 3 6 10 10 12 12 20 27 40 43 40 38 30 31 28 11 10 13 12 8 12 8 13 23 16 7 14 10 16 6 7 4 5 9 5 20 19 15 13 14 16 18 20 22 23 23 22 21 20 20 21 20 20
9 11 12 13 17 21 21 30 37 38 39 31 33 27 18 9 10 10 15 15 14 13 14 12 17 17 10 5 4 7 6 5 3 6 5 7 4 9 12 14 16 18 18 18 19 20 19 19 18 17 17 17 16 14
13 13 16 17 21 22 20 28 31 28 24 34 15 14 7 8 11 8 20 25 19 15 15 13 13 11 12 11 3 4 4 3 4 4 4 4 6 8 12 15 16 16 15 15 15 15 15 14 13 11 11 10 9 7
15 14 17 16 19 19 22 21 28 32 26 13 10 8 10 10 16 12 19 21 13 13 18 18 16 9 8 4 6 5 5 4 5 4 6 7 9 11 13 15 14 12 10 9 8 7 6 5 5 4 4 3 3 2
14 16 20 19 21 19 18 20 24 21 13 15 6 9 10 18 20 17 20 19 14 17 19 16 12 6 7 5 7 6 4 5 2 4 7 9 11 8 3 2 3 4 3 3 3 3 3 2 2 1 1 1 1 2
16 18 27 29 23 23 26 31 25 10 6 6 10 11 13 17 18 20 20 20 22 19 22 10 8 7 7 6 6 5 5 7 6 7 6 2 2 3 3 3 3 2 2 3 3 4 4 4 4 5 5 6 7 9
20 21 26 18 20 21 19 25 20 9 7 8 10 13 13 17 20 20 20 18 20 22 19 7 3 6 2 3 4 4 6 7 3 2 2 2 2 1 1 3 3 4 5 7 8 9 9 9 10 10 11 11 12 14
19 20 20 18 13 11 10 6 5 10 16 13 14 15 16 18 20 19 22 23 19 17 14 8 3 3 4 5 5 4 4 5 3 2 1 1 3 4 4 6 8 10 11 12 13 13 13 13 14 14 15 16 17 17
20 18 18 17 14 10 5 3 6 10 16 17 18 17 16 15 14 15 17 17 15 14 12 10 8 5 3 2 5 5 4 3 1 2 3 3 4 7 10 12 13 14 14 14 15 15 15 16 17 19 20 20 20 20
19 18 18 18 14 9 2 6 7 15 18 17 17 15 16 16 16 16 15 14 13 11 10 9 7 4 7 8 7 5 3 2 2 4 5 7 9 11 13 14 14 14 14 14 15 16 16 17 18 18 19 20 20 19
19 21 18 17 12 6 5 6 12 16 16 20 17 17 17 16 15 14 12 12 11 9 8 8 10 11 7 5 2 1 0 2 4 7 9 11 12 14 15 15 15 16 16 16 16 16 17 17 17 17 18 18 18 18
17 19 19 16 9 5 10 15 17 16 14 18 18 17 15 14 12 11 8 10 9 13 14 13 10 7 5 2 1 4 7 9 11 12 13 13 13 13 14 14 15 14 14 15 15 16 17 18 18 18 18 17 16 16
18 18 15 12 7 8 15 11 12 16 17 19 15 12 14 12 10 7 9 16 17 15 14 11 8 5 2 2 5 7 9 10 11 11 12 12 12 11 12 14 14 15 15 15 15 16 17 17 17 16 15 14 13 11
15 12 7 9 9 12 12 15 15 12 21 18 15 11 13 11 11 12 17 16 14 12 10 8 5 2 2 4 5 6 8 11 12 12 11 10 11 11 11 12 13 16 16 16 15 15 15 15 15 13 12 12 11 11
7 6 8 11 14 13 13 15 14 16 20 15 11 13 15 14 8 9 15 13 11 9 8 6 4 1 3 7 9 9 9 10 11 12 12 13 14 13 13 13 13 14 16 15 15 13 13 14 13 12 11 11 11 12
5 4 11 15 16 15 17 16 16 22 17 8 16 19 13 6 5 14 16 13 11 8 7 4 1 2 5 7 10 11 11 11 11 11 12 13 14 15 16 16 15 15 15 15 14 13 12 11 11 12 12 12 12 13
7 8 14 16 16 17 20 21 23 19 11 16 21 12 8 6 6 15 14 12 10 7 4 1 2 5 7 9 11 11 11 11 11 12 13 14 16 16 17 17 15 14 14 14 14 13 13 12 12 12 12 13 13 13
10 12 18 18 19 20 22 22 16 14 12 19 17 10 6 9 15 15 13 11 8 5 2 1 3 7 9 10 11 11 12 12 12 12 13 14 15 16 15 15 14 13 13 14 14 14 13 13 12 12 12 12 12 13
18 22 22 23 23 23 22 18 14 11 17 17 11 8 10 14 14 15 13 10 6 3 1 2 5 7 9 11 11 11 11 12 13 14 15 16 16 15 13 12 13 13 13 12 12 13 12 12 12 12 13 14 15 16
23 23 24 24 23 22 20 15 13 17 20 13 11 10 11 14 15 13 10 7 4 1 2 4 7 8 10 12 12 12 13 13 14 15 16 16 15 14 14 13 13 13 13 13 13 12 13 13 13 14 14 15 16 17
22 23 22 23 23 21 17 17 19 18 16 17 19 18 16 12 11 10 8 5 3 2 4 6 7 8 9 10 11 12 13 14 14 15 16 15 14 14 14 13 13 13 14 14 14 15 15 15 15 16 17 18 20 21
20 20 19 18 19 19 18 18 18 18 21 20 18 18 16 12 10 8 5 3 3 4 6 8 9 11 11 12 13 13 14 15 15 15 14 13 13 13 13 13 14 14 15 15 15 16 16 17 18 19 20 21 22 23

GFSWCAN_700_spd_087.txt.gz
Wind_Speed
34 32 30 28 26 25 23 21 19 18 18 18 18 18 18 17 16 17 18 13 16 18 13 12 10 11 9 10 6 5 5 3 4 5 3 4 4 4 6 9 8 8 6 9 11 11 12 25 25 20 15 15 14 17
34 32 30 27 26 25 22 21 19 17 15 16 17 18 20 19 18 19 21 16 15 20 15 6 11 11 11 10 11 7 6 2 1 3 3 5 6 5 6 5 10 7 8 13 15 8 16 15 13 13 9 13 14 15
32 31 29 27 26 24 22 20 17 15 14 15 16 16 17 17 17 18 20 21 18 21 19 23 13 12 17 14 14 12 14 9 10 5 10 4 5 5 5 6 13 13 12 20 9 11 13 11 7 7 13 15 15 15
31 30 28 27 26 24 22 19 16 16 15 16 16 17 17 16 15 18 21 18 18 18 19 17 11 10 15 16 16 16 13 12 14 15 13 3 4 6 8 12 16 13 15 11 9 12 15 14 15 13 16 19 23 22
30 28 27 26 25 23 20 18 17 16 15 16 14 14 15 14 16 17 20 19 16 16 10 2 10 18 14 14 14 12 14 11 9 11 9 9 6 7 7 11 7 2 7 7 8 5 8 14 12 12 10 7 7 4
28 27 27 25 24 22 20 17 16 14 15 15 14 15 15 13 15 13 18 19 19 19 20 19 7 7 14 13 13 10 10 12 9 12 11 9 3 7 7 6 3 4 5 7 6 4 2 4 7 6 3 1 1 4
27 27 26 25 23 22 19 18 17 16 17 16 16 10 11 16 14 17 12 9 14 15 13 9 5 12 13 15 16 13 17 14 12 14 16 12 8 9 9 10 7 8 9 5 4 4 4 6 8 9 7 5 5 11
26 25 24 24 22 20 20 20 20 20 21 17 15 11 13 12 13 15 13 5 7 17 13 5 5 7 11 18 19 20 20 16 13 17 16 15 11 10 10 10 10 10 11 7 8 9 9 9 14 13 10 11 12 12
23 23 23 22 21 22 23 22 20 21 21 19 16 14 16 19 18 18 14 8 10 12 7 7 8 4 7 13 13 14 18 19 17 18 19 15 13 10 14 15 16 12 11 13 13 15 16 19 15 11 13 15 17 16
20 19 19 20 22 23 24 26 25 26 25 24 22 27 26 22 19 19 16 13 10 13 13 14 8 6 6 19 16 17 10 15 7 13 15 16 23 24 23 21 19 19 17 19 20 20 18 16 15 16 18 20 20 20
15 14 15 19 23 27 26 25 28 29 30 32 34 33 18 24 19 26 12 13 10 8 12 15 12 12 6 19 20 11 6 7 6 6 11 7 16 23 22 19 18 20 19 15 13 12 14 16 18 19 20 19 17 17
9 7 10 14 17 18 22 24 27 35 40 41 41 40 24 23 10 12 12 10 8 12 6 7 13 13 10 11 14 15 5 7 4 6 8 6 17 15 14 15 14 12 14 16 19 21 21 20 20 19 18 17 16 14
9 6 6 7 13 13 18 24 30 31 42 37 38 29 23 19 9 13 14 15 14 9 11 9 15 16 11 5 9 10 7 5 4 5 5 8 5 4 7 10 13 15 17 20 21 21 20 19 18 17 17 16 14 13
15 13 14 15 17 15 25 28 32 31 41 34 18 17 9 10 11 10 24 26 20 15 10 11 13 11 11 5 4 5 6 5 5 5 5 6 7 9 11 13 15 17 18 19 18 17 16 15 14 13 12 12 11 9
18 14 18 17 19 23 27 31 37 39 38 22 11 10 10 10 17 15 16 17 18 16 12 16 14 8 11 4 5 5 5 5 6 5 5 6 8 10 12 14 13 11 9 8 7 7 7 7 7 7 6 6 5 5
19 18 19 18 23 24 23 30 30 32 25 12 10 11 13 18 22 18 15 18 16 14 18 17 9 6 5 5 7 7 4 5 4 4 6 9 11 11 7 5 3 2 2 3 4 5 6 6 6 6 6 6 6 6
22 23 19 16 19 21 24 27 30 21 14 8 13 10 17 21 20 19 20 22 20 21 22 9 8 8 6 6 6 6 6 6 7 8 10 9 5 4 3 3 3 3 5 7 8 8 8 8 9 9 10 11 12 13
21 21 21 22 20 24 27 24 12 10 13 17 13 11 12 16 18 21 24 20 19 19 21 9 5 8 3 3 6 8 7 7 9 8 5 3 3 3 4 5 7 9 9 9 10 11 11 11 12 12 13 14 15 16
32 28 20 21 22 21 20 19 12 5 9 12 11 14 17 17 17 17 20 23 18 20 16 5 3 3 5 5 6 8 8 6 3 3 3 3 4 5 8 9 10 10 12 13 13 13 13 13 14 16 17 18 19 20
21 18 12 14 16 12 8 9 14 12 15 13 13 15 18 20 19 19 16 16 14 17 15 12 9 8 8 8 5 4 4 3 2 2 3 5 7 8 10 11 13 14 14 15 15 15 15 16 18 19 20 21 21 21
19 18 16 13 11 7 4 8 8 14 18 18 19 19 19 18 17 18 18 18 15 15 14 12 11 10 8 5 5 3 1 1 3 5 6 7 10 11 13 14 15 15 14 14 15 16 16 18 19 19 20 20 20 20
20 19 18 14 8 4 6 9 16 18 16 22 19 19 18 18 18 18 17 17 16 13 11 9 9 7 7 5 3 1 2 3 5 7 9 11 12 13 13 13 14 14 14 15 15 16 17 18 18 19 20 20 19 19
21 18 15 12 5 5 12 17 19 17 14 18 17 17 17 17 17 17 13 15 14 13 11 10 11 9 6 4 2 2 3 5 7 9 10 11 12 13 12 12 12 14 15 16 17 18 19 19 19 19 19 19 18 17
18 19 15 8 5 4 17 13 16 17 18 21 18 15 18 16 15 14 11 12 12 12 14 13 10 8 5 3 1 3 6 7 9 10 11 11 11 11 12 13 13 14 15 16 17 18 18 19 19 18 17 16 14 13
13 11 7 8 8 11 11 14 16 13 22 20 18 12 14 13 10 6 11 15 15 15 13 11 9 6 3 0 3 6 8 9 10 10 11 11 11 12 13 14 15 16 16 16 16 17 17 18 17 16 16 15 13 12
7 6 8 13 14 14 11 13 13 13 21 17 13 10 13 9 7 7 15 14 14 13 12 10 7 3 1 3 6 8 9 11 11 11 11 10 11 12 13 14 15 15 16 16 16 15 15 16 16 15 14 14 14 14
5 5 11 16 17 16 15 15 11 17 18 9 13 14 12 7 5 13 18 16 14 13 9 6 3 1 1 3 6 9 11 11 11 11 12 12 14 14 15 16 16 16 15 15 15 14 14 15 15 15 15 15 15 15
8 6 10 13 15 16 15 16 17 19 13 9 18 14 9 7 6 18 18 17 14 11 7 4 2 3 5 7 9 10 11 11 11 12 13 14 15 16 17 16 15 15 14 14 14 14 14 14 13 14 14 14 14 14
10 10 14 15 16 17 17 18 14 15 12 17 19 12 7 7 16 19 17 14 11 9 6 4 3 4 6 8 10 11 11 12 12 13 15 16 17 18 17 16 15 15 14 15 14 14 13 13 13 13 14 14 15 15
13 14 18 19 19 16 19 18 16 13 14 20 14 10 10 14 19 19 17 14 11 7 5 4 4 6 8 10 11 12 13 13 13 14 15 16 16 16 15 15 15 14 14 14 14 14 14 14 15 15 16 16 16 17
18 20 21 21 20 20 20 18 15 14 21 18 12 10 11 15 17 16 15 12 8 6 4 4 6 8 10 11 13 14 14 15 15 16 16 16 16 14 14 14 13 13 14 14 15 15 15 16 16 16 17 18 19 19
18 18 20 22 21 22 20 16 15 21 21 15 14 16 16 15 13 14 12 9 6 5 4 6 8 9 11 12 13 14 15 16 17 17 17 16 15 14 14 13 14 14 14 15 15 16 17 18 19 20 20 21 22 22
16 17 17 16 19 19 17 16 19 20 18 17 20 19 19 16 15 12 9 5 3 4 5 7 9 10 11 12 13 14 15 16 16 16 15 14 14 13 14 14 15 15 15 16 17 18 19 21 21 22 23 23 24 24

GFSWCAN_700_spd_090.txt.gz
Wind_Speed
33 30 31 30 28 27 25 24 23 20 19 17 17 17 17 18 16 18 18 13 14 15 13 13 8 7 8 6 5 5 5 4 3 3 2 1 0 1 2 2 4 2 3 3 1 5 9 9 14 11 13 13 16 17
36 33 32 31 29 28 26 24 22 20 18 18 18 17 18 19 17 17 17 14 11 18 13 6 3 6 8 7 7 4 4 2 2 5 6 1 2 3 4 2 2 2 1 7 8 11 27 25 18 12 8 8 9 12
34 33 33 31 29 27 26 24 22 20 18 17 15 15 16 17 18 19 16 16 16 24 17 14 11 12 12 10 10 9 8 7 6 4 10 4 3 3 2 2 6 8 9 9 13 2 11 14 13 5 7 9 6 11
34 33 32 29 28 27 26 24 21 18 16 16 15 15 14 13 14 18 20 14 14 23 19 14 8 4 9 14 12 12 11 8 8 10 10 5 2 4 5 7 11 13 11 8 3 2 6 11 14 10 12 14 13 15
33 33 31 29 28 27 24 22 20 17 17 17 15 15 15 14 16 17 17 15 15 16 8 3 0 8 13 8 11 11 11 11 7 6 7 8 5 5 5 8 8 5 4 6 8 5 2 4 1 4 4 8 8 8
30 31 29 28 27 26 23 22 19 17 18 17 16 15 14 16 16 14 17 19 19 19 16 17 10 12 13 19 12 12 9 10 10 7 11 8 4 5 5 5 3 3 4 6 4 3 3 4 4 7 6 4 5 6
30 28 29 28 27 24 23 21 19 19 15 14 16 15 14 16 16 16 13 12 11 13 19 12 9 10 6 11 14 14 13 10 11 13 15 13 11 9 10 12 8 6 5 7 6 5 5 5 7 10 13 11 10 11
29 28 28 28 26 25 24 21 21 21 19 18 18 15 13 15 14 12 13 10 7 13 14 7 6 10 11 12 15 16 13 13 13 14 16 14 12 11 9 13 14 12 13 11 9 8 10 10 11 14 15 14 14 15
27 27 28 27 26 24 23 24 27 24 23 22 20 16 16 14 14 11 12 8 7 12 7 7 8 8 7 10 12 13 14 16 15 18 16 11 15 11 13 13 14 14 15 13 13 14 15 18 19 21 19 16 16 18
26 26 25 25 24 24 26 28 28 27 26 25 21 22 19 16 14 11 12 11 9 12 13 7 10 7 3 7 9 12 10 14 7 12 15 20 27 25 22 22 21 19 18 18 21 22 23 23 22 20 18 19 20 22
24 23 23 23 24 26 30 29 26 27 27 30 26 26 17 18 14 16 11 13 10 8 11 13 13 11 7 9 16 7 3 6 5 8 6 6 15 18 18 22 23 21 19 20 21 17 14 15 18 19 19 20 21 22
22 22 21 22 25 28 30 29 31 35 34 34 27 26 25 15 10 11 11 10 8 10 6 9 12 17 11 8 14 12 7 7 4 6 6 5 15 16 18 18 18 18 15 14 15 16 15 15 15 15 15 15 16 17
21 20 15 17 23 27 30 34 31 33 32 35 33 24 22 14 10 11 15 12 15 6 11 9 12 16 11 3 10 7 6 5 4 5 5 11 12 11 9 10 11 13 15 15 13 12 12 11 10 10 10 10 10 11
13 13 12 14 20 24 29 32 33 35 36 36 21 20 15 9 10 11 20 26 18 15 5 10 11 13 11 3 5 5 6 4 5 6 6 10 10 10 10 10 11 13 14 13 12 10 9 9 8 8 7 8 8 7
16 14 16 16 22 28 30 33 33 34 42 18 12 13 18 17 12 10 15 21 16 15 11 8 13 8 11 4 5 5 4 5 5 6 7 7 8 9 10 12 12 9 7 6 6 8 8 9 9 8 8 7 7 7
16 19 19 19 24 31 33 34 31 41 22 14 11 14 24 11 19 16 14 16 17 16 12 16 9 7 7 5 6 6 4 5 5 7 7 8 9 11 10 5 3 4 5 6 7 8 10 10 11 11 12 12 11 11
21 21 22 22 24 29 37 42 37 32 19 9 14 21 26 18 21 22 18 16 16 16 21 11 8 6 5 5 6 5 7 11 10 9 9 10 7 3 2 2 4 5 7 9 10 12 13 15 15 15 16 16 16 16
22 20 24 29 28 26 27 27 18 10 14 18 17 16 17 19 21 19 20 19 19 16 25 9 5 7 3 3 6 9 10 10 8 9 6 3 1 2 4 6 8 9 11 13 15 16 17 18 18 19 19 19 19 20
21 22 20 19 27 26 15 22 17 13 21 19 13 15 16 17 17 19 18 25 23 19 21 12 5 5 8 8 8 8 8 7 5 2 2 2 4 6 7 10 12 14 16 17 17 18 19 20 21 21 20 20 20 21
23 20 19 19 20 26 12 11 13 11 16 15 12 14 16 17 18 23 18 17 16 17 21 12 9 6 6 7 7 5 2 3 2 1 3 5 7 9 11 13 15 16 17 18 18 19 19 19 19 20 20 20 20 21
17 22 24 21 17 18 9 12 17 12 15 16 15 17 19 18 18 20 21 20 18 20 22 16 12 10 7 5 3 3 3 1 2 4 6 8 10 11 14 16 17 18 18 18 17 17 18 18 19 20 20 21 22 22
15 16 16 12 7 4 7 11 13 17 19 21 20 21 22 21 20 20 19 19 17 15 13 10 8 7 5 5 5 4 2 2 5 7 9 12 13 14 15 15 14 14 14 15 16 17 18 19 20 20 20 20 20 21
17 14 11 6 2 5 12 18 18 16 15 21 21 19 20 21 20 19 15 18 16 13 11 8 7 7 8 7 4 2 3 5 8 9 10 11 12 12 12 13 13 14 15 16 17 18 19 19 20 20 20 19 18 18
15 14 8 3 2 4 16 13 14 16 16 20 19 13 18 17 17 16 13 11 14 12 10 10 12 11 8 5 2 3 5 6 8 10 11 12 12 12 12 13 14 15 16 17 18 19 20 20 19 19 18 17 17 16
14 9 4 5 4 9 10 13 15 12 20 18 17 11 14 14 13 11 12 11 12 13 14 14 11 8 5 4 4 3 5 8 10 12 13 13 13 13 14 15 16 17 18 19 19 20 20 19 19 19 18 17 16 15
7 5 7 10 10 11 9 10 12 11 17 16 12 10 13 11 8 4 11 16 17 15 13 12 10 6 6 3 3 5 8 10 12 12 13 12 12 14 15 17 18 19 19 19 18 18 18 18 18 18 18 17 16 15
5 3 10 11 12 11 11 11 9 13 18 10 14 11 12 7 6 12 18 17 17 15 12 9 7 5 2 3 5 8 10 12 13 14 14 14 14 15 16 18 19 19 18 17 16 16 17 18 18 18 18 17 17 16
7 3 8 11 13 13 11 14 13 17 13 11 15 14 10 7 7 17 19 18 15 13 10 8 5 2 3 5 7 10 12 14 15 16 16 16 16 17 17 19 18 17 16 16 16 16 17 17 17 17 16 16 16 16
6 7 7 11 12 13 12 13 10 12 12 9 15 15 6 9 10 21 19 17 13 12 10 6 3 3 5 7 9 12 14 15 16 17 17 17 18 19 20 19 18 18 17 17 16 16 16 16 17 17 17 17 17 17
10 10 10 13 14 12 13 13 11 12 10 14 17 11 8 9 18 20 19 16 14 10 7 4 3 4 6 9 11 13 15 16 17 18 18 19 19 19 19 18 17 17 17 17 17 17 17 17 17 18 18 18 19 19
13 15 14 15 16 13 14 14 14 13 13 19 16 9 7 11 16 17 16 14 12 9 6 4 4 6 8 10 12 14 16 17 18 18 19 19 18 17 17 16 16 17 17 17 17 18 18 18 19 20 20 21 21 22
14 17 16 17 17 15 16 16 15 12 18 20 13 11 11 13 14 14 14 12 9 7 5 5 6 8 10 12 14 16 17 18 19 19 19 18 17 16 16 16 16 16 17 17 18 18 20 20 21 22 23 23 23 24
14 14 15 15 15 16 17 15 13 14 19 17 13 14 16 16 16 15 13 9 6 5 5 6 7 9 12 13 15 16 17 18 19 19 18 16 15 15 15 16 16 17 17 18 20 21 22 23 24 24 24 24 25 25

GFSWCAN_700_spd_093.txt.gz
Wind_Speed
28 28 27 27 27 27 25 23 22 20 19 17 16 15 14 14 16 14 16 16 9 13 11 10 8 9 7 7 6 5 5 6 4 6 4 3 3 3 3 3 3 4 3 3 2 3 3 3 11 17 15 15 13 11
31 30 30 28 27 27 25 24 22 21 19 18 17 15 15 15 18 19 21 15 15 16 12 7 2 3 6 6 5 4 2 4 6 7 5 2 2 2 3 2 2 1 3 2 3 2 16 23 16 12 6 7 6 7
34 33 34 31 28 28 26 23 21 21 20 18 17 15 15 16 19 19 17 14 14 14 12 10 6 10 12 7 9 4 5 2 4 5 8 3 2 2 2 0 2 4 5 4 6 5 5 5 8 5 6 6 6 5
32 33 34 31 28 29 26 23 22 20 19 18 16 15 15 16 18 19 19 14 13 12 15 12 9 5 5 9 11 8 8 7 3 6 5 4 1 2 3 4 7 9 9 4 4 7 6 5 4 7 7 9 11 12
30 27 31 31 28 27 25 24 23 21 19 16 16 16 15 16 15 15 14 13 13 13 11 6 2 4 8 10 9 10 8 8 7 5 5 4 4 2 4 5 4 3 4 4 4 7 4 2 4 3 2 4 7 8
23 25 29 29 28 26 25 24 23 21 18 17 18 16 16 16 16 16 15 12 14 18 20 19 11 10 11 11 14 9 11 10 10 8 4 6 1 4 4 3 2 1 2 5 3 2 1 1 1 4 6 6 7 10
26 27 25 27 26 25 25 24 23 20 19 20 19 17 18 19 20 19 11 8 10 12 20 12 12 12 8 7 16 10 12 10 10 11 10 8 8 9 10 10 4 6 8 7 7 8 8 8 8 9 10 12 10 11
30 28 26 26 25 26 25 24 23 21 22 18 16 16 16 18 14 16 15 10 6 9 15 8 7 7 7 6 11 13 12 9 11 12 13 11 11 8 8 9 8 9 10 12 11 11 11 12 14 15 16 18 15 14
23 25 26 24 25 26 26 26 24 26 24 20 17 17 17 16 13 10 10 8 9 11 7 9 9 5 7 9 12 14 15 16 16 16 14 11 11 9 7 7 10 9 10 12 14 14 15 17 20 24 24 23 20 17
21 23 25 25 26 27 28 27 29 29 26 25 24 22 18 20 14 15 9 11 9 11 12 8 12 8 7 9 10 11 7 8 6 9 11 18 25 24 24 22 20 18 18 17 17 16 20 21 20 19 18 19 19 19
22 23 25 26 27 28 29 30 33 31 25 30 28 21 18 18 15 12 8 10 9 6 9 13 12 11 8 6 10 8 3 5 4 5 6 5 10 12 13 15 16 18 18 17 16 17 18 17 17 19 21 23 24 24
22 24 26 28 29 30 31 33 37 30 27 26 28 18 22 22 10 8 9 8 7 8 7 9 16 17 12 6 11 8 4 4 4 4 4 5 10 9 9 10 10 12 13 13 14 15 17 18 20 20 21 23 23 22
25 27 28 29 30 32 35 37 36 33 23 32 15 22 13 9 9 10 14 11 10 7 5 9 12 16 14 7 7 6 5 5 2 5 5 8 9 9 9 8 9 11 12 14 15 16 18 19 19 19 18 17 16 15
27 28 28 28 30 33 37 37 38 35 25 34 17 19 14 10 11 16 15 16 16 12 7 8 10 14 13 8 6 5 6 4 5 5 6 9 9 8 7 10 12 13 14 16 14 10 7 6 6 6 6 6 7 8
25 26 26 28 30 31 36 39 37 34 32 23 12 10 20 16 16 14 11 11 14 14 10 6 10 9 12 4 5 5 4 5 4 4 6 7 6 7 10 12 13 10 6 3 3 3 4 6 7 8 9 9 10 10
20 16 20 24 27 31 38 38 36 39 43 16 14 15 25 22 17 13 11 9 13 15 14 8 9 6 8 5 6 7 4 6 5 6 7 8 9 11 11 7 4 4 5 6 8 10 11 11 11 12 12 13 13 14
25 24 26 26 28 32 38 39 37 34 22 22 17 20 25 23 19 16 20 15 16 18 16 9 8 6 5 6 6 6 8 9 10 9 8 9 10 7 4 4 5 7 9 11 12 13 14 15 16 16 16 17 17 18
30 25 25 31 32 35 36 36 32 20 15 11 26 27 30 23 16 17 19 16 15 18 20 8 6 7 4 3 5 6 7 8 9 8 9 6 3 2 3 5 8 10 12 13 15 16 17 17 17 17 18 18 19 20
26 26 29 29 25 29 35 30 24 15 23 21 15 21 22 23 22 17 18 17 18 18 22 11 5 5 6 7 7 7 8 8 7 4 2 1 3 5 8 10 12 13 15 17 18 18 18 18 19 19 20 19 20 21
27 26 25 31 35 36 15 10 14 18 24 23 18 19 19 17 16 16 19 17 17 15 19 17 9 5 4 5 7 8 5 2 1 1 2 4 5 8 10 12 14 16 17 17 17 18 18 18 18 18 18 19 19 20
24 22 24 28 23 9 11 18 16 16 21 18 15 14 15 17 20 20 19 23 24 24 20 17 16 10 10 8 6 3 2 0 2 3 5 7 9 12 14 16 17 17 17 17 17 17 17 18 19 19 20 20 20 21
21 19 19 16 19 17 9 14 16 18 19 21 20 17 19 18 20 24 21 18 18 18 14 15 14 11 9 6 4 2 0 2 4 6 8 11 13 15 15 15 15 15 15 16 16 17 18 19 20 20 20 20 20 20
23 19 14 9 7 6 12 15 18 18 13 21 20 18 21 21 19 19 16 19 17 14 12 11 10 9 7 6 3 2 2 4 6 9 11 12 13 14 14 14 14 15 16 17 18 19 20 20 20 20 19 19 18 18
15 11 6 3 3 7 18 13 15 16 16 21 20 15 21 21 19 18 16 13 15 15 12 12 10 8 7 5 3 2 4 7 8 9 10 12 13 14 14 14 15 16 17 18 19 20 20 20 19 18 18 17 17 16
8 6 3 3 6 12 11 14 16 12 22 20 19 11 16 15 15 13 14 13 11 14 13 10 9 8 7 4 2 4 6 6 8 10 12 14 15 15 15 16 17 18 19 20 20 20 20 19 19 18 18 18 17 17
5 3 4 6 8 9 10 13 13 10 18 15 11 10 15 13 12 6 13 13 12 12 11 12 11 9 6 3 4 5 5 8 10 12 13 14 15 15 16 18 19 20 20 20 19 19 19 19 19 19 19 18 17 16
5 2 6 7 8 8 9 9 11 15 17 10 13 16 12 6 6 6 11 16 18 18 16 13 10 7 5 5 3 5 7 10 11 13 14 15 15 16 18 19 19 20 19 19 18 18 18 19 18 18 18 18 18 17
7 2 4 8 8 9 8 11 11 14 12 12 17 12 10 6 7 14 17 19 17 15 13 10 8 6 4 3 4 7 9 11 13 14 15 16 17 18 18 19 19 19 19 18 18 18 18 18 18 18 18 19 18 18
5 5 3 8 10 10 10 11 8 11 14 14 17 14 11 10 8 19 20 18 16 15 13 10 8 5 3 3 6 8 10 12 15 16 17 18 19 19 20 20 19 19 18 17 17 17 18 18 18 18 19 19 19 20
7 5 6 8 11 10 11 12 10 12 15 13 16 16 10 8 13 21 21 19 16 14 11 8 6 3 3 5 7 10 12 14 16 18 19 20 20 20 20 19 18 18 18 18 18 18 18 18 19 19 20 21 21 22
10 10 9 9 11 10 12 12 12 13 12 15 18 11 7 7 15 21 20 17 14 13 10 7 5 3 5 7 9 12 14 16 18 19 20 20 19 19 18 17 17 17 18 18 18 19 19 20 21 22 22 23 24 24
12 13 13 11 12 12 12 13 13 12 9 15 16 10 8 12 15 17 17 16 14 11 8 5 4 4 6 9 11 13 15 17 19 19 19 19 18 17 16 16 17 18 18 18 19 20 21 22 23 24 25 25 26 26
13 14 14 13 13 13 12 12 12 10 10 15 14 11 12 15 16 17 16 14 12 8 6 5 4 6 8 10 13 15 16 18 19 18 18 17 17 16 16 17 17 17 18 20 21 23 24 25 26 27 28 28 29 29